GFSSGP_con_mlcape_000.txt.gz
CAPE
990 1074 1168 1087 63 6 2 33 42 106 199 252 280 304 368 421 437 299 331 741 673 642 656 811 1298 1442 1085 1301 1206 1244 1582 1805 1824 1845 1805 1636 1292 1275 1649 1765 1623 1564 1797 1867 1982 2018 2024 2041 2177
1178 1116 1377 511 11 11 92 51 45 40 337 471 437 418 410 349 351 338 579 946 922 800 792 966 1102 1380 1688 1413 1528 1505 1783 1840 1886 1784 1589 1521 1557 1758 2007 1974 2039 2179 2199 2066 1974 2067 2161 1980 1935
1182 1258 1092 42 28 7 52 186 237 301 230 41 341 369 275 399 437 492 731 983 1027 1088 1098 1216 1333 1797 2051 1976 1951 1843 1864 1877 1844 1724 1785 1670 1939 2114 2049 1966 1994 1995 2022 2176 2163 2056 1934 1886 1779
1323 1307 737 81 59 99 162 234 301 126 50 83 97 313 536 581 648 574 947 1043 1192 1499 1580 900 1293 1946 2071 2132 1727 1775 1809 2001 2011 2112 1782 1761 1916 2108 2114 2124 2121 2095 2168 2106 2125 2009 1881 1733 1670
1287 928 77 59 245 245 185 123 58 40 32 74 64 168 556 870 656 762 1044 1116 1196 1401 1669 1457 1420 1709 1735 1795 1767 2172 2060 1954 2054 1936 1858 1943 1987 2167 2136 2047 2058 2114 2145 2001 1950 1936 1766 1704 1682
738 351 76 60 274 436 432 369 47 80 198 220 222 450 955 848 647 844 927 1004 1158 1329 1552 1693 1509 1803 2097 2191 1765 2016 2205 2126 2034 1866 1919 1961 2090 2120 2129 2110 2251 2252 2095 1952 1879 1779 1551 1465 1473
389 86 54 70 370 511 563 530 92 49 88 209 313 458 973 841 700 802 943 1089 990 1274 1368 1574 1560 1715 2265 2350 2024 2108 2123 2137 2045 1900 1955 1976 2127 2140 2143 2242 2206 2092 1953 1982 1987 1803 1613 1589 1577
441 63 28 37 45 379 628 422 288 238 370 532 466 243 703 825 741 766 865 1011 1271 1226 1345 1408 1435 1481 1519 1477 1795 1922 2112 2043 1875 1969 1852 1831 2104 2174 1980 2163 1819 2194 2137 2259 2339 2260 1562 1589 1683
112 21 10 3 34 400 612 490 796 532 985 1239 1072 483 791 751 718 737 820 893 1085 1067 1279 1501 1672 1763 1749 1567 1629 1619 1584 1636 1641 1621 1732 1508 1302 1823 1747 1685 2055 2077 2168 2269 2284 2231 2245 1987 1346
2 3 0 0 9 278 549 644 829 884 1326 1405 1170 1177 1018 698 690 704 721 800 1006 1080 1119 1157 1304 1583 1756 1543 1676 1534 1377 1118 1100 1241 1687 1517 1734 1937 1926 1916 2186 2286 2322 2302 2286 1986 1689 1180 1296
0 0 46 311 374 473 578 745 686 657 650 1277 1147 1059 894 679 670 679 695 683 783 1023 1074 1233 1442 1616 1506 1408 1588 1495 1547 1465 1548 1887 2015 1855 1916 1912 1856 1544 1691 1667 1714 1360 1457 1411 1454 1078 1096
0 318 297 696 582 389 324 368 986 1030 1013 1267 1121 1118 1025 775 582 560 611 647 770 941 1070 1322 1604 1799 1799 1630 1531 1499 1479 1570 1507 1615 1908 1850 1834 1665 1615 1477 1486 1479 1299 1299 1280 1311 1306 1338 1025
16 469 737 778 430 283 91 352 1123 1373 1313 1339 1342 1324 1230 970 757 647 638 648 779 989 1157 1297 1705 1829 1894 1928 1555 1424 1437 1352 1329 1450 1601 1796 1626 1546 1583 1552 1617 1242 1313 1576 1615 1520 1452 1390 909
140 409 509 322 24 10 18 264 111 1577 1517 1397 1370 1374 1384 1246 1115 883 675 654 767 850 963 1411 1712 1910 2029 1943 1905 1794 1703 1512 1506 1384 1414 1754 1875 1570 1410 1396 1392 1432 1326 1524 1574 1358 1498 1335 1201
343 362 606 259 493 28 0 38 398 1523 1654 1456 1381 1535 1536 1574 1583 1530 1394 1319 1298 1313 1310 1491 1900 1937 1970 2016 2040 2074 1683 1525 1403 1348 1490 1638 1798 1664 1754 1301 1322 1326 1555 1138 1265 1489 1481 1382 1224
59 59 115 284 421 218 730 44 733 1038 1184 1426 1469 1533 1585 1706 1665 1766 1811 1880 1868 1881 2033 2161 2193 1840 1997 2067 1909 1943 1768 1561 1283 1046 993 1342 1656 1868 1315 1191 1284 1315 1539 1146 1121 1183 1283 1390 1075
8 20 38 137 461 476 426 124 501 685 649 860 1189 1428 1506 1585 1745 1768 1878 2083 1976 1718 2071 2477 2424 2069 1821 1916 1933 1776 1709 1692 1599 1422 1364 1589 1688 1569 1311 1130 1087 968 1162 1122 912 1128 1177 1053 1068
0 2 14 13 154 360 295 501 273 522 409 482 763 995 1219 1314 1440 1707 1901 1993 2209 2347 2493 2523 2384 2402 2439 2221 2297 1967 1807 1675 1668 1693 1679 1725 1893 1632 1730 1449 1362 1436 1157 1023 1078 1021 1168 1053 980
0 0 9 4 43 132 243 680 268 296 457 303 293 797 877 985 1166 1526 1834 1961 2024 2109 2262 2461 2535 2589 2453 2306 2148 2097 2050 2031 1827 1827 1857 1970 1991 2033 2031 1476 1399 1583 1353 1395 1507 1678 1180 898 769
0 0 0 6 62 123 576 663 655 398 124 372 357 653 766 972 1081 1578 1676 1889 1986 2174 2311 2490 2673 2748 2762 2396 2398 2155 1776 1486 1562 1934 1876 1648 1364 1365 1230 1164 946 937 916 1021 1297 1405 1170 726 696
0 0 0 0 166 185 589 603 1063 753 695 457 714 699 1014 1134 1210 1403 1539 1748 1862 2072 2440 2527 2699 2732 3089 2786 1921 1137 550 904 446 532 370 718 921 763 766 744 754 812 962 753 766 872 859 767 513
0 0 0 0 174 30 253 53 865 873 905 790 552 972 1046 1249 1400 1364 1333 1590 1657 1965 2344 3127 3341 2967 2065 1142 597 578 24 79 174 161 134 319 282 457 462 566 546 770 730 768 657 728 839 691 660
0 0 9 37 110 147 388 107 63 658 818 726 787 715 816 1056 1288 1302 990 1194 1469 2298 2620 2397 1792 1225 769 692 283 44 47 0 32 11 11 91 100 217 293 442 434 536 529 446 462 525 784 645 523
0 21 47 55 28 7 17 17 1 41 301 398 736 931 1012 993 1128 1361 1148 1402 1992 1886 1592 817 819 597 476 207 172 133 84 13 0 7 9 7 14 42 133 100 106 214 281 328 397 445 648 747 691
0 0 0 0 0 0 2 0 0 3 257 296 459 947 1093 948 984 1167 1538 1836 1580 1606 777 392 571 488 432 5 0 2 4 8 1 25 0 0 0 3 2 0 0 0 65 142 230 312 485 567 660
0 0 0 0 0 0 12 0 0 107 142 100 378 724 988 909 734 1009 1657 1522 1525 1175 465 326 547 462 57 41 131 104 58 0 0 1 0 0 0 0 0 1 1 3 28 67 155 243 310 372 409
0 0 0 0 0 0 0 0 0 33 82 125 390 701 1065 660 630 999 1360 1321 1190 480 399 430 494 339 52 45 224 172 113 67 2 6 32 4 0 0 0 6 10 30 70 180 290 207 172 231 347
0 1 0 0 0 0 0 0 0 0 0 87 187 566 1139 556 595 926 1039 1058 594 323 331 368 425 325 118 118 118 0 0 20 2 0 0 17 31 29 30 26 30 50 87 84 133 86 106 335 347
0 0 0 4 0 0 0 0 0 0 0 0 187 590 1022 561 389 720 997 1095 355 284 212 236 318 258 128 132 46 8 0 0 0 0 4 25 35 80 73 158 197 190 219 217 190 138 46 53 98
0 0 4 8 28 5 0 0 0 0 0 0 20 526 799 934 189 162 868 980 296 281 40 51 106 107 34 28 5 0 0 0 0 0 0 2 0 65 96 169 403 376 332 348 392 293 206 153 75

GFSSGP_con_mlcape_006.txt.gz
CAPE
465 926 1402 1081 696 23 9 14 62 10 55 72 125 198 0 100 157 98 252 490 534 356 449 964 1390 1189 945 813 971 1180 1386 1503 1568 1276 1005 989 1243 1329 1299 1369 1441 1606 1799 1972 1978 1935 2084 2113 2070
538 1457 1152 1252 53 0 2 1 0 0 0 110 190 372 397 331 292 416 463 467 425 395 465 705 1325 1316 1309 949 1013 1219 1655 1611 1191 1163 1027 1292 1504 1719 1685 1709 1970 1986 1930 1922 2054 2012 1855 1722 1639
365 1253 1200 259 8 9 20 6 7 11 10 18 95 234 329 527 559 665 511 575 708 1017 992 976 960 1065 1453 1532 1445 1486 1648 1757 1368 1228 1117 1335 1352 1310 1555 1538 1820 1953 1988 2071 1976 1904 1800 1692 1578
1305 644 1076 0 0 5 0 0 0 15 0 49 131 154 416 728 740 692 722 895 1209 1277 1093 1147 950 1011 1580 1702 1631 1504 1665 1701 1488 1252 1404 1165 1345 1722 1798 1867 1946 2016 2067 2078 2042 1891 1749 1590 1511
896 598 116 3 26 38 22 3 0 2 0 21 176 201 428 1108 1025 1014 1058 1018 1029 1177 1180 1585 2145 2039 1984 1995 1910 1856 1569 1514 1376 1243 1145 1595 1737 1822 1897 1987 1962 1929 1900 1886 1795 1709 1547 1426 1389
124 389 68 20 23 43 1 4 13 0 5 49 168 270 401 829 734 1080 1265 1299 1101 1075 1135 1317 2050 2089 2038 2117 1967 1946 1742 1706 1442 1506 1698 1871 1901 1852 1772 1817 1913 1837 1679 1682 1725 1662 1322 1179 1269
9 43 82 60 49 0 0 0 1 0 17 208 174 306 329 537 502 1182 1246 1359 1317 1318 1254 1316 1492 1709 1916 2214 2040 1923 1832 1657 1433 1632 1809 1946 1928 1821 1841 1888 1827 1613 1717 1760 1865 2041 1725 1645 1564
135 277 19 72 177 1 4 0 3 1 43 162 263 222 342 368 646 730 996 1197 1340 1377 1529 1592 1419 1345 1592 1856 2338 2322 2070 1832 1642 1736 1797 1855 1909 1894 1979 1412 1689 1873 1633 1689 1952 2097 1982 1656 1272
508 86 15 0 73 169 240 167 68 42 160 268 424 283 427 326 610 714 1051 1312 1551 1295 1345 1369 1623 1722 1591 1593 1655 2137 2152 1973 1810 1761 1725 1478 1325 1207 721 75 379 1556 1573 1271 1564 1709 1876 1733 1529
2 0 9 0 54 154 39 189 342 377 422 352 99 430 429 398 426 999 636 865 1024 1155 1360 1342 1409 1669 1687 1446 1341 1790 1702 1597 1530 1323 1427 1551 1356 1556 1074 363 730 1406 1389 1453 1655 1336 1627 1421 1294
0 0 0 55 118 178 21 470 302 222 419 396 275 431 433 465 478 461 1021 636 992 1083 1006 1231 1621 1636 1859 1564 1566 1812 1597 1425 1405 1417 1557 1678 1490 778 1611 1022 1354 1557 1436 1616 1772 1805 1979 1584 1409
11 48 2 0 112 29 54 349 149 9 272 665 298 414 435 461 450 427 538 506 830 608 1109 1338 1200 1923 1723 1402 1410 1603 1751 1573 1103 1522 1618 1591 1335 1426 1463 1408 1397 1391 1278 1156 1236 1135 1598 1331 1175
14 0 0 19 11 0 49 253 521 172 539 352 233 398 455 438 425 391 423 492 767 685 889 1273 1603 1221 1830 1479 1436 1010 1003 1007 1154 1667 1442 1512 1535 1331 1252 1440 1698 1397 1491 1304 1288 1524 1485 1295 1282
3 20 4 20 0 2 18 156 317 667 525 372 326 396 442 505 530 482 456 529 661 745 756 1105 1575 1700 1791 2102 2088 1959 1000 1100 878 1162 1139 942 1354 1381 1366 1217 1492 1608 1250 1773 1737 1619 1315 1395 1380
0 1 11 0 11 0 0 142 412 623 680 658 684 636 592 584 518 528 462 568 635 664 788 1097 1214 2177 2168 2178 2372 2216 1879 880 984 957 907 1147 1438 1556 1401 1078 1117 1156 1687 1528 1543 1630 1474 1501 1289
4 18 4 15 0 0 44 297 652 585 803 961 886 830 852 924 874 721 527 496 480 674 950 1143 1180 1962 2229 2503 2322 2306 2007 1730 1508 1180 1078 1173 1229 1170 1341 1284 1211 1273 1248 1424 1453 1338 1138 1265 1236
4 7 2 33 7 1 1 229 588 541 514 531 843 807 957 943 1272 1127 1129 893 996 1092 1198 1346 1457 2090 2320 2444 2646 2217 2178 1765 1683 1653 1613 1549 1782 1823 1466 1399 1760 1537 1240 1378 1404 1328 1289 1116 849
0 2 21 28 6 21 37 147 261 223 316 413 477 432 610 668 611 1097 1401 1020 1282 1309 1604 1764 1636 1861 1995 2279 1847 1951 1781 1695 2040 2110 1926 1771 1810 1712 1443 1561 1413 1308 1258 1239 1021 920 936 983 1254
22 5 0 12 24 63 26 47 99 42 119 358 442 363 340 286 785 923 1297 1558 1393 1399 1642 1866 2084 2350 2378 2109 1641 1934 1754 2005 2001 2182 1705 1812 1771 1611 1858 1721 1548 1375 1211 1163 990 1009 985 796 1004
0 0 0 2 11 50 87 111 88 49 44 200 433 459 337 402 363 398 530 577 719 1740 2004 1893 2275 2216 2582 2292 2685 2415 1984 2053 1736 1584 2043 1824 1471 1470 930 1168 860 459 717 640 427 375 476 650 709
0 0 0 3 8 1 36 82 53 63 76 78 141 327 325 296 343 529 696 711 898 1248 1716 1790 2351 2206 2442 2627 2646 1851 1921 1070 814 940 1113 810 401 284 559 769 746 646 528 412 574 401 310 500 630
0 0 0 0 0 2 0 0 27 19 2 58 38 97 175 187 282 484 666 897 962 1368 1725 2073 2321 2681 2895 2097 903 637 113 0 354 140 267 21 60 250 309 346 504 655 461 391 468 525 382 404 342
0 0 0 0 0 0 0 0 85 58 4 15 21 43 73 132 173 224 359 517 669 1375 1633 2458 2822 2506 1757 895 168 163 34 0 0 0 0 1 9 176 330 354 480 309 454 407 309 366 241 249 317
0 0 0 0 0 0 0 13 66 43 203 36 52 80 48 89 164 157 245 371 484 1077 1477 2447 2588 1342 743 418 214 56 0 1 0 43 22 79 19 2 372 312 193 187 184 191 74 167 170 170 211
0 0 0 0 0 0 0 1 36 50 37 125 60 2 56 132 256 311 238 374 531 1071 1587 2403 1805 1117 683 233 79 0 0 6 44 163 137 11 0 3 208 220 189 110 114 101 95 77 35 86 56
0 0 0 0 0 1 3 2 29 25 109 131 341 257 69 17 313 457 643 535 993 1323 1859 1733 1472 982 632 229 35 19 66 70 127 315 223 26 0 36 12 90 96 79 140 84 59 3 59 134 17
0 0 0 0 0 0 0 0 0 0 0 0 13 0 207 119 75 417 748 940 1283 1438 1706 1430 1289 1177 720 205 401 476 349 229 123 185 157 64 199 105 128 89 40 101 95 31 19 47 2 72 52
0 0 0 0 0 1 4 1 0 17 0 0 0 0 35 185 292 263 523 1174 1667 1589 1608 1188 1127 1336 560 383 565 580 264 180 275 218 118 152 140 166 214 189 179 125 178 205 74 5 74 77 34
0 0 0 0 0 0 5 3 4 5 0 0 0 0 0 19 298 733 758 1389 1811 1413 1448 807 899 1159 585 275 449 175 0 0 120 111 67 63 190 223 269 246 201 185 190 252 105 56 138 78 178
0 0 3 0 5 0 6 0 0 0 0 0 0 0 0 88 164 1143 1010 1660 1790 1440 1289 666 506 705 581 419 405 278 86 21 15 21 48 61 91 91 91 149 178 157 233 226 23 103 207 230 255

GFSSGP_con_mlcape_012.txt.gz
CAPE
940 733 621 1003 596 4 45 69 25 28 17 6 59 102 167 257 8 3 71 164 372 499 786 1067 1262 1446 1442 1125 660 826 982 1028 1125 865 933 1350 1458 1308 1587 1903 1974 2069 2052 2000 2128 2082 1873 1761 1790
453 721 1011 1260 79 0 8 51 50 19 42 56 266 385 239 284 222 173 146 225 402 592 921 1237 1378 1444 1242 1141 1215 1372 988 754 772 853 944 984 1256 1433 1527 1576 1742 1753 1808 1900 1872 1810 1805 1682 1539
377 485 1244 710 30 14 52 170 221 49 85 262 351 306 292 263 385 323 312 297 694 606 737 1148 1174 1353 1210 1490 1502 1165 1125 1061 1093 1241 1352 1345 1398 1506 1806 1701 1535 1622 1720 1810 1840 1834 1732 1695 1516
434 526 730 132 0 30 128 377 378 116 170 516 539 410 497 526 501 400 406 537 455 702 1075 1346 1331 1388 1591 1745 1293 1285 1035 1183 1369 1494 1443 1271 1413 1461 1763 1729 1785 1806 1827 1766 1741 1654 1554 1561 1618
351 95 38 0 0 75 226 377 339 518 686 666 478 474 587 672 767 553 619 533 415 728 1222 1356 1236 1367 1443 1719 1514 1352 1184 1084 1053 1143 1552 1753 1732 1726 1723 1707 1662 1645 1626 1550 1523 1484 1384 1141 1172
42 16 8 2 0 0 172 209 498 615 633 400 508 458 592 943 1017 909 867 533 569 624 1182 1418 1328 1416 1616 1863 1817 1563 1352 1231 1189 1471 1815 1640 1719 1709 1594 1610 1644 1617 1510 1447 1356 1454 1291 1173 1248
17 3 0 1 0 67 244 299 366 637 602 573 540 256 588 807 976 1122 1043 691 736 1070 1299 1684 1760 1715 1616 1728 1727 1771 1446 1104 1253 1742 1673 1728 1572 1340 1444 1578 1589 1477 1391 1446 1650 1754 1832 1626 1620
96 42 0 0 0 6 164 167 317 564 696 887 496 457 505 604 812 1113 933 832 942 1497 1634 1670 1824 1991 1857 1811 1735 1511 1440 1432 1428 1511 1457 1454 1472 1483 1374 1208 1264 1685 1730 1769 1720 1393 1224 1027 1029
111 25 0 0 0 0 3 118 318 571 659 574 731 630 912 879 975 1095 1052 957 852 1005 1173 1482 1742 1708 1544 1716 1797 1713 1359 1216 1160 1184 1150 1298 1355 1078 217 458 611 1056 1175 1363 1584 1041 787 1023 1023
206 149 29 0 6 30 71 200 239 429 535 459 431 904 1251 1235 1126 1137 1128 1065 959 946 864 925 1153 1465 1581 1867 1954 1631 1456 1101 900 898 926 1043 1041 938 684 582 713 507 826 1248 1158 1159 1122 1309 1567
100 42 25 10 38 216 193 220 245 318 322 368 565 1115 1307 1318 1245 1244 1247 1023 957 1039 1036 957 1038 1282 1377 1497 1545 1468 1396 966 701 641 882 1034 1053 1039 949 1024 824 992 1163 1259 1362 1405 1343 1193 1241
1 0 3 33 120 145 127 81 156 262 308 339 950 1327 1341 1258 1241 1310 1137 1084 1078 1130 1095 1164 1218 1297 1315 1218 1204 1068 1142 879 754 801 1108 1163 1149 984 804 1103 1027 1180 1142 1157 992 939 1050 1212 1135
0 0 18 167 185 126 107 1 153 232 286 216 728 942 1046 1007 1148 1312 967 1044 1075 833 927 1324 1488 1328 1439 1482 1043 1322 1369 1276 1106 1103 1088 1374 1276 938 1040 1159 1030 783 1118 932 1202 1213 1035 988 1009
25 11 141 249 193 8 0 9 237 356 275 187 213 502 701 922 922 703 872 1067 969 982 1177 1398 1520 1379 1441 1229 1462 1424 1640 1644 1391 1344 1263 1278 1513 1253 994 882 821 954 1022 1085 1276 1181 1164 1182 1131
39 17 136 253 309 243 214 367 241 280 319 278 237 282 279 319 573 506 708 675 801 1070 1375 1452 1429 1367 1248 1479 1386 1350 1457 1323 1046 1362 1217 1359 1422 1510 1173 943 942 879 758 867 993 932 890 928 909
8 4 5 134 351 430 278 359 193 265 295 253 295 285 293 274 242 412 528 318 432 1046 1193 1233 1399 1383 1197 1197 1331 1334 1286 1348 1234 1059 1167 1311 990 938 1177 852 851 908 933 1052 759 851 890 948 842
0 1 0 26 67 175 170 388 189 134 223 274 249 242 251 219 188 273 376 352 296 789 1027 1106 984 865 951 1137 1323 1456 1514 1338 1119 1239 1315 1367 1525 1384 1215 942 999 929 757 734 768 812 721 508 449
0 0 0 0 3 91 110 260 275 207 180 213 238 213 240 244 229 254 264 320 316 320 712 1049 993 1122 1485 1447 1485 1533 1540 1592 1446 1402 1196 1322 1123 1060 1067 944 729 796 705 684 612 559 386 543 629
0 0 0 1 1 45 23 232 287 325 306 264 301 285 302 278 255 260 334 343 412 383 409 484 862 1317 1641 1544 1371 1326 1484 1387 1274 1158 1274 1380 1276 1115 821 483 720 929 483 306 136 191 232 409 243
0 0 0 17 0 7 144 178 237 334 419 489 498 512 449 410 368 380 403 461 455 399 411 619 998 1383 1574 1577 1369 1204 1178 1168 1187 1340 1340 1356 1066 1031 959 718 570 392 269 144 185 163 101 75 191
0 0 8 24 18 19 125 105 184 213 355 333 462 621 611 694 636 564 513 507 494 558 690 809 1155 1389 1572 1452 1429 1588 1620 1454 1049 610 830 582 195 117 58 160 110 146 92 44 111 120 76 7 25
0 0 0 21 44 25 58 16 60 111 80 93 160 504 573 689 736 845 759 538 680 816 876 1129 1547 1493 1683 1666 1501 1448 786 534 103 245 2 0 0 0 0 6 116 112 57 23 43 30 35 8 0
0 0 0 18 59 50 28 33 18 23 36 55 64 189 196 582 728 869 921 663 798 1103 1053 1215 1261 1272 1321 1398 1368 1551 875 0 26 0 0 0 0 0 13 166 76 3 0 0 3 0 0 4 2
0 0 0 4 17 29 20 3 3 37 77 15 34 144 131 426 694 909 987 741 992 1216 1352 1260 1062 991 1323 1393 1083 344 0 0 0 0 0 0 0 0 2 0 0 0 0 0 0 0 0 5 8
0 0 0 0 0 0 0 37 0 2 33 44 18 95 141 217 467 773 782 848 1189 1289 1437 1449 1161 880 1293 963 86 0 0 0 0 0 0 0 0 0 0 0 0 0 0 0 0 0 0 0 0
0 0 0 0 0 0 0 0 0 0 1 15 0 70 113 198 209 383 290 402 946 1197 1301 1582 1245 1076 1243 674 38 0 0 0 0 0 0 0 0 0 0 0 0 0 0 0 0 0 0 2 2
0 0 0 0 0 0 0 0 0 0 0 16 1 36 89 120 130 199 289 347 870 1220 1228 1394 1301 1150 791 486 0 0 0 0 0 0 0 0 0 0 0 0 0 0 0 0 0 0 0 0 0
0 0 0 0 0 0 0 0 0 24 20 33 9 5 9 44 102 130 278 411 837 1265 1358 1511 1247 1123 678 130 0 0 0 0 0 0 0 0 0 0 0 0 0 0 0 0 0 0 0 0 0
0 0 0 0 0 0 0 0 0 25 32 42 53 50 0 0 60 199 282 348 738 1146 1592 1565 1350 1112 677 0 0 0 0 0 0 0 0 0 0 0 5 0 0 0 0 0 0 0 0 0 0
0 0 0 0 0 0 0 0 0 7 10 39 68 78 34 0 3 90 141 223 649 1054 1748 1588 1337 1072 636 0 0 0 13 105 55 16 8 0 0 7 5 0 0 0 0 0 0 0 0 0 0

GFSSGP_con_mlcape_015.txt.gz
CAPE
836 1004 457 615 348 66 38 34 50 47 14 51 73 79 146 155 6 0 0 96 181 255 393 933 937 1126 1206 1184 1191 1351 1243 738 1169 1237 1198 1171 1330 1387 1540 1803 1860 1876 1798 1950 1973 1887 1791 1722 1749
714 593 775 1050 30 49 22 52 7 0 43 248 341 285 259 118 138 116 67 187 330 469 810 1195 1217 1370 1053 1157 1159 1321 1348 982 1265 1153 1250 1213 1232 1613 1691 1906 1776 1720 1758 1917 1784 1733 1673 1569 1562
726 802 1139 675 30 0 33 0 0 0 106 295 267 265 237 102 153 113 135 482 555 874 1189 1360 1322 1408 1391 1340 1105 853 929 813 798 835 1034 1374 1387 1545 1782 1711 1521 1639 1751 1747 1715 1636 1575 1503 1430
403 541 450 3 27 71 104 0 0 40 250 509 370 202 463 426 335 269 340 640 619 837 1195 1502 1535 1541 1576 1531 1112 952 992 1134 1183 1372 1520 1559 1612 1853 1822 1587 1695 1821 1745 1606 1514 1500 1480 1486 1589
265 20 0 9 69 229 256 162 70 261 495 553 341 330 551 616 408 237 509 450 458 826 1257 1474 1648 1677 1645 1283 1336 1400 1561 1806 1923 1830 1648 1649 1617 1776 1752 1804 1807 1684 1524 1502 1499 1475 1434 1319 1246
10 0 0 8 128 361 387 232 370 683 694 520 339 423 590 505 411 414 495 359 744 913 1296 1503 1643 1805 1585 1482 1467 1323 1434 1466 1447 1747 2015 1947 1876 1899 1835 1709 1575 1492 1505 1530 1400 1459 1478 1306 1348
12 0 0 0 140 337 416 642 800 624 406 340 376 322 721 688 635 665 409 435 766 1157 1146 1268 1404 1569 1888 1756 1442 1455 1512 1435 1457 1818 1912 1768 1735 1579 1612 1600 1532 1514 1564 1509 1679 1702 1738 1544 1507
17 0 0 0 109 150 578 731 523 384 388 541 365 150 410 925 872 892 547 577 738 1036 1166 1138 1489 1700 1814 1898 1816 1584 1443 1213 1587 1824 1726 1647 1493 1353 1519 1304 1080 1294 1550 1544 1675 1116 948 933 1094
72 0 0 0 29 134 256 401 673 847 430 201 522 350 662 1095 1044 895 682 678 746 954 1171 1323 1228 1576 1472 1641 1723 1846 1556 1546 1660 1802 1813 1733 1509 1119 852 726 820 942 1085 1219 1013 991 875 858 1200
56 1 1 0 0 138 76 426 637 163 467 602 492 538 783 1036 1013 727 625 625 809 1012 1234 1283 1581 1483 1761 1507 1668 1660 1445 1608 1531 1457 1471 1308 1160 1113 905 639 736 964 822 1126 1119 1019 890 1198 1264
51 3 9 0 15 61 107 328 403 403 462 153 256 592 830 945 1049 911 794 454 466 546 850 1194 1366 1392 1330 1450 1488 1493 1360 1343 1168 1022 1049 1147 926 1015 1043 1080 973 911 1175 1243 1263 1227 1280 1121 996
0 5 0 8 76 79 185 251 319 360 286 421 615 919 1026 1058 1089 1038 928 775 626 663 629 824 1064 1195 1141 1437 1528 1415 1288 1285 924 761 813 1001 1099 1152 874 889 986 1042 1135 1076 972 864 906 1034 886
0 0 0 28 92 129 87 115 272 304 403 643 1083 1164 1175 1111 1096 1118 1010 897 921 805 779 826 917 1061 1106 1122 1238 1136 914 1034 908 808 797 1123 1127 1085 1001 1002 1036 1081 1043 958 1119 1058 1003 957 977
0 0 13 30 33 7 64 180 262 329 678 852 1134 1110 1225 1200 1182 1240 1120 988 938 906 869 980 1098 1167 1193 1378 1186 935 1161 1246 1304 1073 1190 1110 1194 1375 1171 981 901 835 981 1020 1002 879 986 1022 964
0 1 27 47 38 19 91 173 243 299 679 840 1162 1144 1120 1121 1181 1212 1028 943 858 835 912 1132 1290 1175 1205 1386 1276 1143 1348 1370 1295 1274 1324 1396 1319 1338 1297 1156 819 865 788 881 996 839 776 820 771
2 1 37 67 25 63 132 10 278 238 376 597 739 919 902 928 968 899 860 842 854 754 908 1124 1481 1170 1127 1290 1263 1254 1446 1172 1093 1060 1030 1259 1263 1055 1245 872 709 794 797 818 812 803 815 706 524
0 0 27 59 68 152 245 96 244 197 132 194 225 518 483 536 540 554 574 639 720 716 979 1183 1349 1140 1112 1141 1383 1305 1283 1196 1196 1106 1037 1110 1121 1142 1109 756 728 796 643 646 655 725 607 307 333
0 0 14 35 110 134 172 84 155 177 125 88 99 143 196 163 220 421 381 348 456 690 952 1084 1254 1095 1079 1184 1223 1166 1301 1277 1328 1222 1225 1224 1063 1032 880 803 736 613 512 413 219 142 249 365 532
0 0 26 46 84 91 106 103 28 157 126 97 112 107 110 150 142 198 319 207 235 629 842 978 977 962 1031 1139 1185 1213 1219 1358 1283 1151 1191 1200 1177 1091 933 381 388 523 241 119 89 90 126 207 212
0 0 0 17 18 90 86 87 45 106 85 97 134 144 145 152 154 130 223 242 158 325 600 793 854 927 1113 1236 1257 1218 1044 1079 1080 1019 1158 1315 1157 937 564 370 531 297 142 53 58 47 12 52 146
0 0 0 0 21 45 75 93 133 121 116 121 138 155 128 136 168 150 167 192 227 245 257 388 750 829 1066 1283 1361 1326 1286 1397 1015 923 905 1193 1088 1026 828 458 172 60 0 0 0 21 0 0 35
0 0 0 0 9 8 65 2 120 179 216 239 246 206 183 162 180 195 219 246 290 305 293 319 598 814 1147 1360 1462 1290 956 632 321 352 203 185 22 0 0 0 0 0 0 0 0 0 0 0 0
0 0 0 0 10 19 46 22 31 117 152 231 287 308 337 290 266 223 271 347 369 332 392 499 755 993 1294 1443 1436 1427 1052 521 79 47 0 0 0 0 0 0 0 0 0 0 0 0 0 0 0
0 0 0 0 0 5 15 14 0 17 93 96 152 139 359 422 459 382 340 349 398 419 486 704 785 1043 1258 1359 1404 1175 908 420 33 0 0 0 0 0 0 2 1 0 0 0 0 0 0 0 0
0 0 0 0 0 0 0 17 5 10 53 58 75 76 173 316 545 622 599 568 495 547 651 868 866 986 1015 1112 959 995 556 51 0 0 0 0 0 0 0 0 0 0 0 0 0 0 0 0 0
0 0 0 0 0 0 0 1 6 9 18 58 55 34 87 139 579 732 759 746 620 687 821 1040 1042 892 895 865 801 543 26 0 0 0 0 0 0 0 0 0 0 0 0 0 0 0 0 0 0
0 0 0 0 0 0 0 0 0 0 0 11 20 5 45 93 439 695 842 799 699 786 900 1052 1189 1094 827 584 566 103 0 0 0 0 0 0 0 0 0 0 0 0 0 0 0 0 0 0 0
0 0 0 0 0 0 0 0 0 0 0 0 8 1 16 54 221 571 845 800 854 979 1017 1170 1368 1256 962 432 512 82 0 0 0 0 0 0 0 0 0 0 0 0 0 0 0 0 0 0 0
0 0 0 0 0 0 0 0 0 0 0 0 0 3 17 41 107 269 586 639 732 1157 1228 1229 1511 1373 886 633 475 49 0 0 0 0 0 0 0 0 0 0 0 0 0 0 0 0 0 0 0
0 0 0 0 0 0 0 0 0 0 0 0 0 5 18 48 78 168 303 417 415 810 1190 1307 1437 1308 864 642 392 8 0 0 0 0 0 0 0 0 0 0 0 0 0 0 0 0 0 0 0

GFSSGP_con_mlcape_018.txt.gz
CAPE
1139 891 428 537 71 0 0 6 20 27 43 84 64 30 55 71 5 0 5 66 119 185 270 684 619 821 848 787 694 640 758 947 998 1211 1238 966 1120 1314 1424 1699 1753 1927 1772 1943 1788 1676 1595 1732 1744
962 427 581 779 1 0 0 0 3 0 32 222 199 190 126 34 92 41 49 152 231 357 432 575 750 1081 1193 1237 1243 949 947 1229 1334 1245 1180 1292 1557 1625 1833 1888 1792 1762 1922 1827 1654 1632 1585 1617 1568
666 733 941 268 0 0 0 0 0 86 232 259 154 145 45 25 97 59 95 276 392 378 704 998 1276 1164 1165 1358 1470 1258 1108 1222 1321 1405 1454 1607 1742 1618 1817 1720 1609 1648 1753 1683 1612 1560 1553 1585 1541
631 626 310 2 0 25 0 0 0 144 371 303 102 6 212 67 112 106 313 462 504 507 970 1369 1427 1237 1229 1284 1396 1494 1272 1287 1268 1477 1655 1577 1624 1775 1742 1637 1700 1745 1564 1570 1457 1435 1500 1529 1630
308 78 0 0 39 168 22 22 86 232 477 257 143 134 212 313 247 235 412 518 534 831 1316 1483 1329 1522 1596 1462 1398 1304 1276 1306 1508 1620 1629 1667 1750 1777 1652 1673 1695 1559 1506 1532 1469 1355 1343 1205 1217
64 0 1 0 106 249 140 72 239 497 494 330 168 205 349 346 57 246 465 501 791 893 1200 1298 1431 1648 1616 1399 1537 1635 1742 1830 1737 1661 1743 1717 1671 1625 1618 1622 1570 1499 1493 1578 1481 1574 1532 1585 1427
19 0 0 46 130 177 196 161 515 555 372 258 256 186 351 365 162 356 425 618 930 1183 1191 1409 1584 1601 1516 1606 1490 1574 1541 1538 1767 1949 1940 1780 1672 1608 1521 1556 1451 1432 1544 1640 1809 1366 1212 1104 1293
0 0 1 41 75 32 345 537 615 486 354 392 365 128 213 433 306 387 423 656 905 999 990 1101 1427 1563 1555 1604 1474 1454 1568 1554 1733 2044 1862 1649 1526 1495 1584 1299 1165 1451 1415 1358 1625 1039 719 813 900
1 0 0 5 70 70 514 651 444 672 387 239 429 245 517 630 616 377 324 498 663 916 1035 1191 1308 1472 1632 1679 1516 1587 1612 1470 1865 1902 1872 1651 1255 1270 1371 1062 871 910 1125 1440 1231 983 854 893 1098
11 0 0 0 25 76 448 566 655 269 199 238 431 517 831 829 697 514 282 246 341 611 838 951 1247 1479 1543 1510 1540 1669 1537 1491 1585 1574 1284 1146 1124 1044 1101 784 1049 986 1066 1202 1121 965 996 1169 1109
7 0 0 0 0 112 210 251 395 59 92 138 166 361 871 827 822 700 403 326 327 475 763 1138 1021 1354 1310 1189 1251 1438 1260 1310 1386 1268 1132 851 1019 998 1028 1072 1074 907 1070 1253 1248 1010 1170 1112 1023
0 3 0 0 0 61 94 297 129 233 196 346 277 600 900 895 864 541 428 458 519 680 789 1105 1294 1437 1453 1403 1076 1227 1040 1066 997 954 870 785 864 887 986 797 860 926 1083 1015 931 922 1012 1048 884
0 0 0 0 0 21 99 200 148 212 290 428 436 671 755 815 877 606 537 514 521 522 573 785 1022 1186 1041 1034 1217 1204 1208 1044 927 823 714 729 853 935 1010 790 889 967 940 927 1062 1073 1054 1003 1053
0 0 3 11 7 4 62 134 207 212 422 496 429 471 642 766 941 955 882 627 515 374 412 575 688 903 956 832 1073 1084 1132 938 878 828 772 710 843 1063 974 836 927 861 872 945 909 852 920 846 816
0 0 0 27 9 14 86 110 141 277 444 589 518 627 786 889 968 987 907 789 693 521 525 512 642 746 838 871 948 897 903 953 1110 1091 1075 1012 966 1108 1179 718 875 703 718 713 875 857 784 869 833
0 3 0 18 0 13 108 26 155 485 496 600 643 695 810 907 935 1007 1002 854 759 725 559 710 840 901 956 999 1180 1215 966 1051 1133 1016 946 1016 1049 924 1029 891 692 590 600 710 712 654 625 550 412
0 0 0 32 0 9 64 31 181 499 517 525 650 771 900 910 952 956 1027 857 749 711 564 745 1001 952 846 923 1038 1220 1232 1266 1109 1034 1033 850 1005 1084 1000 994 613 651 621 525 471 479 444 280 247
0 0 1 20 28 23 47 91 135 277 433 339 486 712 778 748 737 806 781 838 703 663 654 706 1009 1114 889 791 1002 1186 1206 1231 1248 1224 1059 1016 1095 1145 913 732 697 739 422 183 61 21 66 120 240
0 26 22 32 36 60 89 112 70 139 200 207 263 351 486 485 432 473 462 597 520 569 664 697 850 979 989 871 979 1101 1175 1231 1227 1156 1270 1155 1118 1003 622 768 460 353 151 59 14 15 41 80 81
0 5 10 23 13 59 90 125 64 130 117 108 114 107 151 194 140 126 304 326 341 594 623 709 905 908 951 985 1012 1005 1064 1048 1191 1055 1013 1047 1125 1085 821 333 348 248 90 21 0 0 0 2 35
0 0 0 10 14 35 55 80 81 95 111 79 62 51 51 69 65 51 107 212 207 458 483 611 773 818 944 909 878 1004 946 854 736 751 971 1075 1102 934 620 396 263 141 9 0 0 0 0 0 0
0 0 0 0 4 1 57 5 46 57 73 106 99 94 75 70 78 71 83 132 189 237 350 569 624 733 824 773 897 1127 1141 690 612 379 312 571 787 779 662 249 15 0 0 0 0 0 0 0 0
0 0 0 0 4 20 44 12 16 55 43 96 116 102 96 79 91 99 90 93 135 194 182 315 435 529 761 881 1049 1004 1091 829 253 100 105 87 6 0 0 0 0 0 0 0 0 0 0 0 0
0 0 0 0 0 0 0 0 0 0 61 89 155 169 154 122 112 117 97 89 111 158 203 218 244 327 565 829 972 1089 1099 830 291 52 0 0 0 0 0 0 0 0 0 0 0 0 0 0 0
0 0 0 0 0 0 0 0 5 1 41 65 107 167 208 183 164 178 142 148 173 183 243 330 307 344 525 778 927 1218 1071 778 337 130 0 0 0 0 0 0 0 0 0 0 0 0 0 0 0
0 0 0 0 0 0 0 0 0 8 20 42 92 113 155 161 260 314 274 250 220 264 317 385 415 444 609 771 962 1079 1048 694 379 49 0 0 0 0 0 0 0 0 0 0 0 0 0 0 0
0 0 0 0 0 0 0 0 0 0 0 0 5 39 84 87 224 332 403 348 317 291 407 451 465 560 702 803 880 700 693 496 112 0 0 0 0 0 0 0 0 0 0 0 0 0 0 0 0
0 0 0 0 0 0 0 0 0 0 0 0 0 0 20 25 145 301 466 449 441 430 485 565 530 566 724 774 653 491 483 267 0 0 0 0 0 0 0 0 0 0 0 0 0 0 0 0 0
0 0 0 0 0 0 0 0 0 0 0 0 0 0 2 8 65 228 515 597 620 602 559 703 721 730 774 673 503 364 318 7 0 0 0 0 0 0 0 0 0 0 0 0 0 0 0 0 0
0 0 0 0 0 0 0 0 0 0 0 0 0 10 0 0 39 148 482 659 788 766 702 819 901 982 926 706 497 307 230 5 0 0 0 0 0 0 0 0 0 0 0 0 0 0 0 0 0

GFSSGP_con_mlcape_021.txt.gz
CAPE
1150 942 553 668 36 2 0 0 14 18 76 171 93 52 67 112 20 11 47 157 94 204 339 529 749 817 820 580 618 593 752 796 781 935 927 841 1186 1591 1843 1966 1969 1925 1948 1843 1790 1650 1586 1622 1654
910 507 692 745 0 0 3 20 34 37 210 256 246 225 153 46 89 94 137 249 218 182 402 414 659 1012 955 833 864 838 973 1071 1348 1413 1161 1332 1740 1905 1961 1758 1605 1770 1851 1729 1738 1660 1661 1581 1556
551 769 1001 117 2 0 0 30 50 158 336 266 192 148 61 54 75 110 247 433 616 629 737 868 959 1270 1266 1169 1003 1164 1412 1559 1537 1467 1404 1865 1918 1795 1790 1583 1500 1710 1753 1731 1639 1480 1489 1494 1602
686 723 244 0 0 61 0 0 270 370 442 289 54 87 138 108 127 194 470 613 621 840 900 956 1144 1192 1221 1291 1033 1363 1407 1525 1602 1563 1751 1744 1601 1703 1534 1532 1689 1681 1603 1550 1485 1431 1418 1394 1368
407 87 0 0 30 177 0 10 217 360 483 264 206 69 87 560 253 383 607 599 641 832 1126 1134 915 1177 1301 1515 1388 1349 1345 1467 1699 1655 1609 1705 1730 1761 1649 1767 1717 1593 1489 1458 1472 1434 1489 1425 1324
241 0 10 0 15 211 56 129 505 672 504 284 153 102 272 551 261 363 605 759 694 819 1137 1190 1132 1340 1247 1265 1358 1259 1289 1451 1475 1476 1571 1546 1701 1558 1601 1491 1356 1418 1521 1589 1601 1666 1379 1582 1425
72 11 3 28 28 170 144 222 472 544 461 316 223 79 286 308 276 410 489 664 791 1036 1100 1273 1408 1672 1388 1435 1589 1747 1863 1786 1642 1781 1774 1723 1627 1579 1440 1422 1404 1526 1676 1827 1942 1531 959 924 1019
18 0 33 64 0 22 310 541 678 558 368 422 253 25 112 398 289 412 513 677 746 928 1217 1634 1587 1412 1136 1315 1739 1753 1730 1844 1964 2024 1903 1757 1614 1325 1337 1566 1228 1263 1554 1537 1580 1207 843 861 952
0 1 9 27 15 37 472 522 641 664 418 348 534 291 315 487 291 338 477 677 991 1130 1254 1362 1374 1307 1394 1406 1344 1545 1682 1615 1818 1963 1885 1593 1346 1462 1559 1388 857 735 1079 1259 1521 1146 907 972 1197
109 0 0 6 130 19 553 610 640 582 299 403 624 645 651 459 335 230 391 488 638 790 1076 1095 1177 1092 1322 1068 1352 1420 1325 1063 1392 1564 1834 1650 1509 1509 1440 1231 969 1223 1428 1392 1250 1036 1042 1225 1454
50 9 0 0 85 158 386 668 535 277 136 318 397 587 571 533 384 263 273 377 510 713 868 1196 1533 1683 1480 1427 1564 1544 1400 1219 1475 1755 1704 1705 1469 1451 1522 1510 1567 1602 1296 1581 1529 1545 1479 1636 1539
0 16 0 0 93 285 211 564 288 103 204 342 600 640 673 656 611 426 346 334 376 644 793 1019 1261 1627 1682 1405 1192 1322 1191 1266 1229 1206 1371 1303 1184 1364 1356 1459 1349 1473 1610 1422 1547 1496 1714 1643 1646
0 0 0 0 5 191 298 253 80 89 420 660 702 740 694 685 803 867 612 502 601 598 750 1109 1325 1415 1687 1706 1196 965 1208 982 1137 1116 1061 1002 980 1226 1186 1512 1101 1115 1512 1370 1193 1568 1623 1596 1554
0 0 0 0 12 188 73 240 178 190 505 388 672 593 709 808 913 899 710 697 733 756 754 1070 1320 1540 1706 1506 1580 1325 1360 1261 1264 1232 1055 931 1033 1302 1141 1278 1281 987 1441 1531 1229 1213 1354 1527 1441
0 0 10 6 29 64 122 91 135 333 449 335 488 591 734 832 1000 874 665 704 635 669 729 711 931 1258 1360 1197 1190 1374 1478 1489 1308 1274 1502 1474 1032 1467 1214 1163 970 1282 1418 1364 1383 1157 1391 1146 1242
0 0 0 5 0 49 30 29 256 475 455 334 324 456 558 809 937 1100 919 973 808 733 605 699 617 823 1070 1087 1192 1416 1477 1464 1497 1162 1795 1749 1590 1592 1607 1412 711 1302 1202 1276 1083 1146 1126 1074 868
0 0 0 16 3 20 93 126 155 408 508 508 368 376 653 894 965 1052 1155 1132 1080 974 758 761 850 976 978 1151 1371 1612 1875 1824 1672 1764 1093 1174 1271 1296 1705 1106 1046 1081 1265 767 1036 918 639 413 360
0 0 1 55 20 46 69 125 105 496 514 592 616 486 751 943 1029 1100 1147 1191 1146 1115 1102 978 1066 1283 1390 1456 1569 1645 1820 1849 1897 1869 1823 1551 1059 1043 958 1016 881 1315 1156 852 446 308 315 223 185
0 9 17 87 51 46 60 99 105 354 562 568 729 721 685 808 955 1028 1073 1151 1173 1137 1091 961 1056 1326 1595 1355 1213 1377 1441 1774 1867 1833 1374 1465 1129 1058 1083 1057 1027 1110 829 447 359 214 144 93 339
0 12 35 32 42 27 35 11 90 171 320 512 621 689 733 813 908 1007 1001 968 1083 1074 1000 1032 1040 1211 1404 1624 1536 1494 1686 1741 1809 1852 1871 1882 1871 1710 1407 1346 1101 842 526 398 140 102 0 47 315
0 0 23 24 29 78 58 14 40 111 180 280 400 379 416 617 656 612 676 799 809 927 1042 1055 1101 1111 1250 1510 1708 1548 1468 1411 1454 1641 1742 1691 1721 1752 1649 1231 914 745 472 76 28 49 79 0 45
0 0 40 68 41 18 65 12 33 102 118 156 182 200 183 191 340 369 340 508 644 744 975 1030 1121 1148 1282 1584 1489 1390 1316 1432 1578 1438 1389 1790 1787 1601 1446 1037 824 478 103 3 39 18 0 0 0
0 0 0 43 49 42 20 28 19 11 68 92 124 175 147 122 139 143 168 266 377 527 757 870 1044 1047 1294 1527 1431 1406 1409 1628 1727 969 622 791 1046 1459 1504 1109 398 25 6 77 0 0 0 3 0
0 0 0 4 24 5 0 4 0 0 24 76 123 157 169 142 152 145 128 158 294 398 521 780 914 857 1153 1384 1376 1325 1385 1652 1285 799 384 436 371 262 201 161 35 57 76 16 0 0 0 2 7
0 0 0 0 0 0 0 1 0 22 25 65 116 115 137 159 133 151 200 200 298 378 457 573 749 746 1010 1201 1315 1400 1467 1704 1423 1050 400 231 147 54 0 33 69 80 29 0 0 0 0 0 0
0 0 0 0 0 0 0 0 1 41 59 50 93 143 149 130 139 169 244 278 345 397 509 557 597 677 864 902 1097 1497 1650 1711 1371 1193 467 210 99 28 63 87 160 117 0 0 0 0 0 0 0
0 0 0 0 0 0 0 0 0 0 0 0 14 50 99 153 224 194 274 354 434 513 538 638 684 725 805 915 1069 1269 1517 1578 1276 989 461 208 24 13 15 48 66 35 0 0 1 0 7 0 36
0 0 0 0 0 0 0 0 0 0 0 0 0 3 48 114 233 328 417 483 546 621 675 737 782 768 863 967 1144 1341 1418 1336 1373 623 179 3 16 22 49 41 76 16 0 4 1 0 0 0 17
0 0 0 0 0 0 0 0 0 0 0 0 0 0 0 32 123 281 548 648 646 687 791 859 885 930 1015 1004 1105 1252 1223 1062 496 416 9 0 0 0 53 29 9 42 41 40 15 0 8 0 27
0 0 0 0 0 0 0 0 0 0 0 0 0 0 0 0 35 242 602 767 755 820 834 888 1001 1036 1079 1181 1216 1075 763 344 594 159 7 0 0 0 0 1 21 62 66 44 44 29 11 11 23

GFSSGP_con_mlcape_024.txt.gz
CAPE
859 1105 887 1306 616 34 59 69 94 145 187 113 26 25 77 167 216 104 191 268 228 232 333 359 399 320 479 667 888 898 833 833 656 910 1016 1281 1696 2013 2045 2022 1954 1942 1794 1707 1650 1641 1641 1574 1578
1225 868 878 911 149 29 67 84 117 160 235 185 195 169 197 133 145 149 235 228 422 377 469 436 371 570 827 920 904 1055 1006 796 1006 1157 1101 1576 1850 2009 1969 1802 1860 1880 1823 1752 1655 1566 1543 1569 1532
870 794 1274 98 37 23 11 78 127 364 292 179 280 159 156 139 140 275 262 284 359 513 554 666 575 725 799 1014 1085 1285 1281 1382 1512 1302 1325 1746 1912 1939 1825 1578 1685 1810 1784 1619 1480 1474 1516 1505 1615
794 1191 708 27 2 0 0 42 298 436 482 229 153 186 152 203 241 412 540 672 726 732 763 774 1181 1289 1376 1302 1483 1605 1594 1576 1485 1318 1744 1708 1751 1787 1512 1625 1747 1682 1559 1497 1465 1466 1448 1350 1208
984 393 13 0 0 0 9 153 391 486 476 227 180 122 331 435 373 613 805 744 727 764 830 1130 1384 1490 1473 1268 1467 1351 1432 1425 1527 1680 1673 1692 1842 1746 1700 1655 1518 1391 1412 1525 1555 1665 1604 1524 1362
702 104 1 0 0 0 23 144 408 535 585 332 167 405 641 418 693 826 804 707 686 701 901 814 922 1355 1496 1313 1399 1404 1447 1645 1687 1634 1726 1815 1808 1604 1528 1413 1349 1419 1632 1781 1891 1461 1300 1204 1191
310 77 15 1 0 0 0 201 379 564 467 246 127 390 568 524 735 831 784 651 644 987 900 887 1079 1263 1500 1697 1342 1329 1423 1544 1610 1611 1666 1801 1758 1541 1322 1452 1504 1781 1842 1821 1706 1521 975 882 1001
358 53 49 6 6 0 26 176 365 389 529 318 166 243 505 414 577 646 645 687 765 894 1003 1324 1447 1105 712 907 1498 1792 1874 1827 1786 2081 1915 1815 1412 1084 1179 1055 1581 1196 1469 1629 1615 1462 1056 925 1121
80 53 61 29 10 14 135 262 458 475 537 400 383 131 307 326 371 392 490 609 802 1029 1064 1314 1370 1042 985 1056 1425 1707 1775 1917 1998 1787 1657 1027 1060 1202 1229 1290 602 763 1236 1424 1404 1166 1063 913 1104
116 86 54 32 20 13 156 185 545 462 390 415 609 260 362 307 393 439 547 716 795 939 1173 976 852 989 1152 992 1249 1174 1109 995 1123 1178 1492 1201 1080 1364 1321 1228 1139 1169 1207 1194 996 931 912 1143 1296
216 151 19 14 51 36 234 247 254 165 144 298 641 515 438 340 373 457 564 676 748 845 840 876 764 1057 1129 924 1042 1022 1021 955 1137 1547 1536 1263 1301 1474 1563 1501 1587 1677 1465 1227 1426 1483 1363 1501 1532
92 12 0 6 118 31 256 197 122 107 74 181 517 597 403 341 325 372 505 588 743 873 887 976 1099 1059 1042 1050 982 1009 963 982 902 822 1310 1208 1244 1338 1502 1377 1537 1353 1532 1442 1495 1487 1707 1660 1648
9 0 0 0 86 198 276 317 9 145 558 242 558 550 401 382 350 315 334 412 597 812 871 1060 1267 1618 1486 1444 927 798 899 813 784 815 819 946 1157 1363 1572 1571 1153 1248 1220 1509 1483 1513 1545 1664 1584
0 0 0 0 46 284 327 360 12 142 717 377 524 493 466 446 477 475 441 450 525 603 696 944 1213 1327 1450 1411 1291 986 886 740 780 679 748 1251 1322 1408 1226 1003 1304 1250 1259 1593 1605 1437 1494 1566 1580
0 0 5 18 174 370 250 383 373 340 654 497 519 520 409 463 536 761 765 683 713 693 671 820 1187 1294 1530 1497 1505 1327 936 877 876 1107 1395 1578 1564 1361 1425 1104 1000 1014 1508 1615 1471 1375 1465 1262 1098
0 0 8 141 298 387 262 276 366 503 647 614 401 399 339 458 573 698 672 733 750 779 803 879 865 1037 1455 1415 1434 1255 1164 1315 1276 1480 1305 1623 1373 1417 1325 1255 819 946 1587 1518 1321 1238 473 192 111
0 1 6 173 202 285 247 197 419 626 626 673 377 247 289 506 665 803 576 777 880 834 875 941 853 803 1156 1435 1570 1647 1599 1824 1660 1663 1706 1359 1468 1289 1409 1144 1201 1581 1358 1220 1114 398 357 4 0
0 0 2 21 140 251 223 258 342 613 627 613 581 261 237 450 681 853 848 809 1039 1043 1029 1090 954 1093 1308 1425 1849 1660 1615 1769 1579 1723 1739 1662 1380 1396 1468 1116 1203 1119 1377 1179 640 611 33 0 0
5 0 5 38 191 200 159 200 270 597 540 401 506 479 343 451 587 808 959 989 1083 1195 1226 1281 1274 1414 1873 1814 1604 1462 1482 1482 1802 1848 1968 1701 1638 1314 1513 1129 1145 934 1188 857 770 126 0 0 1
0 0 6 83 175 152 130 180 183 209 583 446 351 445 480 453 604 783 947 963 1093 1264 1356 1487 1500 1715 2091 1875 1753 1488 1474 1515 1524 1769 1971 2100 2054 1826 1418 1399 1371 1300 502 1026 541 2 0 0 6
0 0 4 68 164 154 87 86 112 54 162 635 487 314 385 522 445 634 812 958 1026 1245 1487 1579 1815 1788 2162 1946 1946 2076 2039 2045 1888 1683 1727 1669 2045 2005 1926 1595 1374 1527 836 96 53 0 0 0 0
0 0 2 82 100 55 142 22 25 75 160 371 585 276 310 493 656 615 663 823 1018 1106 1458 1684 1955 2153 2121 2317 1838 1849 1579 1165 840 980 815 917 1664 1806 1849 1856 1605 1600 341 10 0 2 0 3 0
0 0 0 51 74 90 108 106 36 77 129 225 461 342 105 146 131 231 381 429 719 961 1150 1549 1957 2302 2254 2277 2230 1943 1989 1263 1332 1364 1560 1286 1509 1844 1418 1894 1522 1151 9 46 68 12 0 0 0
0 0 0 12 69 78 73 62 15 37 145 125 227 380 155 39 54 51 66 125 386 640 838 1170 1858 2349 2438 2293 2492 2351 1927 1788 1268 1717 1542 661 469 1096 1693 1598 1336 412 4 213 70 1 0 10 7
0 0 0 17 21 37 57 23 0 3 6 63 47 209 311 151 15 39 50 42 95 342 675 990 1755 2298 2390 2221 2223 2481 2404 2260 2199 2248 1754 378 176 195 779 1052 614 345 434 318 53 3 0 2 2
0 0 0 5 12 28 11 0 0 46 40 17 9 48 170 337 213 89 185 239 304 476 827 1092 1579 2131 2280 2058 2219 2437 2539 2310 2282 2356 1606 687 62 104 375 565 468 437 405 260 51 0 5 13 8
0 0 0 13 25 21 0 0 0 14 36 0 9 29 76 269 354 340 357 487 542 772 1133 1426 1677 2048 2144 1959 2291 2376 2527 2399 1979 2065 2307 1105 540 144 278 430 421 431 381 142 53 5 24 12 5
0 0 0 0 13 16 0 2 0 1 0 0 0 13 49 104 268 379 477 547 738 891 1137 1490 1835 1853 1952 1867 2026 2050 2279 2433 2338 2366 2155 1151 657 213 179 281 301 309 272 110 175 14 10 21 0
0 0 0 0 0 5 0 0 0 0 0 0 0 0 6 34 136 362 511 589 861 983 1117 1496 1768 1935 1981 1938 1952 2019 2020 2237 2486 2179 1913 1205 511 208 158 194 206 287 171 179 216 92 0 24 54
0 0 0 0 0 0 1 0 0 0 0 0 0 0 0 0 54 174 527 686 797 1108 1172 1371 1602 1824 1983 2044 2277 2129 2069 2200 2243 2007 1272 641 125 12 10 77 12 85 201 254 186 114 2 44 58

GFSSGP_con_mlcape_027.txt.gz
CAPE
502 761 1124 932 863 71 29 53 66 152 90 40 35 84 141 145 60 0 102 123 213 237 244 369 400 519 713 809 832 671 769 707 935 1084 1368 1719 1872 1954 1962 1889 1864 1745 1690 1602 1586 1540 1489 1439 1387
741 1063 1083 1021 94 1 30 80 93 133 128 27 188 172 119 111 130 128 123 298 213 194 268 151 481 645 925 1095 1137 1085 962 776 976 1111 1487 1768 1966 1949 1699 1808 1860 1806 1700 1535 1443 1472 1491 1571 1481
1376 1172 945 1062 103 3 37 71 252 176 244 210 152 132 226 100 320 341 298 229 339 362 347 334 702 792 1128 1188 1321 1197 976 1136 1218 1228 1578 1899 1993 1851 1541 1734 1762 1693 1517 1410 1392 1394 1390 1330 1336
1376 1004 1113 112 25 42 113 131 214 246 187 153 201 158 157 254 314 286 481 533 647 686 680 286 640 846 1260 1359 1560 1495 1575 1643 1309 1401 1819 1835 1850 1591 1633 1748 1618 1528 1445 1416 1382 1430 1487 1457 1349
1020 987 224 7 15 82 114 174 231 250 155 246 224 263 210 408 388 471 376 448 799 838 802 679 1038 1063 1482 1677 1765 1778 1756 1658 1339 1629 1777 1774 1831 1642 1759 1552 1411 1401 1544 1683 1694 1637 1388 1499 1517
846 340 43 4 0 32 110 210 241 224 233 199 284 426 486 496 530 595 679 564 782 575 971 1074 1498 1635 1550 1726 1597 1581 1509 1502 1626 1724 1742 1882 1847 1701 1528 1308 1294 1493 1705 1850 1874 1507 1080 1050 1178
654 124 40 10 0 3 20 64 175 170 129 274 436 409 522 619 591 596 639 545 524 620 659 907 1147 1555 1586 1537 1452 1475 1581 1696 1683 1672 1759 1869 1669 1500 1127 1080 1240 1482 1728 1720 1662 1430 1019 958 996
455 196 22 62 20 0 1 53 27 99 249 134 569 502 470 684 569 536 527 646 540 856 754 893 933 1082 1496 997 1295 1390 1538 1580 1555 1763 1821 1554 1161 685 819 1218 1525 1058 1202 1449 1595 1477 1014 844 997
277 118 84 22 58 0 1 9 47 145 170 103 209 428 551 529 513 642 603 534 1242 955 1096 1008 1061 724 800 811 1000 1722 1833 1735 1797 1764 1456 665 1197 1331 1774 1203 673 728 1391 1114 1232 1145 985 984 1282
228 5 66 70 56 30 7 8 71 58 116 157 142 443 601 561 512 428 437 795 752 810 1137 932 1004 785 872 849 1467 1218 1112 1037 981 920 1542 1000 1218 1394 1253 1041 655 947 1123 1194 1123 1066 1091 1283 1688
86 16 56 43 86 53 16 3 6 60 13 141 188 413 522 533 494 430 426 465 552 971 840 1150 983 880 770 1237 889 1072 1028 1006 979 1412 1475 1090 1284 1182 1335 1472 1687 1635 1590 1770 1534 1542 1544 1562 1490
164 105 3 53 4 57 41 5 1 3 38 55 203 389 370 455 468 445 482 588 689 716 617 607 764 995 937 1045 735 811 702 708 748 1010 1471 1403 1330 970 1190 1375 1295 1668 1348 1544 1569 1471 1562 1605 1488
136 35 2 4 6 73 127 13 1 11 16 38 243 417 301 367 351 369 425 539 701 762 643 660 839 1091 1134 1391 796 692 654 682 664 814 1032 985 1153 1233 1341 1715 1328 1047 1029 1500 1364 1408 1694 1398 1731
59 41 23 2 18 46 49 45 3 41 16 72 259 344 298 271 264 273 334 462 675 821 794 895 1086 1286 1315 1308 1486 970 1010 897 722 749 696 1254 1443 1475 1506 1403 1124 1462 1090 1462 1603 1677 1615 1414 1513
24 12 1 0 22 32 60 15 0 93 84 97 252 182 161 188 217 269 298 381 520 677 807 938 1131 1287 1489 1433 1439 1215 971 746 748 661 1025 1227 1777 1517 1346 1455 1398 1123 1332 1892 1867 1660 1472 1191 1094
0 0 56 8 6 97 13 37 113 348 138 32 129 169 155 181 211 297 331 394 452 543 663 898 987 1063 1406 1517 1539 1314 1014 914 853 864 1270 1876 1808 1871 1674 1360 1214 1101 1504 1584 1484 1151 951 291 84
0 10 14 6 0 143 19 9 94 368 278 48 39 123 162 173 255 348 476 526 540 687 757 892 979 965 1318 1632 1577 1437 1318 1216 1552 1493 1058 1500 1655 1807 1705 1461 1547 1751 1420 1492 1319 922 311 14 0
7 4 77 110 0 157 59 408 330 421 345 137 62 40 89 128 253 402 455 403 584 692 841 1053 1027 1046 1332 1570 1709 1619 1658 1808 1716 1149 1305 1854 1715 1608 1779 1413 1288 1570 1092 1417 843 715 99 0 4
31 75 10 39 1 69 129 134 228 497 508 241 119 64 28 42 262 345 528 309 596 741 876 1073 1213 1406 1441 1378 1393 1319 1301 1495 1573 1299 1680 1917 1966 1886 1723 1538 1287 1288 1137 879 647 130 0 0 1
0 43 49 29 43 4 121 178 171 434 534 381 255 137 26 10 62 344 574 467 646 829 1089 1295 1526 1819 1861 1591 1495 1202 1009 943 1510 1405 1102 2182 1844 1994 1366 1518 1056 1216 982 936 309 40 0 0 8
0 16 58 42 136 81 133 136 155 174 358 542 370 205 166 35 38 284 576 675 744 865 1200 1626 1960 2162 2198 1953 1817 1560 1902 1492 1331 536 568 757 1296 1015 1839 1816 1411 1624 337 384 242 0 0 0 0
0 0 15 48 47 80 24 141 106 93 112 224 499 480 165 123 55 145 517 717 686 843 1243 1745 2237 2460 2448 2339 1869 1668 1449 921 487 498 565 575 726 670 1763 1459 918 1124 767 184 0 0 0 0 0
0 0 11 45 78 96 73 77 46 24 45 23 275 582 412 240 138 79 218 536 675 755 1040 1520 2420 2753 2590 2596 2107 1862 1544 783 764 642 1347 1107 1081 808 696 697 1286 1091 203 153 5 0 0 0 0
0 0 38 44 68 70 114 99 68 10 52 87 149 353 522 242 306 306 202 327 579 673 856 1238 2282 2971 3188 2943 2896 2551 2238 1287 1067 860 1398 863 398 738 691 866 1238 1206 336 48 42 30 0 0 4
0 0 13 24 34 37 45 98 19 66 84 89 73 114 355 468 196 294 262 199 428 643 846 1027 1982 2968 3476 3195 2993 2890 2795 2612 2051 1894 1307 1057 231 227 1167 1043 1701 1090 581 193 125 125 11 1 2
0 0 1 8 14 20 34 41 50 91 79 28 7 57 114 443 332 163 201 117 215 446 873 1092 1539 2785 3417 3328 3147 3242 3290 2328 2076 1920 1394 1008 264 96 1077 1306 1297 737 582 328 230 46 24 16 15
0 0 0 10 30 41 40 30 11 14 9 82 40 21 49 185 359 320 220 169 92 262 715 1016 1322 2513 3224 3171 3469 3326 3313 2806 1749 1737 2231 1691 755 165 1070 1059 835 765 458 317 209 116 75 70 47
0 0 0 0 3 22 31 24 16 36 0 38 40 6 0 16 111 336 349 306 254 155 477 1028 1396 2528 3081 3101 3403 3151 3150 3169 2801 2734 2604 1952 1290 407 596 775 815 667 368 317 276 93 137 103 36
0 0 0 0 0 12 34 41 49 38 14 0 0 0 11 16 44 153 424 495 600 471 518 994 1652 2265 3051 3108 3090 2904 2952 2875 2970 2599 2660 2502 1930 1037 666 792 710 589 327 430 312 178 146 92 95
0 0 0 0 0 1 16 31 35 0 20 8 25 27 19 8 16 43 174 498 663 945 729 804 1227 1776 2551 2716 3161 3032 3023 2893 2795 2854 2805 2930 2180 1411 809 642 558 394 390 307 263 234 41 24 60

GFSSGP_con_mlcape_030.txt.gz
CAPE
341 438 761 515 216 129 21 15 176 126 42 94 75 41 48 33 0 0 25 50 144 170 245 398 445 684 585 501 649 588 866 1209 1453 1527 1745 1752 1825 1771 1737 1733 1674 1686 1647 1577 1555 1522 1489 1374 1308
499 990 630 106 64 18 154 158 92 42 35 148 139 75 25 0 7 22 58 126 233 149 267 222 628 735 842 863 875 758 834 1006 1250 1465 1664 1767 1737 1555 1620 1726 1722 1640 1448 1417 1437 1424 1425 1453 1341
517 900 44 99 113 7 257 292 165 184 245 137 106 106 19 0 27 70 100 123 121 118 166 560 786 718 988 1302 1308 1043 971 1111 1268 1494 1642 1756 1719 1425 1667 1689 1600 1441 1367 1345 1337 1338 1272 1200 1166
963 969 849 892 43 189 237 246 236 132 192 74 51 281 258 225 120 243 203 216 275 272 288 710 888 972 1267 1444 1294 1070 1350 1300 1114 1520 1716 1744 1555 1425 1677 1508 1433 1353 1439 1429 1506 1469 1367 1293 1154
1331 1280 1100 197 77 189 86 247 131 84 242 178 61 342 274 179 285 326 308 331 441 495 331 692 988 1340 1437 1610 1566 1628 1649 1320 1397 1657 1603 1668 1536 1599 1544 1319 1276 1414 1629 1704 1779 1416 1130 1248 1197
1307 715 670 3 0 117 179 240 53 101 211 200 165 200 362 410 372 486 622 609 739 736 624 758 1224 1533 1698 1756 1783 1693 1618 1348 1498 1571 1577 1645 1560 1554 1203 1146 1252 1518 1684 1674 1584 1145 887 839 844
782 673 428 0 0 24 28 220 76 5 190 184 331 248 188 504 480 505 582 756 526 799 867 1094 1286 1558 1789 1621 1526 1468 1420 1505 1573 1426 1476 1614 1370 978 856 902 1081 1045 1315 1467 1420 1138 748 708 657
588 199 109 5 0 0 0 16 53 32 154 341 231 184 407 416 544 592 650 508 623 681 1005 1289 1403 1250 1279 1262 1324 1401 1511 1498 1287 1322 1337 1452 1230 960 1024 1136 1209 773 740 985 1010 896 752 706 851
435 16 53 10 0 0 0 0 163 25 23 294 262 237 446 214 560 298 429 500 715 568 586 817 1349 1513 1011 804 989 1322 1401 1405 1332 1501 1342 1322 993 1044 1385 1580 745 518 930 867 899 940 986 848 1104
13 0 0 0 3 0 0 2 1 0 1 203 334 417 221 387 223 409 794 879 637 525 714 579 593 752 944 622 852 1287 1122 1053 1042 1277 1150 753 1150 1154 1617 1495 965 915 1103 1201 1137 1148 1130 1089 1286
0 0 17 9 4 0 0 6 0 1 25 35 340 322 249 294 439 782 671 944 946 1054 915 1057 776 643 720 1321 933 1341 1290 1258 1208 1358 1569 1658 1621 1199 1134 1346 1663 1431 1098 1012 1639 745 1079 1777 1612
1 0 0 35 69 17 3 0 21 0 45 37 314 401 368 194 176 175 710 476 918 770 717 888 1250 692 1101 1289 810 1436 1330 1193 1326 1365 1361 1393 1559 1036 1484 1530 1238 1589 1916 1447 620 1228 1526 1366 1503
137 3 150 27 1 48 19 0 0 30 19 59 319 458 417 307 154 131 216 294 1027 580 709 1247 1226 1011 1346 1504 583 879 1024 586 794 1356 1458 1062 1638 1080 1309 1424 1526 1494 1469 1464 1041 1086 1464 1167 1521
3 89 47 9 12 57 69 3 0 0 10 70 220 264 307 306 218 207 304 392 585 609 532 895 1077 1235 1347 1428 1554 1472 1032 886 628 809 1626 1066 1254 1375 1417 1809 1461 1117 1028 1461 1646 1553 1039 1620 1333
0 6 22 0 2 50 66 4 0 0 5 37 154 168 147 215 197 280 307 495 669 689 574 946 1012 1414 1106 1347 1631 1699 1285 625 988 572 1402 1554 1757 1862 1689 1497 1693 1580 1194 1384 1603 1491 1194 1257 1204
0 0 38 5 0 40 0 80 4 21 0 21 63 104 87 82 136 236 290 487 637 770 917 1106 855 1495 1613 1883 1916 1284 1020 1234 636 941 1177 1199 1693 2007 1876 1858 1661 1667 1523 1113 1122 1232 822 715 13
0 0 11 3 0 32 1 14 72 106 0 2 31 52 59 50 117 159 172 374 533 704 1121 914 1158 1190 1720 1625 1817 1736 1635 1354 1626 820 1417 1358 1581 1890 1758 1528 1425 1582 1220 1314 1363 786 645 15 0
0 0 4 1 28 19 16 0 1 16 52 2 0 27 56 45 52 162 217 263 410 581 912 1115 1139 1245 1765 1708 1865 1948 1331 1549 1784 2010 1392 1447 1881 1612 1566 1557 1457 1588 1420 1049 860 590 165 0 0
0 0 0 4 5 20 121 73 0 0 128 9 0 0 17 37 74 181 283 397 445 681 1040 1101 1296 1242 2243 2106 1748 1328 1569 1351 1522 1082 2027 1819 1652 1812 1491 1525 1346 1308 1178 711 684 236 0 0 4
0 0 24 24 27 0 17 211 171 22 136 59 16 0 0 4 45 188 383 412 416 682 951 1471 1374 1980 1549 1658 1413 1176 1322 1584 1741 1679 1679 1438 1885 1747 1416 1497 1496 1092 977 772 484 57 2 0 6
0 0 1 2 5 7 16 25 113 296 226 78 56 33 5 0 0 242 426 459 424 817 1158 1340 1543 2049 1570 1868 1216 1578 1902 2004 1756 1903 1500 2132 1905 1678 1897 1650 1311 1405 1045 1118 318 35 0 0 1
0 0 0 19 2 6 19 37 76 134 417 194 73 63 76 18 2 33 325 657 536 833 1399 1576 1774 1850 2229 1486 2201 1634 1241 1739 842 430 634 1218 1560 1009 1330 1272 1563 1179 926 412 34 59 0 0 0
0 0 0 0 3 21 58 10 56 173 148 246 91 83 70 124 35 13 202 509 626 858 1340 1893 2052 2148 2455 1683 2233 2114 1543 685 1328 803 1136 940 989 654 1808 1282 961 1175 763 106 0 21 0 0 0
0 0 0 0 0 2 55 0 0 58 72 74 43 7 316 110 128 44 66 462 722 797 1261 1706 2304 2350 2542 2679 1885 2163 1876 1254 1130 1005 1620 1199 1192 865 1129 731 1109 948 601 274 30 29 16 0 0
0 0 0 0 0 0 18 31 23 57 50 11 0 10 337 447 212 199 99 278 853 907 958 1682 2614 2654 2674 2915 2917 1852 2291 2176 1041 1712 1914 1185 609 939 801 1122 1524 1190 646 330 239 127 164 95 25
0 0 0 0 0 4 1 12 12 81 6 0 0 16 63 324 328 385 364 252 785 955 1065 1335 2366 2885 3056 2797 3257 3011 2092 2786 2577 1826 2050 1204 1118 608 1108 1036 1524 1380 760 502 196 208 42 99 81
0 0 0 0 0 3 18 22 3 69 52 0 3 34 13 30 337 324 623 661 587 1025 1120 1245 2231 2786 3187 3404 3300 3403 3282 2441 2681 2319 1726 2071 1052 1295 1116 1168 1610 1265 940 492 399 189 114 164 198
0 0 0 0 0 0 0 6 21 70 29 2 1 25 19 1 259 347 331 655 627 843 1221 1367 1643 2830 3342 3523 3558 3360 3590 3412 2801 2423 2178 1531 1927 1135 1322 1190 1280 1032 910 645 524 160 238 199 139
0 0 0 0 0 0 0 2 25 13 93 64 10 18 20 0 255 405 370 419 525 589 1001 1319 1583 2496 3304 3654 3611 3554 3512 3785 3160 2734 2287 2624 1743 1419 1376 1159 1001 1226 1130 787 546 297 227 160 82
0 0 0 0 0 0 0 0 1 84 79 65 27 6 21 0 0 37 420 527 630 527 715 1119 1497 1624 2924 3506 3489 3597 3738 3729 3590 2545 3044 2955 2338 2091 1225 1092 1166 980 1054 759 694 100 102 362 298

GFSSGP_con_mlcape_033.txt.gz
CAPE
542 384 574 70 46 56 14 14 69 26 77 79 52 42 2 0 0 0 2 14 11 1 63 238 381 562 634 746 894 1182 1344 1367 1564 1660 1587 1615 1594 1653 1694 1553 1658 1602 1521 1507 1513 1509 1399 1365 1250
317 615 33 7 65 32 44 58 31 26 122 12 4 1 0 3 0 1 42 57 21 80 223 267 505 654 601 563 828 1102 1115 1329 1629 1697 1528 1591 1533 1685 1691 1667 1620 1472 1426 1413 1407 1392 1441 1353 1255
480 567 0 63 112 79 126 70 34 53 89 42 4 0 0 0 21 21 12 21 53 206 231 580 671 944 851 722 843 941 1106 1276 1404 1635 1629 1615 1450 1603 1646 1584 1439 1394 1388 1376 1387 1328 1221 1189 1132
513 710 420 227 32 129 115 117 165 151 125 80 84 0 0 19 27 79 178 97 54 125 296 811 914 1139 1266 1134 1015 1055 1108 1236 1412 1587 1615 1532 1351 1575 1448 1400 1330 1368 1534 1541 1617 1472 1365 1233 1098
590 288 321 394 80 138 129 135 87 106 267 86 135 64 94 56 95 111 99 65 78 112 552 858 1022 1195 1476 1325 1217 1383 1221 1116 1473 1485 1613 1512 1414 1532 1288 1207 1210 1471 1637 1778 1623 1334 1082 1190 1147
835 36 251 246 128 177 73 143 184 121 251 168 185 161 63 170 196 207 217 186 164 100 387 785 1258 1224 1405 1501 1552 1579 1291 1190 1456 1464 1462 1465 1286 1234 1012 966 1153 1394 1589 1542 1500 1014 832 875 931
704 210 280 180 154 175 68 56 194 152 116 225 178 150 298 331 297 303 316 395 395 340 426 892 1354 1530 1444 1652 1685 1596 1271 1291 1417 1341 1273 1335 1155 1171 917 861 1054 976 1118 1230 1145 1085 950 980 1081
257 6 146 82 26 166 91 7 62 178 223 308 302 224 376 420 390 529 475 563 560 628 721 765 1205 1481 1438 1554 1423 1331 1399 1400 1197 1045 971 1110 1105 1051 1165 1003 1123 822 806 1063 1360 1234 1066 857 891
0 6 10 28 2 26 34 13 147 304 234 130 224 391 481 448 426 576 574 586 757 751 740 958 1133 1266 953 919 1234 1445 1402 1205 842 715 812 469 817 835 848 1286 1156 746 706 1059 998 1075 1040 827 675
0 0 1 54 9 7 119 73 105 259 188 175 248 502 550 454 296 463 606 556 711 702 914 834 781 628 709 795 932 727 710 634 282 424 516 588 785 898 977 1046 877 869 1278 716 1313 1096 1019 1141 845
11 1 3 14 6 1 13 10 1 187 331 250 265 351 548 579 451 420 467 491 467 507 800 1077 1158 914 564 537 262 691 676 287 469 906 1069 1107 1158 1377 1087 605 278 964 891 1135 1325 1064 786 1376 1175
2 6 4 1 9 22 5 0 0 0 220 393 299 429 522 279 318 241 487 545 338 631 495 586 432 972 508 673 357 936 957 845 824 924 1253 1601 1412 1067 1068 1073 781 1059 1255 1052 458 1132 1117 1563 1618
0 0 0 6 22 0 0 3 18 16 316 345 186 135 349 167 366 532 496 830 506 566 725 608 419 645 737 871 378 1027 1074 1093 1051 1233 1395 620 932 850 1364 1286 1431 1120 1300 1213 732 819 1156 1477 1339
5 16 4 0 55 3 2 0 3 76 340 321 258 143 195 157 529 650 593 753 601 797 708 884 651 654 893 1128 1105 1656 1210 897 1166 1258 981 859 1249 914 1232 1526 1571 1179 885 1164 1257 1143 1133 1311 964
0 0 14 22 42 45 0 0 6 67 283 412 409 321 271 147 46 107 734 694 418 211 397 986 796 974 1210 1006 1281 1107 1075 761 777 855 1242 793 1079 1091 872 992 941 1300 1103 1168 970 956 1116 753 347
0 0 0 1 0 19 0 4 0 7 212 301 352 354 323 255 102 79 323 695 390 221 961 1032 896 587 419 587 1164 943 808 774 826 913 1054 1179 1513 1443 1334 1051 1119 1722 1132 900 785 859 415 49 0
0 0 0 5 0 0 6 0 0 2 65 171 197 167 217 194 133 130 329 437 432 352 692 654 912 773 711 475 1226 1137 534 935 1158 994 1253 1151 1448 1570 1412 1373 1199 1348 1298 1236 976 625 115 0 0
0 0 0 1 6 10 1 0 16 61 0 19 110 74 87 69 98 189 236 370 577 443 684 788 796 1129 1064 1216 1192 1183 1002 1357 1602 1117 906 1232 1275 1460 1157 1401 1457 1142 1237 806 655 437 70 0 0
0 0 0 0 15 10 28 6 0 0 0 0 12 22 53 39 44 117 126 388 500 635 764 619 845 1400 1314 1331 1157 1281 1476 1049 1081 1340 1551 1334 1303 1386 1321 1276 1245 1248 1208 646 468 24 0 0 0
0 0 0 15 28 6 2 1 0 0 2 0 0 0 12 29 13 116 127 197 377 491 764 677 773 1294 1436 1315 1251 1192 1174 1114 728 815 1446 1526 1333 1084 1045 946 960 1012 814 539 117 0 0 0 0
0 0 0 2 1 0 0 0 0 0 2 36 0 0 0 22 30 63 119 197 277 423 698 810 860 1143 1483 1605 1422 1122 985 875 1117 1395 1412 1458 1309 1288 1627 1151 926 891 842 501 67 0 0 0 0
0 0 0 0 0 0 1 6 8 0 40 43 13 0 0 1 24 56 204 244 325 491 742 853 968 1156 1414 1567 1295 908 808 1547 1476 1529 1495 1525 1365 1468 1369 1337 886 1066 517 492 1 0 0 0 0
0 0 0 0 0 21 8 0 42 101 126 29 0 0 0 0 0 50 170 247 373 502 720 1039 996 1313 1231 1261 1292 817 785 1097 1284 990 1063 1351 1516 1204 1126 1203 1209 870 607 150 0 0 0 16 17
0 0 0 0 0 12 0 0 1 8 97 74 36 38 2 1 0 7 102 322 304 599 890 1151 1066 1153 1391 1126 1081 1693 1468 985 514 614 942 1187 944 850 1051 981 987 761 194 8 10 17 0 16 22
0 0 0 0 0 0 0 0 0 43 0 188 154 31 27 1 0 0 67 320 426 518 1131 1269 1212 1161 1504 1371 1064 1334 1961 1422 717 1262 837 626 501 403 1058 789 778 640 192 50 32 11 0 0 15
0 0 0 0 0 0 0 4 8 6 9 105 69 71 9 68 1 0 0 170 517 545 1020 1560 1529 1370 1593 1630 1268 1018 1650 2218 1383 1186 1685 940 775 449 675 696 710 721 354 119 116 50 8 38 0
0 0 0 0 0 0 0 0 0 0 62 21 28 0 4 5 112 24 22 62 477 564 1032 1440 1846 1688 1819 1860 1707 1327 1120 1433 2225 2051 1223 1629 863 685 505 973 1042 862 558 273 167 62 0 9 5
0 0 0 0 0 0 0 0 0 27 41 26 12 16 0 3 10 89 37 46 454 632 778 1368 2113 2027 2012 1974 2170 2024 1668 1616 1772 2343 2147 1210 1618 1158 800 875 1060 933 746 326 174 132 39 59 85
0 0 0 0 0 0 0 0 0 11 75 35 37 46 16 0 3 87 266 162 365 735 881 1035 2019 2270 2382 2262 2202 2376 2452 2139 2026 1900 2294 1662 1424 1455 1117 1013 1000 918 734 335 347 171 86 153 16
0 0 0 0 0 0 0 0 0 0 95 53 67 29 30 14 40 11 265 444 325 758 978 1119 1994 2246 2545 2596 2600 2480 2613 2968 2564 2230 2038 1999 1654 1497 1247 929 954 816 671 495 433 248 185 28 153

GFSSGP_con_mlcape_036.txt.gz
CAPE
362 290 438 39 10 7 8 26 46 36 19 45 19 2 0 0 0 0 0 1 0 3 46 220 611 883 1106 1270 1339 1401 1394 1615 1723 1769 1624 1695 1673 1745 1714 1760 1702 1635 1627 1631 1654 1599 1485 1442 1326
491 526 10 4 50 30 15 14 19 35 32 0 0 0 0 0 0 2 0 0 0 9 102 328 523 868 935 1111 1281 1455 1495 1560 1561 1771 1505 1715 1764 1765 1690 1640 1534 1495 1491 1479 1452 1432 1474 1407 1367
651 144 0 22 79 28 12 39 42 14 0 0 0 0 0 3 0 0 0 0 8 64 215 475 696 812 805 1031 1192 1437 1489 1595 1705 1722 1542 1580 1719 1685 1638 1495 1453 1459 1429 1496 1491 1364 1190 1104 1051
958 239 155 97 59 91 103 162 83 59 30 0 0 0 2 7 0 0 19 0 71 127 421 794 844 795 760 976 1130 1302 1448 1464 1719 1711 1523 1409 1667 1563 1504 1404 1433 1565 1597 1772 1606 1417 1393 1203 1056
607 14 53 125 95 71 114 253 166 114 91 0 0 1 5 0 0 19 0 74 83 216 763 949 1126 1161 1034 1011 1140 1183 1263 1518 1691 1618 1534 1412 1568 1402 1288 1254 1358 1572 1769 1844 1428 1182 1121 1159 1155
611 73 30 65 119 94 189 263 289 212 125 8 5 0 18 46 88 65 76 53 171 234 787 1163 1364 1497 1332 1175 1395 1278 1171 1571 1438 1543 1563 1316 1376 1107 959 1060 1241 1527 1632 1572 1402 1013 932 916 984
107 4 30 10 57 159 161 379 269 189 93 106 0 0 41 96 103 83 73 77 57 343 607 1092 1339 1515 1389 1393 1532 1440 1245 1422 1272 1403 1408 1213 1055 1030 942 1070 1238 1248 1251 1361 1424 1246 901 901 1060
4 0 1 28 58 128 184 303 254 142 260 219 43 0 26 109 96 120 138 164 49 180 521 815 1167 1487 1339 1569 1707 1486 1293 1201 1226 1256 1102 1012 852 1172 1322 1228 1174 1179 1075 1019 1275 1277 921 924 1010
0 0 0 0 132 116 166 296 280 369 196 66 360 62 87 182 230 243 296 226 187 230 396 805 992 1277 1307 1508 1535 1457 1256 1151 1039 826 617 698 843 823 1053 1149 1079 1091 922 1422 1038 1170 1259 695 453
0 0 1 5 6 33 56 218 398 296 283 407 155 307 323 304 370 385 503 443 481 394 370 608 979 1012 994 1091 1073 980 925 714 435 240 207 377 495 857 1004 933 1169 1041 1088 343 1337 1092 889 1369 673
1 0 0 0 0 69 192 333 366 304 350 236 241 247 384 455 523 525 602 593 490 362 574 620 789 809 439 276 521 402 366 194 54 49 286 621 855 787 1010 704 806 672 1318 977 1297 1138 929 1282 1125
26 10 2 2 0 2 125 424 457 280 355 289 319 265 352 454 473 522 636 659 524 474 482 544 480 411 94 104 133 69 83 76 18 256 797 1064 1122 990 1020 688 721 794 1320 947 345 1023 912 1237 1419
10 11 13 22 2 14 8 232 349 371 400 462 559 424 214 316 366 488 521 535 478 646 587 579 602 341 350 197 157 128 498 394 419 593 782 1113 1041 1018 935 879 981 1095 1040 862 600 772 952 1057 1208
2 21 10 44 20 18 1 10 33 360 377 475 484 417 361 254 294 337 422 339 329 529 371 656 585 674 401 435 361 307 832 867 755 797 902 1059 822 900 1149 995 912 985 1168 909 766 863 1122 1146 899
0 0 0 8 0 1 0 0 58 430 304 419 520 434 356 239 325 346 517 353 286 455 381 477 352 518 603 484 605 466 1311 1041 1047 998 992 1135 1023 734 1015 777 775 1050 1006 1033 943 891 658 33 0
0 0 0 0 6 0 0 13 344 387 218 236 439 409 226 153 260 289 300 453 360 350 568 587 460 441 621 686 980 935 896 616 669 899 1043 943 964 954 862 801 699 1244 860 705 658 618 255 4 0
0 0 0 0 0 0 0 0 401 309 287 195 131 150 173 121 315 341 499 372 471 467 486 762 540 583 580 926 970 797 668 484 757 831 859 952 1107 1135 1168 741 885 1302 1183 885 706 459 2 0 0
0 0 0 0 0 0 0 0 243 396 394 357 310 158 117 82 94 98 492 425 436 231 474 591 625 562 771 762 637 682 586 485 1298 1056 827 916 1483 1536 1137 895 1245 1112 1120 975 635 349 11 0 0
0 0 0 0 0 2 0 0 0 239 335 364 338 256 193 86 120 54 430 464 307 198 460 629 714 606 392 513 394 380 312 406 1017 1023 761 981 1014 1243 1161 782 1101 1078 894 768 354 26 0 0 0
0 0 0 0 5 7 3 0 0 1 147 185 225 188 157 103 84 100 185 355 300 218 472 517 652 618 573 709 645 613 455 661 792 1012 1171 1182 1178 978 1251 767 873 751 1034 550 142 0 0 0 0
0 0 0 0 0 6 8 6 0 0 0 0 81 107 80 58 27 66 75 224 319 236 419 425 548 768 767 913 955 792 726 779 895 964 843 1080 1124 982 1106 804 712 772 532 415 60 0 0 0 0
0 0 0 0 0 1 0 0 2 0 0 0 0 40 45 37 10 21 82 163 279 301 389 400 562 900 922 1041 1026 837 771 672 594 656 937 1125 1245 1180 1044 1188 729 613 610 291 50 0 0 0 0
0 0 0 0 0 0 2 0 0 0 0 0 0 0 25 15 15 8 55 74 172 259 432 461 508 905 1003 1091 1045 891 756 522 617 987 1276 1207 1215 1203 1163 1000 727 665 554 267 13 0 0 0 0
0 0 0 0 0 0 0 0 0 0 2 1 0 0 0 5 0 0 21 36 49 222 424 543 576 785 976 1068 1069 968 860 559 522 1059 1135 1064 1241 1258 1145 1149 795 539 239 169 0 0 0 0 0
0 0 0 0 0 0 0 0 0 0 1 25 0 7 3 0 0 0 0 30 56 173 431 614 651 781 902 1051 1079 998 796 596 434 689 986 714 849 1072 825 1181 943 554 188 35 0 0 0 0 0
0 0 0 0 0 0 0 0 0 0 0 2 18 7 15 0 0 0 0 30 43 175 497 730 683 784 897 930 1062 1175 1006 717 634 827 618 696 694 936 766 852 853 465 107 4 0 0 0 0 0
0 0 0 0 0 0 0 0 0 0 0 3 26 52 6 0 0 0 0 1 70 187 545 719 766 767 1029 982 861 921 1115 1298 1372 1184 979 832 606 430 591 654 706 438 171 100 21 0 0 0 0
0 0 0 0 0 0 0 0 0 0 0 0 1 69 3 0 0 0 0 5 132 176 540 755 848 799 949 1137 1096 1005 890 1080 1601 1563 1313 971 496 503 369 532 501 433 288 228 114 16 2 0 0
0 0 0 0 0 0 0 0 0 0 0 0 22 80 43 6 9 0 0 0 77 329 464 1008 978 983 1041 1235 1322 1272 1095 829 1276 1739 1901 1495 1155 865 485 604 541 466 389 335 213 82 2 0 0
0 0 0 0 0 0 0 0 0 0 0 0 0 45 72 19 29 27 42 53 29 257 444 962 1311 1216 1207 1390 1416 1485 1451 1276 835 1288 1688 1910 1718 1222 967 704 794 700 590 478 377 102 24 2 0

GFSSGP_con_mlcape_039.txt.gz
CAPE
388 436 250 52 10 12 5 17 43 32 43 29 0 0 0 0 0 0 0 8 9 32 115 245 730 975 1189 1265 1353 1456 1488 1517 1564 1454 1440 1590 1694 1560 1692 1637 1575 1579 1592 1621 1592 1470 1316 1229 1095
493 442 45 12 46 13 15 65 59 75 3 0 0 0 0 0 3 4 3 0 15 31 127 333 716 960 1280 1313 1317 1520 1589 1753 1707 1773 1889 1798 1722 1661 1579 1482 1460 1467 1432 1390 1364 1408 1349 1363 1369
477 207 15 28 113 49 71 81 95 47 2 1 0 0 0 6 3 5 0 0 0 30 203 469 912 970 1178 1324 1463 1580 1697 1647 1503 1394 1699 1732 1655 1586 1490 1401 1393 1417 1539 1564 1392 1240 1175 1176 1151
807 213 158 69 47 74 125 93 96 8 5 9 0 2 6 1 0 0 0 0 1 114 359 667 979 940 1042 1245 1405 1476 1517 1588 1573 1466 1510 1673 1608 1528 1467 1460 1470 1579 1735 1782 1607 1469 1404 1287 1173
288 29 2 52 97 97 158 195 113 110 42 0 2 0 14 54 21 0 0 17 56 188 558 720 866 939 1037 1203 1270 1333 1383 1543 1649 1529 1417 1629 1529 1468 1400 1426 1583 1743 1863 1722 1389 1157 1186 1194 1136
52 18 0 12 51 114 224 212 198 136 41 17 0 0 29 66 19 13 36 79 171 291 548 770 918 1104 1118 1137 1245 1324 1380 1562 1661 1623 1459 1560 1558 1287 1242 1312 1449 1658 1653 1554 1231 953 906 957 1054
0 0 0 37 60 139 202 233 214 78 13 23 14 0 35 76 69 58 122 161 269 524 457 906 1136 1071 1123 1213 1271 1195 1387 1481 1537 1439 1364 1434 1364 1148 1100 1253 1339 1379 1421 1377 1317 1249 931 886 1112
12 0 0 10 86 193 309 310 259 72 107 67 18 0 0 129 110 137 124 159 256 513 639 802 1225 1200 1267 1373 1452 1277 1312 1438 1345 1135 1342 1380 1251 1337 1343 1315 1172 1380 1200 1179 1151 1046 817 830 1034
1 0 0 34 54 271 430 335 218 228 99 10 155 0 66 226 204 145 107 98 95 359 695 908 1092 1270 1229 1393 1551 1431 1225 1338 1196 1149 1331 1223 889 1042 1289 1212 1442 1186 1162 1536 1223 1075 1048 742 1196
0 0 0 0 4 164 438 318 217 132 26 115 144 6 149 197 181 161 152 124 8 100 554 765 1058 1083 1133 1433 1416 1220 1049 1024 849 721 657 905 602 652 969 997 1326 1109 1224 939 1022 1322 1111 1253 618
1 0 0 0 0 233 380 277 286 71 11 98 0 20 219 248 254 244 253 155 19 96 401 681 960 1129 895 957 1014 919 711 554 363 200 259 313 574 724 916 916 752 792 1009 711 954 1078 746 1042 967
33 0 0 14 0 179 359 338 330 108 57 125 0 97 285 307 320 386 356 360 237 214 302 517 755 865 733 636 520 421 250 217 86 63 106 493 925 988 955 768 400 632 949 872 255 800 797 920 1042
24 0 3 41 7 69 356 377 374 184 327 246 195 265 228 367 383 441 442 453 460 372 364 402 602 632 361 95 123 167 39 71 8 24 166 860 1055 972 898 737 648 849 870 884 572 604 774 723 1075
0 0 0 14 3 11 396 420 450 282 427 290 166 253 333 380 472 451 489 484 532 345 277 456 413 403 155 0 0 0 8 29 58 146 398 774 1049 898 814 671 629 976 901 851 705 670 698 824 749
0 0 0 4 0 4 3 124 328 331 443 284 161 228 337 412 443 493 548 622 556 410 255 360 333 238 9 0 14 55 38 518 611 669 709 840 907 874 999 938 815 971 934 914 843 860 488 0 0
0 0 0 0 0 0 0 0 177 380 439 387 249 192 303 358 384 422 512 513 482 393 428 427 452 343 157 150 207 319 290 711 1030 1109 988 891 1029 821 827 701 666 878 772 794 657 606 302 0 0
0 0 0 0 0 0 0 0 67 339 424 469 433 265 279 264 330 341 449 327 333 301 310 354 441 297 432 395 427 493 639 689 564 611 862 953 1048 882 822 760 657 931 907 730 558 561 19 0 0
0 0 0 0 0 0 0 0 209 342 379 498 463 395 394 286 281 298 403 424 232 217 292 238 356 252 312 499 538 502 717 500 655 771 668 831 997 929 911 871 725 1018 1132 844 663 296 16 0 0
0 0 0 0 0 0 0 0 107 318 294 452 468 402 377 243 221 292 327 414 380 235 231 300 369 372 310 365 548 868 739 548 628 846 875 806 997 1086 1239 668 962 987 762 859 469 117 0 0 0
0 0 0 0 0 0 0 0 53 251 228 206 245 325 282 171 103 224 223 326 320 194 211 286 441 446 383 339 543 772 668 556 443 697 817 798 931 1275 1279 869 763 897 794 663 277 2 0 0 0
0 0 0 0 0 0 0 0 34 191 217 209 152 89 81 143 64 31 143 325 401 256 235 354 418 422 409 410 532 612 462 379 367 580 971 924 971 969 992 918 740 727 653 626 119 0 0 0 0
0 0 0 0 0 0 0 0 0 24 68 132 195 171 123 71 47 20 54 169 291 281 253 309 345 389 349 387 479 409 433 409 323 561 699 782 1139 1101 1017 1004 734 647 500 435 75 0 0 0 0
0 0 0 0 0 0 0 0 0 0 0 0 25 107 69 91 60 38 13 66 148 225 202 233 201 357 458 504 506 523 571 514 384 365 595 809 875 937 1006 943 860 620 442 303 100 2 0 0 0
0 0 0 0 0 0 0 0 0 0 0 0 0 0 18 37 35 40 27 36 107 175 104 249 228 372 509 487 568 648 654 567 523 409 472 590 804 948 1091 1091 948 639 504 316 95 0 0 0 0
0 0 0 0 0 0 0 0 0 0 0 0 0 0 0 11 4 19 9 8 56 163 167 238 269 403 560 580 643 676 691 580 557 345 420 954 1110 1131 1173 1142 947 681 490 206 42 0 0 0 0
0 0 0 0 0 0 0 0 0 0 0 0 0 0 0 0 0 0 0 0 14 75 148 269 290 354 670 745 726 723 717 656 599 497 300 637 939 760 989 1197 969 739 396 97 7 0 0 0 0
0 0 0 0 0 0 0 0 0 0 0 0 0 0 0 0 0 0 0 0 0 10 70 214 366 370 590 755 808 746 722 694 646 543 341 376 791 833 798 1000 771 794 463 85 0 0 0 0 0
0 0 0 0 0 0 0 0 0 0 0 0 0 0 0 0 0 0 0 0 0 0 10 125 354 413 495 691 807 807 744 739 758 604 450 455 659 621 688 881 672 695 420 99 5 2 0 0 0
0 0 0 0 0 0 0 0 0 0 0 0 0 0 0 0 0 0 0 0 0 12 8 134 382 474 544 681 778 850 889 980 1012 941 598 556 835 576 644 777 617 594 463 163 59 34 18 0 0
0 0 0 0 0 0 0 0 0 0 0 0 0 0 0 0 2 4 0 0 0 0 16 195 391 580 584 756 808 776 770 838 991 1108 963 895 967 662 591 537 531 492 463 302 156 109 91 10 0

GFSSGP_con_mlcape_042.txt.gz
CAPE
255 366 163 101 30 26 7 23 46 48 7 19 4 1 3 4 0 7 2 0 11 6 92 50 520 1148 1253 1390 1422 1358 1234 1273 1150 1458 1661 1760 1627 1641 1628 1525 1559 1567 1601 1576 1471 1437 1307 1300 1202
369 310 88 17 46 27 46 30 49 44 5 0 0 0 0 0 1 1 5 0 19 24 71 96 921 1226 1378 1451 1390 1391 1358 1388 1441 1597 1783 1728 1697 1627 1484 1421 1407 1405 1372 1355 1443 1410 1483 1439 1251
368 291 36 8 66 26 50 54 36 0 0 0 0 0 0 1 2 4 0 1 0 39 84 202 1104 1327 1252 1344 1572 1514 1693 1523 1808 1894 1761 1711 1621 1518 1435 1425 1416 1500 1506 1445 1317 1234 1262 1309 1164
658 297 91 33 14 82 58 75 26 0 0 0 0 0 4 4 0 0 0 0 17 93 137 776 1125 1232 1196 1440 1565 1777 1598 1451 1456 1698 1698 1568 1538 1506 1512 1556 1601 1615 1661 1581 1502 1516 1391 1190 1035
208 35 1 25 3 64 56 102 0 13 0 3 4 1 6 17 7 0 0 4 28 177 397 947 1126 1096 1255 1430 1600 1576 1579 1558 1448 1400 1586 1612 1527 1495 1508 1546 1686 1742 1774 1538 1255 1259 1274 1264 1162
8 14 0 1 4 37 106 98 94 43 0 0 0 0 7 20 1 0 11 8 98 212 587 989 1034 1083 1214 1333 1371 1422 1520 1522 1492 1397 1563 1674 1436 1420 1355 1361 1513 1691 1653 1510 1131 954 965 1012 998
0 0 0 0 17 76 154 113 131 30 0 0 12 18 35 17 11 23 27 48 159 437 471 811 843 1040 1142 1269 1349 1368 1457 1538 1598 1673 1535 1485 1439 1176 1151 1241 1318 1400 1394 1417 1271 1084 887 872 1140
0 0 2 20 104 107 218 207 140 0 0 0 0 10 11 25 33 54 65 136 245 481 401 693 870 943 1035 1189 1257 1256 1468 1463 1644 1669 1080 1449 1547 1395 1415 1444 1145 1378 1273 1263 1107 946 841 916 1124
2 11 1 46 75 155 261 257 123 75 10 0 47 0 26 60 68 86 92 128 233 336 437 600 713 886 973 1137 1293 1306 1368 1415 1516 1414 1300 1381 1111 1110 1296 1223 1423 1549 1241 1148 1021 1216 1131 638 1127
27 0 0 12 32 225 316 249 123 92 0 25 54 36 77 76 89 56 56 53 102 94 408 579 746 817 971 1238 1337 1259 1026 1160 1272 1042 891 1038 724 582 894 1198 1443 1742 1503 1376 1003 1128 1199 1044 696
0 14 0 0 18 133 294 289 159 85 0 0 3 16 122 111 89 56 46 1 0 0 315 612 778 1034 950 1123 1225 1202 805 839 821 667 503 464 658 540 751 785 758 655 733 995 852 996 815 1026 865
6 10 0 0 0 134 287 284 230 90 8 66 65 60 127 131 110 75 34 12 0 8 175 498 699 924 904 1017 975 866 486 511 341 224 145 137 347 722 827 789 578 501 699 994 353 724 714 870 924
26 41 15 0 1 124 314 334 279 143 211 116 97 111 116 158 148 132 89 63 0 0 76 376 599 896 707 507 556 461 259 186 182 114 42 93 712 696 926 848 681 631 793 1007 727 614 668 750 891
2 0 0 1 7 82 277 331 299 233 220 130 117 77 151 151 139 203 201 138 65 0 38 247 445 640 662 438 244 30 107 64 81 43 0 93 731 860 927 750 652 698 765 927 661 680 603 636 561
0 0 0 0 0 0 256 286 310 312 298 172 126 142 171 196 222 273 298 263 277 139 93 204 252 426 404 206 50 0 0 0 0 0 36 191 600 878 895 798 660 762 670 906 790 829 453 0 0
0 0 0 0 0 0 177 18 349 375 360 248 153 179 153 247 325 310 359 298 366 315 264 296 290 253 169 39 0 0 0 0 28 431 594 616 741 823 879 813 873 754 803 844 637 569 373 0 0
0 0 0 0 0 0 1 0 18 390 397 331 163 153 181 172 372 398 382 345 379 394 374 156 259 166 66 0 0 0 43 114 219 571 921 948 909 825 800 690 615 597 758 664 542 470 108 0 0
0 0 0 0 0 0 0 0 0 258 386 382 222 117 184 156 156 338 394 436 430 403 439 170 194 131 27 0 0 18 184 352 457 469 504 714 806 881 798 739 674 876 836 852 573 311 0 0 0
0 0 0 0 0 0 0 0 0 164 344 393 324 153 132 106 140 240 275 363 324 336 354 225 239 159 88 74 0 151 323 411 669 565 660 544 671 913 889 796 829 728 881 836 744 140 0 0 0
0 0 0 0 0 0 0 0 19 107 131 270 362 318 174 100 129 118 157 235 234 183 263 248 174 212 147 165 196 349 386 361 615 573 689 796 707 864 931 845 758 721 713 563 469 75 0 0 0
0 0 0 0 0 0 0 0 0 107 183 281 374 358 305 187 98 74 99 173 297 187 149 194 158 118 205 153 170 278 414 503 587 503 597 614 729 829 946 974 860 671 645 563 370 35 0 0 0
0 0 0 0 0 0 0 0 0 3 35 103 157 314 307 219 117 60 78 97 195 254 151 109 131 179 165 237 186 226 306 507 599 574 489 635 730 772 983 1066 880 741 504 421 316 5 0 0 0
0 0 0 0 0 0 0 0 0 0 9 54 100 85 101 135 83 40 22 58 78 158 156 90 93 171 171 232 312 268 339 372 392 312 265 427 764 921 952 942 836 808 460 367 227 2 0 0 0
0 0 0 0 0 0 0 0 0 0 0 0 38 90 106 70 43 32 2 8 15 111 162 66 121 170 237 209 293 339 340 306 313 280 366 355 576 624 767 852 901 753 578 336 154 4 0 0 0
0 0 0 0 0 0 0 0 0 0 0 0 0 0 42 112 76 34 22 2 14 66 145 104 147 205 254 252 239 318 347 325 348 400 398 184 292 564 723 851 911 809 784 449 165 5 0 0 0
0 0 0 0 0 0 0 0 0 0 0 0 0 0 0 1 26 50 38 5 0 16 83 75 107 157 228 261 237 322 406 409 406 453 445 328 231 413 931 964 941 901 787 495 219 18 0 0 0
0 0 0 0 0 0 0 0 0 0 0 0 0 0 0 0 0 0 21 11 0 2 36 52 80 95 152 279 290 353 447 474 423 498 444 451 317 580 932 1045 1039 941 807 486 220 27 0 0 0
0 0 0 0 0 0 0 0 0 0 0 0 0 0 0 0 0 0 0 0 0 0 15 53 50 76 92 297 390 410 430 456 497 515 485 453 420 359 577 842 826 882 840 446 262 62 3 0 0
0 0 0 0 0 0 0 0 0 0 0 0 0 0 0 0 0 0 0 1 0 0 0 18 45 102 106 326 482 543 544 568 534 539 491 498 480 421 350 669 805 782 779 424 344 152 40 2 0
0 0 0 0 0 0 0 0 0 0 0 0 0 0 0 0 0 0 0 0 0 0 1 0 19 123 188 241 526 627 644 655 554 525 525 519 556 458 316 576 737 698 722 444 440 303 104 52 22

GFSSGP_con_mlcape_048.txt.gz
CAPE
82 141 248 255 59 87 125 129 159 154 176 100 35 87 14 55 25 81 17 3 47 156 95 358 903 1309 1656 1795 1768 1656 1606 1560 1652 1784 1988 1748 1719 1793 1722 1698 1728 1765 1602 1451 1507 1486 1562 1432 1391
355 227 350 273 223 132 117 162 200 228 156 66 36 33 54 3 21 5 83 1 55 90 388 634 914 1317 1501 1475 1381 1367 1414 1637 1857 1986 1744 1711 1605 1517 1442 1440 1330 1317 1368 1512 1620 1564 1337 1239 1095
293 327 136 93 46 117 105 208 234 223 45 36 22 61 123 35 32 35 19 6 191 206 386 582 862 1261 1340 1444 1420 1404 1485 1797 1894 1770 1714 1614 1570 1471 1543 1611 1599 1622 1421 1309 1326 1354 1328 1180 1094
628 633 329 147 150 180 191 206 151 80 24 22 48 66 9 36 50 131 39 142 107 250 528 678 1265 1323 1354 1492 1478 1563 1770 1887 1744 1692 1645 1545 1574 1623 1723 1417 1458 1646 1598 1527 1513 1375 1122 932 871
907 403 294 200 160 226 302 231 166 111 83 57 67 20 6 41 41 107 71 105 234 211 323 796 1316 1513 1537 1810 1651 1584 1750 1773 1778 1648 1571 1583 1611 1648 1693 1497 1751 1686 1405 1364 1407 1307 1031 1076 1118
651 327 137 115 144 178 350 250 164 92 47 16 7 8 54 81 82 85 148 139 209 155 75 504 1207 1530 1597 1859 1582 1445 1445 1537 1673 1657 1587 1566 1529 1493 1478 1600 1637 1644 1466 1257 1112 1087 990 944 1045
481 140 107 139 138 245 398 276 226 31 37 14 42 90 124 110 87 82 164 103 146 161 41 314 535 1134 1644 1712 1553 1607 1589 1542 1592 1673 1642 1472 1303 1266 1370 1278 1553 1390 1406 1445 1404 1188 1089 1144 1158
387 85 89 63 86 76 473 440 308 38 60 65 76 50 114 194 120 135 148 191 270 222 108 220 434 616 736 850 1479 1529 1577 1693 1731 1594 1451 1327 1064 1248 1279 1321 1055 1417 1304 1193 1221 1162 1018 947 1248
327 187 100 113 182 220 473 371 202 62 51 43 84 132 146 138 95 135 158 150 253 284 138 123 281 528 598 630 944 1244 1492 1659 1555 1295 1164 1071 1588 1699 1665 680 1347 1477 1407 1323 1311 1329 1214 853 1221
523 406 115 101 175 346 516 430 413 98 46 74 148 157 129 187 169 223 251 328 464 293 141 85 100 297 564 315 791 722 566 501 930 1313 1434 1702 1691 1735 1483 1272 1068 997 1125 959 1031 1182 1102 1385 1357
402 308 61 51 121 284 600 570 510 179 4 101 108 157 172 232 293 318 288 361 433 253 84 62 93 285 290 129 532 598 446 665 971 1562 1589 1490 1561 1760 1643 1437 1573 1621 1106 1684 1466 1403 1241 1193 1199
156 179 62 54 101 148 461 608 571 279 24 33 184 197 182 217 265 237 258 288 344 297 118 103 229 372 339 304 402 542 142 372 483 809 1237 1393 1422 1639 1849 1591 1588 1780 1664 1317 1479 1497 1381 1285 1301
41 162 164 127 107 93 197 480 645 443 150 106 232 208 207 213 237 223 209 182 253 302 211 320 447 620 565 608 349 472 241 96 119 582 848 978 1306 1617 1827 1572 1613 1497 1507 1220 1350 1194 1246 1089 1172
0 35 128 96 27 71 433 558 653 662 401 241 195 188 233 210 216 175 116 108 180 175 187 382 541 667 749 747 892 890 675 133 226 230 522 812 1113 1531 1600 1305 1444 1311 1547 1709 1355 1214 1272 1087 1124
0 0 9 0 0 138 379 558 574 777 589 392 318 219 211 241 246 219 109 112 107 81 94 220 473 657 971 1001 1127 982 377 158 24 8 311 675 1073 1521 1667 1616 1515 1296 1608 1126 1118 1051 948 582 38
0 0 0 0 0 66 190 135 474 759 707 614 447 256 207 241 242 210 132 79 35 50 91 234 339 503 998 1044 1036 551 218 34 0 3 359 763 1078 1550 2045 1709 1539 1714 1611 1125 754 797 722 278 19
0 0 0 3 8 46 120 131 246 659 721 776 568 401 183 202 192 203 146 93 47 41 69 231 401 373 679 958 908 632 278 147 0 140 498 930 1435 1745 2103 1632 1600 2213 1433 1436 1347 988 788 375 97
0 0 0 6 0 23 97 97 43 390 554 696 685 566 296 138 136 146 157 102 98 58 83 249 349 429 678 660 888 457 133 17 3 280 641 1258 1857 2075 2277 1884 1733 2081 1193 1091 1293 837 872 433 197
0 0 0 0 0 0 6 23 2 7 405 525 751 688 533 152 87 99 143 103 103 129 209 331 404 630 828 723 407 163 11 23 79 613 1191 1814 2098 2214 2464 1768 1954 1763 1193 951 1115 909 729 558 177
0 0 0 0 0 0 0 0 0 0 217 419 702 756 705 449 111 104 145 114 109 212 355 640 723 889 1147 736 399 47 16 0 242 758 1211 1880 1914 2228 2237 1690 1287 1763 1384 1034 1033 859 689 277 4
0 0 0 0 0 0 0 0 0 0 15 239 514 709 727 637 292 145 159 176 105 146 331 571 1053 1273 1304 759 530 340 94 247 443 780 1150 1701 1944 1954 2132 1736 1259 1736 1251 998 1215 1220 918 187 49
0 0 0 0 0 0 0 0 0 0 0 76 321 601 674 659 527 155 131 244 87 118 330 658 1219 1539 1607 1063 329 389 9 12 115 694 778 865 1484 1612 1747 1729 1627 1722 1368 1274 1366 1315 1035 591 6
0 0 0 0 0 0 0 0 0 0 0 45 215 513 582 622 579 359 110 65 133 281 498 726 1163 1566 1607 1519 760 583 288 0 297 776 1118 1495 1318 1725 1543 1671 1461 1831 2011 1581 1944 1477 1344 524 50
0 0 0 0 0 0 0 0 0 0 0 0 50 300 535 521 524 621 161 37 214 363 564 745 1249 1754 1750 1643 1392 1161 808 323 590 1106 1184 1305 1290 1242 1764 1592 1866 2086 2034 1958 2087 1823 1451 980 399
0 0 0 0 0 0 0 0 0 0 0 0 0 18 370 563 491 518 591 234 151 307 465 715 1204 1677 1729 1603 1509 1420 1258 1158 1154 1399 1325 1209 865 811 1087 1763 1697 1960 2263 1949 2123 2029 1312 1324 774
0 0 0 0 0 0 0 0 0 0 0 0 0 0 275 435 549 532 645 604 407 293 632 892 1224 1589 1702 1590 1579 1685 1718 1198 1078 1192 1058 1117 997 740 870 1315 1677 2036 1847 2227 2203 1967 1587 1093 1081
0 0 0 0 0 0 0 0 0 0 0 0 0 0 0 65 465 634 689 756 760 708 756 1125 1384 1638 1652 1567 1740 1698 1749 1478 1128 1320 1717 1347 1390 992 1093 1272 1641 1679 1905 2175 2245 1982 1805 1123 1192
0 0 0 0 0 0 0 0 0 0 0 0 0 0 0 0 94 462 711 754 835 865 915 1152 1494 1677 1428 1456 1751 1648 1776 1826 1666 1783 1714 1693 1645 1578 1134 1505 1444 1735 1919 2216 2345 1978 1893 1572 1028
0 0 0 0 0 0 0 0 0 0 0 0 0 0 0 0 14 451 622 676 826 904 886 1149 1455 1575 1572 1555 1628 1707 1688 1686 1881 1712 1912 1989 1975 2053 1910 1680 1544 1532 1954 2463 2532 2286 1788 1801 1278
0 0 0 0 0 0 0 0 0 0 0 0 0 0 0 0 0 93 331 560 639 749 860 870 1101 1333 1450 1520 1728 1631 1672 1720 1677 1827 1939 2078 2005 2219 2249 2119 1910 1655 1848 2420 2514 2335 1767 1852 1520

GFSSGP_con_mlcape_051.txt.gz
CAPE
37 51 116 64 187 426 86 155 44 125 126 160 67 119 266 198 213 33 2 2 1 60 103 369 1115 1577 1775 1793 1580 1431 1598 1616 1634 1743 1785 1710 1836 1858 1745 1661 1812 1588 1554 1610 1590 1636 1508 1421 1321
49 247 290 323 250 132 197 136 47 184 185 237 143 55 131 0 42 34 5 37 89 78 259 733 1278 1659 1934 1746 1695 1702 1563 1604 1713 1744 1680 1580 1466 1382 1304 1243 1243 1418 1631 1723 1610 1412 1317 1209 1262
272 352 380 342 333 82 35 121 105 140 146 143 127 149 243 108 105 57 0 135 64 381 626 1079 1457 1634 1666 1571 1558 1538 1592 1948 1749 1719 1605 1509 1417 1532 1637 1582 1627 1444 1304 1331 1404 1394 1297 1216 1163
494 599 413 209 47 112 59 77 83 100 92 124 133 117 141 75 297 215 3 65 257 627 744 1051 1516 1450 1359 1404 1464 1536 1786 1875 1689 1662 1528 1516 1539 1515 1474 1616 1724 1590 1509 1521 1407 1249 1103 1084 1109
697 693 311 81 70 176 72 59 89 75 128 112 181 155 66 98 224 0 44 229 349 577 487 946 1331 1417 1457 1427 1541 1856 1912 1726 1729 1575 1562 1612 1616 1617 1631 1822 1646 1450 1402 1420 1381 1240 1273 1287 1129
736 582 355 9 70 160 63 56 78 44 98 108 213 183 222 100 0 12 166 218 377 328 209 504 1310 1317 1686 1468 1600 1658 1748 1762 1626 1519 1550 1500 1484 1471 1562 1644 1669 1528 1326 1216 1134 1145 1188 1188 1407
425 462 166 114 47 174 33 60 113 29 92 210 68 276 254 263 96 124 161 261 249 20 33 427 763 1160 1906 1450 1407 1371 1432 1555 1608 1505 1476 1369 1287 1248 1236 1375 1470 1382 1412 1414 1311 1092 1093 1279 1353
445 337 154 61 37 39 40 154 0 13 109 166 439 367 314 317 147 163 186 134 98 35 64 223 419 628 923 1031 1475 1470 1562 1534 1506 1490 1384 1208 1018 968 1253 979 1233 1355 1297 1329 1206 1046 1035 1250 1408
412 322 233 9 49 14 47 29 59 4 82 146 229 367 396 274 174 211 161 127 195 48 10 91 282 494 459 485 928 1339 1505 1592 1523 1177 959 1307 1558 1669 1491 805 1210 1346 1478 1412 1409 1249 1113 1206 1420
296 423 94 4 22 16 81 18 6 11 30 72 284 501 339 282 160 187 203 193 300 47 23 17 21 235 406 217 551 403 481 688 1369 1380 1364 1555 1848 1490 1390 1093 943 1006 1114 1044 1070 1052 1400 1266 1474
77 129 158 2 2 34 20 35 11 7 22 59 280 518 323 349 249 265 223 287 361 111 37 22 28 273 270 397 327 347 392 575 1170 1673 1576 1744 1519 1452 1236 1403 1258 1411 1114 1380 1289 752 993 1473 852
20 203 130 86 85 110 128 62 63 49 20 0 228 458 426 388 396 500 388 447 337 201 42 31 98 351 275 373 308 224 202 522 760 1354 1771 1674 1469 1282 1602 1279 1444 1730 1439 1455 1713 1015 1301 968 1034
12 145 127 163 158 107 148 165 138 87 25 0 214 443 484 486 504 484 414 463 385 274 86 30 110 512 447 456 166 202 145 212 284 964 1298 1115 1044 1387 1482 1647 1271 1442 1460 1528 1288 1400 1273 1301 1027
16 49 238 227 165 108 92 213 553 272 139 106 149 387 448 556 596 458 374 352 383 201 82 105 271 587 670 714 568 423 425 118 191 299 812 1161 1109 1219 1529 1447 1550 1155 1488 1230 1387 1377 1037 1273 959
31 51 136 223 162 121 123 109 96 360 306 414 162 328 365 480 499 435 357 275 238 233 157 229 405 621 801 839 985 897 509 308 70 123 543 877 1122 1432 1533 1404 1564 1530 1685 1467 1407 1141 1123 400 194
0 49 117 135 93 82 46 264 141 782 523 569 364 156 279 362 425 427 328 221 188 184 205 324 310 460 813 837 983 742 319 84 29 8 267 923 1303 1871 2048 1730 1559 1705 1493 1021 755 779 299 223 25
0 0 0 43 49 76 30 22 4 698 651 685 620 221 159 262 313 350 266 188 155 157 134 271 316 271 675 969 990 750 336 209 15 0 225 1081 1340 1484 2048 1568 1249 2080 1088 1212 957 565 1019 236 9
0 0 1 14 55 62 58 55 31 414 538 730 736 554 235 190 213 276 261 149 122 124 190 340 344 552 932 935 1086 594 221 195 19 0 310 991 1513 1844 2206 1473 1674 1814 1418 942 968 1034 516 204 4
0 0 0 19 57 81 92 122 115 289 412 549 830 811 511 273 134 159 160 98 66 82 177 412 584 839 862 735 657 384 130 120 5 0 427 949 1571 1934 1544 1533 1606 1275 1528 1125 1120 865 693 652 11
0 0 0 13 55 68 94 84 94 83 156 265 542 811 779 456 217 87 124 93 53 73 243 576 810 1216 1029 819 662 201 112 8 18 58 747 1315 1742 2036 2212 1996 1476 1040 1135 1442 906 817 814 21 0
0 0 0 4 28 78 26 26 44 46 21 178 327 704 791 721 384 104 125 66 26 88 348 639 1021 1213 1331 909 790 502 218 120 49 125 623 1211 1693 1861 2231 2010 1207 1717 1288 1297 1437 1055 727 511 0
0 0 0 0 9 51 2 23 4 24 4 26 285 578 751 827 650 265 97 117 68 48 262 733 1404 1585 1608 1582 718 448 125 0 2 111 438 912 1507 1688 1763 2088 1607 1437 1375 1453 1525 1065 1115 331 11
0 0 0 0 0 0 3 4 28 15 15 16 95 274 516 753 737 493 165 92 43 31 96 527 1515 1810 1689 1853 1151 649 457 0 42 138 570 985 1713 1685 1426 1636 1750 1665 1345 1289 1284 1623 1299 917 186
0 0 0 0 0 0 0 0 0 19 48 42 57 100 333 603 645 646 313 69 58 25 60 261 1226 1965 2339 2423 1789 1381 752 349 0 208 555 985 1145 1323 1761 1466 1846 1880 1713 1681 2063 1873 1790 1351 301
0 0 0 0 0 0 0 0 0 0 3 12 47 76 242 452 589 642 491 208 60 87 65 234 1128 2043 2533 2524 2287 1500 1612 1250 605 816 857 1098 772 751 1279 1958 2143 1706 2249 2112 1936 2443 1946 1790 1126
0 0 0 0 0 0 0 0 0 0 0 0 7 23 80 375 482 602 710 357 189 170 282 480 1165 2062 2583 2576 2560 2538 2017 1332 970 803 1228 1131 909 722 1075 2494 2028 1981 2046 1976 2362 2133 2053 1744 1611
0 0 0 0 0 0 0 0 0 0 0 0 0 0 17 155 383 562 703 692 349 372 647 916 1274 2031 2646 2518 2653 2746 2583 1951 1287 1019 1539 1301 1599 875 977 1205 1893 1983 2073 2265 2466 1998 2397 1784 1668
0 0 0 0 0 0 0 0 0 0 0 0 0 0 0 134 369 408 534 784 717 519 739 1080 1371 2156 2467 2542 2661 2791 2809 2600 1987 1800 1866 1744 1618 1806 1456 1408 1558 1949 2228 2359 2575 2087 2167 2287 1652
0 0 0 0 0 0 0 0 0 0 0 0 0 0 0 17 266 368 300 654 1001 846 719 1143 1586 1888 2493 2663 2638 2749 2749 2773 2760 2240 2270 2152 2632 2505 2005 2214 1847 1911 2159 2471 2829 2513 2103 2453 2235
0 0 0 0 0 0 0 0 0 0 0 0 0 0 0 0 0 38 214 622 810 1089 1033 1096 1277 1658 2391 2457 2540 2671 2705 2780 2661 2694 2300 2640 2489 2864 2964 2258 2597 2153 2120 2451 2726 2823 1843 2349 2443

GFSSGP_con_mlcape_057.txt.gz
CAPE
0 0 1 53 4 36 34 45 81 122 80 210 112 128 88 28 17 0 0 0 0 90 703 1063 1298 1344 1157 1165 1310 1303 1540 1328 1617 1515 1759 1831 1745 1940 1737 1741 1833 1725 1758 1680 1240 1310 1329 1273 1338
1 14 94 139 56 0 11 83 139 132 206 114 98 130 59 1 2 1 0 0 0 126 972 1340 1530 1143 922 972 1112 1406 1604 1485 1696 1624 1515 1422 1276 1312 1527 1762 1759 1618 1471 1438 1427 1388 1342 1311 963
18 91 95 128 50 12 16 76 109 116 203 239 222 90 95 3 5 0 0 0 5 176 807 1298 1657 1485 1121 1080 1459 1586 1740 1599 1390 1427 1544 1630 1589 1580 1316 1184 1341 1571 1593 1479 1358 1325 1333 1290 1153
57 159 103 107 14 27 20 44 216 255 343 207 114 33 0 0 0 0 0 0 75 644 865 1344 1440 1292 1277 1535 1428 1682 1568 1622 1572 1463 1637 1668 1665 1652 1718 1812 1405 1385 1361 1324 1304 1270 1232 1263 1120
321 158 30 22 0 34 77 151 193 219 310 224 96 0 0 0 0 0 0 4 415 652 858 1386 1513 1360 1346 1255 1498 1657 1480 1481 1486 1591 1663 1695 1674 1906 1559 1527 1517 1544 1492 1373 1290 1284 1266 1186 1053
463 5 6 0 1 26 58 138 285 363 326 188 36 5 27 0 0 0 5 134 456 638 983 1186 1279 1229 1318 1540 1465 1605 1505 1422 1554 1647 1598 1675 1781 1796 1770 1505 1400 1355 1364 1400 1409 1316 1299 1256 864
273 154 9 25 15 69 64 52 272 417 332 166 120 115 1 0 0 0 22 80 477 727 860 1062 1128 1053 1408 1654 1727 1418 1477 1410 1481 1514 1354 1326 1417 1541 1568 1589 1491 1420 1369 1280 1261 1233 1168 1099 976
351 239 56 19 90 148 55 37 422 512 348 137 122 69 1 5 0 0 47 217 278 696 715 711 880 1193 1557 1629 1609 1556 1470 1448 1466 1360 1277 1168 1281 1351 1362 1154 1261 1307 1391 1396 1268 1218 1215 1147 1045
346 219 16 115 131 128 11 70 175 383 405 368 284 102 0 0 1 74 110 104 217 337 291 510 1212 782 673 903 1183 1355 1393 1413 1298 1137 925 938 1031 1208 1153 1098 887 998 1179 1261 1209 1099 928 1049 883
378 16 16 59 87 11 27 8 264 476 527 243 147 146 12 50 73 169 242 111 0 40 326 254 1012 634 635 787 1077 934 979 1064 735 788 719 940 1179 1234 1548 944 830 1162 1039 1256 1079 904 1280 1103 1033
22 18 11 0 19 45 6 25 41 504 470 266 57 72 123 181 135 146 185 29 0 11 218 53 693 556 523 521 184 556 676 816 1053 224 289 808 1079 1255 1353 679 800 806 635 0 500 291 254 1081 1271
14 33 36 21 49 22 22 28 21 206 582 253 57 80 218 205 146 219 52 0 0 0 24 6 180 392 237 148 222 470 476 763 1144 896 562 729 886 985 795 1002 1309 944 687 386 653 384 774 774 972
0 23 6 19 33 70 70 17 21 728 627 443 199 181 277 228 144 152 85 15 1 0 0 0 43 321 212 64 170 363 348 467 1021 1225 1032 1148 696 579 1058 929 780 627 677 525 724 971 839 693 353
0 2 59 48 3 119 238 37 40 742 579 422 315 291 304 285 241 115 122 65 0 0 0 52 4 610 614 306 374 788 344 495 1120 1167 543 913 664 877 1008 1226 901 952 747 272 691 1086 799 820 542
0 0 51 96 76 95 176 58 31 42 504 430 410 356 276 332 270 202 172 60 259 17 110 81 34 294 186 358 502 627 492 72 585 1099 802 665 892 1236 1109 645 1208 1096 1005 813 1021 1311 909 349 320
0 0 5 22 63 99 86 47 0 16 36 460 495 428 385 307 270 211 137 128 266 154 332 191 121 89 98 226 450 660 566 327 3 814 619 449 724 1528 1035 785 837 901 1110 1082 987 840 207 101 111
0 0 0 1 31 99 107 7 0 0 42 300 474 568 422 396 401 337 158 186 114 123 156 312 312 200 173 137 471 544 604 714 406 213 445 301 577 1498 1184 696 667 728 826 539 627 428 405 832 610
0 0 1 0 1 76 68 9 0 1 136 200 159 244 498 427 394 431 456 421 49 142 91 31 358 337 340 231 561 408 402 750 181 296 444 594 881 1392 1278 893 411 503 873 796 1017 434 641 372 0
0 0 2 2 26 43 101 13 0 105 146 218 195 66 205 459 484 460 591 535 325 200 125 59 230 463 392 509 311 655 323 537 77 46 760 849 946 1199 1471 1199 814 668 845 997 793 275 312 95 0
0 0 0 0 0 62 184 100 33 19 26 41 94 202 132 225 234 391 250 246 226 172 9 202 138 598 449 688 427 811 821 308 177 19 103 1028 1329 1645 1638 1428 1091 1291 1075 1151 838 937 449 88 0
0 0 0 0 0 61 156 119 36 0 2 21 173 131 156 132 155 254 129 119 80 265 124 0 340 649 636 742 670 464 774 385 265 61 0 699 1042 1138 1593 1308 1131 1095 998 1096 742 710 360 93 0
0 0 0 0 11 59 17 55 60 17 13 0 88 232 104 103 116 215 135 144 165 211 319 63 342 564 811 844 837 543 207 386 374 67 21 38 1145 1565 1787 1601 1084 1236 1042 1123 680 869 282 200 0
0 0 0 0 0 2 43 43 42 70 0 7 63 318 17 147 80 153 166 169 146 216 328 273 194 620 910 885 696 695 447 317 105 280 24 160 680 733 1549 1741 1318 1131 1383 1128 915 1005 1122 855 5
0 0 0 0 0 0 0 25 25 43 16 79 171 398 286 262 135 126 239 160 158 328 440 466 287 484 733 885 836 448 493 342 255 43 42 195 852 1089 1246 2024 1584 1644 1388 979 1098 1151 923 569 918
0 0 0 0 0 0 0 6 0 24 33 140 389 554 316 340 255 151 261 178 220 310 460 615 507 446 884 727 553 1005 589 390 89 62 131 224 851 1400 1345 1429 1939 1682 1450 1277 1280 1352 1219 678 704
0 0 0 0 0 0 0 0 0 0 0 19 385 462 559 491 382 289 180 221 174 217 439 639 645 534 649 1031 725 430 995 1011 372 321 43 165 859 1144 1123 1358 1603 1749 1596 1268 1723 1244 1393 1386 407
0 0 0 0 0 0 0 0 0 0 0 0 14 450 553 557 566 439 233 190 154 210 344 582 767 676 708 771 1037 921 426 1193 1189 256 507 601 420 1041 1277 1404 1394 1780 1669 1362 1086 1855 1792 1883 1519
0 0 0 0 0 0 0 0 0 0 0 0 0 7 183 472 692 588 363 226 180 167 267 402 863 918 965 1013 1159 1220 1060 480 1169 1272 343 227 720 978 771 1553 1538 1548 1780 1693 1493 1411 2320 1826 1864
0 0 0 0 0 0 0 0 0 0 0 0 0 0 55 209 720 726 515 291 229 164 262 375 540 1101 1306 1421 1160 1524 1794 1456 753 1329 1424 392 188 734 2305 1991 1949 1674 1510 1910 2098 1620 1776 2191 2041
0 0 0 0 0 0 0 0 0 0 0 0 0 0 13 87 824 837 731 413 298 227 203 365 589 932 1215 1350 1656 1396 1780 2356 1798 1034 1069 1452 593 312 856 2174 2358 1919 1626 1684 1785 1910 1906 1674 1885

GFSSGP_con_mlcape_060.txt.gz
CAPE
0 0 0 76 2 22 28 36 80 145 104 16 2 7 8 2 0 0 0 0 0 65 664 1107 1349 1131 1192 1308 1292 1644 1559 1681 1534 1729 1673 1744 1771 1794 1877 1818 1744 1876 1342 1137 1315 1447 1421 1335 337
0 0 41 88 49 0 0 76 118 101 182 39 151 122 15 0 1 0 0 0 48 519 923 1172 1387 1187 1213 1129 1464 1463 1538 1576 1818 1751 1620 1552 1735 1765 1832 1880 1809 1780 1753 1520 1558 1453 1389 1205 756
3 35 98 97 2 1 3 0 118 268 170 199 103 79 19 0 1 0 0 3 276 679 1046 1271 1201 1229 1029 1034 1629 1615 1524 1651 1433 1438 1353 1308 1240 1173 1429 1773 1884 1740 1592 1567 1504 1423 1367 1334 1189
31 95 154 64 6 1 0 107 182 217 331 249 71 0 0 0 0 0 0 17 491 871 1283 1321 974 857 872 1352 1690 1685 1559 1480 1452 1740 1846 1678 1641 1605 1642 1414 1432 1476 1537 1526 1461 1378 1316 1241 1139
153 199 12 1 21 34 76 101 94 215 268 157 4 0 4 4 0 0 0 170 434 717 1303 1539 1256 1076 1452 1418 1751 1456 1724 1551 1575 1729 1744 1783 1899 1628 1614 1581 1581 1580 1512 1415 1339 1284 1206 1192 1061
320 4 0 1 2 24 5 52 112 328 266 37 0 0 1 0 0 0 14 393 558 759 1178 1395 1347 1593 1488 1528 1670 1610 1536 1559 1745 1726 1821 1877 1979 1753 1617 1641 1666 1681 1627 1619 1594 1493 1347 1034 893
109 80 4 2 5 33 60 72 158 344 284 75 31 0 0 0 0 0 165 557 519 890 1016 1275 1347 1177 1499 1542 1637 1594 1445 1581 1724 1642 1593 1663 1685 1774 1758 1598 1522 1484 1431 1420 1384 1359 1225 856 752
225 92 6 1 0 53 71 162 389 421 303 158 1 0 0 0 0 0 466 488 454 730 732 948 848 844 1509 1615 1544 1476 1461 1510 1617 1502 1290 1297 1416 1503 1415 1303 1544 1596 1541 1407 1278 1117 1178 1117 479
325 312 11 8 45 55 88 189 407 263 217 245 166 0 0 1 4 66 258 476 385 591 681 678 565 1138 1325 1501 1525 1506 1397 1357 1380 1243 1051 1155 1015 1082 1213 1062 1341 1345 1353 1242 1201 1119 998 928 543
222 191 164 60 35 38 60 172 406 296 334 267 110 0 0 11 26 63 194 432 304 297 448 365 607 720 892 1008 1128 962 1017 1123 1120 933 827 745 967 1022 1146 1046 1003 1331 1306 1496 1214 1296 1087 1066 607
77 149 94 62 74 111 48 144 481 356 345 275 104 0 5 14 93 103 154 364 188 93 147 478 437 243 172 288 624 456 562 526 639 657 492 662 1010 1199 1580 742 721 906 660 14 264 305 304 616 793
6 27 47 62 52 87 22 33 500 397 213 270 77 36 63 82 163 213 149 130 125 24 0 388 581 160 140 94 143 103 224 394 664 342 205 735 858 1067 1072 636 650 802 590 261 494 460 475 548 812
0 0 25 94 55 36 44 61 534 458 281 156 75 96 71 92 131 214 143 26 37 0 0 13 422 297 156 61 0 116 316 582 826 940 193 752 624 660 714 699 678 448 611 527 653 712 710 590 539
0 0 3 17 0 11 82 112 530 297 146 81 69 82 89 108 178 204 116 30 7 0 0 0 180 265 155 80 0 135 246 286 656 1045 888 761 52 476 641 649 508 630 610 371 737 805 660 611 556
0 0 0 21 2 68 41 162 477 272 120 73 83 84 154 158 218 196 85 32 0 0 0 0 63 224 146 156 10 192 442 213 459 964 1086 630 483 733 802 577 653 916 766 394 417 798 704 672 215
0 0 0 0 33 68 28 19 356 427 196 87 66 149 135 149 204 185 105 29 0 0 0 0 45 265 284 293 245 695 527 189 539 995 834 657 921 1020 654 800 1073 1015 1055 889 843 794 363 112 118
0 0 0 0 21 66 46 18 43 521 363 241 170 159 131 158 234 161 138 110 21 0 0 1 19 346 301 393 319 336 484 514 143 635 588 638 1246 1067 696 598 690 731 890 673 844 334 308 441 404
0 0 0 0 7 60 71 16 0 120 514 381 301 200 111 100 249 172 99 109 43 97 23 0 3 289 190 165 161 152 309 362 504 388 348 284 748 1042 759 588 447 436 751 533 724 348 613 226 6
0 0 0 0 41 111 41 8 0 0 49 395 437 356 228 113 117 145 79 34 0 17 166 7 4 25 24 32 89 33 182 274 317 77 289 346 530 1097 885 465 572 207 792 742 736 377 90 43 0
0 0 0 0 0 49 133 104 60 3 0 134 468 471 357 242 169 143 22 0 0 24 113 66 27 15 61 61 27 79 43 91 213 81 108 428 638 996 1120 874 728 516 775 808 796 571 301 1 0
0 0 0 0 0 7 35 37 26 0 0 88 147 243 269 308 270 241 192 136 61 40 6 22 88 61 118 182 53 43 129 4 199 116 0 429 740 1043 1373 1248 917 1047 1040 885 774 593 501 86 0
0 0 0 0 0 0 35 0 2 0 12 37 23 35 57 59 283 263 258 241 170 118 7 0 133 160 174 342 172 73 1 87 126 62 0 38 821 1284 1498 1185 982 992 980 865 847 627 320 58 0
0 0 0 0 0 0 1 1 22 39 6 5 29 39 50 44 68 257 261 311 328 206 18 74 164 228 253 406 310 207 151 179 303 110 45 4 292 1051 1330 1349 1227 880 929 832 766 680 494 317 1
0 0 0 0 0 0 0 0 0 0 0 0 0 15 28 98 47 74 95 209 184 188 103 24 190 289 341 433 432 327 218 90 109 179 126 28 29 521 1290 1470 1317 983 869 1046 837 788 817 881 533
0 0 0 0 0 0 0 0 0 0 0 0 0 0 9 150 45 50 55 0 32 189 217 31 145 295 443 409 470 424 339 223 29 89 26 81 44 300 537 1046 1290 1308 1064 1131 778 883 1035 793 695
0 0 0 0 0 0 0 0 0 0 17 6 5 2 9 153 76 22 55 59 20 85 193 162 78 204 409 447 398 462 404 391 244 101 91 0 33 334 478 838 1274 1472 1417 1306 1007 1014 1033 995 736
0 0 0 0 0 0 0 0 0 0 0 0 0 0 9 171 112 43 70 119 63 133 201 258 187 138 395 394 457 479 539 395 254 208 47 10 74 329 696 890 1227 1360 1571 1434 1270 1082 1171 1241 1112
0 0 0 0 0 0 0 0 0 0 0 0 0 6 118 267 292 179 105 181 124 126 225 325 324 213 207 489 410 328 411 706 805 306 181 186 71 170 757 1057 1063 1253 1329 1457 1333 1357 1401 1394 1446
0 0 0 0 0 0 0 0 0 0 0 0 0 82 258 417 419 319 185 180 150 116 257 384 471 369 339 396 603 567 433 254 444 1005 630 190 187 456 643 852 1238 1312 1539 1453 1399 1230 1258 1489 1639
0 0 0 0 0 0 0 0 0 0 0 0 0 5 228 465 461 433 330 177 179 150 225 375 526 607 462 467 482 638 771 742 396 292 964 932 491 147 257 1310 1572 1228 1346 1670 1479 1309 1381 1474 1574

GFSSGP_con_mlcape_063.txt.gz
CAPE
52 40 0 87 41 28 31 56 53 233 218 0 0 1 8 21 2 0 0 0 2 89 762 1397 974 1303 1391 1425 1611 1547 1566 1647 1779 1768 1857 1867 1884 1950 1891 1940 1850 1134 1159 1601 1604 1511 819 457 899
27 14 34 112 56 1 9 1 95 122 164 0 11 41 14 0 0 1 0 0 33 357 929 1311 1014 1271 1314 1570 1681 1734 1666 1901 2015 1810 1921 2071 1849 1829 1853 1934 1885 1792 1567 1676 1580 1463 1107 595 799
17 38 137 132 28 1 0 9 59 253 125 133 109 20 11 0 2 0 0 17 209 642 983 1305 1133 1210 1315 1603 1664 1557 1691 1519 1387 1241 1178 1212 1504 1882 1920 1828 1673 1701 1725 1643 1541 1504 1357 1064 819
41 47 191 87 52 2 16 119 241 275 222 123 5 0 0 0 0 0 17 262 386 752 1093 1561 1234 1178 1192 1628 1650 1623 1470 1422 1857 1769 1718 1772 1405 1288 1513 1663 1766 1749 1665 1556 1467 1443 1426 690 721
93 169 1 0 0 32 109 96 241 196 184 86 15 0 2 2 0 0 126 495 530 888 1137 1235 1240 1078 1310 1686 1699 1563 1497 1513 1909 1605 1870 1739 2033 1906 1574 1641 1641 1610 1489 1411 1375 1335 1204 1187 663
275 1 0 1 1 1 1 69 92 239 207 2 0 1 4 1 0 0 266 527 706 845 952 1025 1111 1298 1513 1789 1608 1774 1494 1662 1703 1725 1684 1831 1701 1750 1794 1825 1818 1760 1687 1646 1561 1314 963 831 910
331 40 1 0 0 18 75 86 66 280 149 23 0 0 2 0 0 71 357 562 823 1138 1103 1051 1137 1553 1557 1742 1691 1762 1539 1675 1740 1791 1832 1917 1874 1752 1694 1676 1677 1665 1644 1616 1509 1343 740 827 838
312 146 0 0 0 36 74 48 116 277 235 39 0 0 0 0 0 214 451 515 696 925 892 915 1290 1297 1512 1653 1608 1625 1537 1698 1600 1558 1539 1653 1702 1780 1728 1569 1745 1749 1698 1524 1440 1331 976 577 440
316 239 2 0 44 50 81 128 258 209 118 155 6 0 0 0 1 354 303 391 619 760 820 967 896 1184 1321 1460 1484 1440 1496 1530 1531 1431 1305 1331 959 1258 1367 1159 1646 1615 1586 1474 1347 1202 1012 854 568
240 117 57 68 89 54 147 230 340 185 138 64 0 0 0 0 62 284 283 201 380 447 650 682 522 729 1161 1327 1426 1124 1252 1282 1241 1119 1088 850 848 822 921 1055 1521 1691 1520 1370 1278 1044 1015 534 469
151 10 141 90 99 36 73 156 388 234 183 61 0 0 0 24 160 240 250 134 158 249 545 472 354 819 895 747 840 738 741 756 743 726 648 768 989 1079 1192 921 1047 888 972 29 392 255 395 743 736
0 19 205 128 48 88 79 218 411 381 262 158 0 0 24 39 139 180 226 124 81 131 264 235 326 413 321 220 293 210 224 417 534 565 341 469 767 915 1135 844 438 678 581 390 288 298 344 481 648
0 0 0 4 0 32 99 42 149 393 321 19 0 19 17 38 97 158 235 245 62 9 31 0 108 2 0 0 70 78 92 241 358 518 33 618 785 809 909 661 545 608 534 519 505 603 727 651 589
0 0 0 0 1 8 141 317 340 387 224 0 0 0 2 66 116 158 178 181 31 0 0 0 193 0 0 0 0 0 100 290 555 750 502 465 527 536 666 629 503 411 446 405 584 417 629 485 539
0 0 0 0 0 109 254 194 393 286 168 42 18 10 68 113 165 205 156 121 64 0 0 0 104 6 0 0 0 0 95 219 355 748 938 748 322 308 659 518 458 646 542 395 306 374 474 276 195
0 0 0 0 0 27 45 8 325 186 139 88 67 49 51 94 131 200 95 50 31 0 0 0 4 47 0 24 0 0 180 286 216 460 821 855 478 583 687 402 662 743 687 412 410 279 337 153 96
0 0 0 0 0 35 65 38 423 171 142 116 132 77 62 49 116 128 77 39 0 0 0 0 0 48 26 7 40 9 488 239 239 378 617 817 741 902 521 588 849 755 735 582 450 357 230 141 436
0 0 0 0 0 12 55 31 157 235 176 139 107 106 100 63 126 137 93 4 0 0 0 0 0 20 55 84 45 68 419 344 184 416 697 678 889 937 586 522 625 519 726 522 577 454 471 261 6
0 0 0 0 0 0 36 49 41 305 221 137 107 109 107 92 89 128 77 24 0 0 0 0 0 5 16 94 145 181 142 320 352 178 598 407 944 1030 663 338 407 235 556 464 480 415 204 7 0
0 0 0 0 0 12 50 34 15 172 273 310 169 137 129 103 70 39 79 71 32 0 0 0 0 0 12 157 222 81 0 84 200 172 124 345 408 942 824 460 523 122 576 718 610 524 102 26 0
0 0 0 0 0 111 67 54 4 2 148 333 295 208 147 73 63 42 14 57 18 1 1 0 0 0 7 133 53 75 12 2 96 114 47 188 425 748 983 826 534 487 555 723 607 571 298 63 0
0 0 0 0 0 0 9 0 0 0 25 0 83 361 252 139 85 0 87 35 25 0 0 39 0 0 0 18 24 1 0 0 3 26 47 27 445 619 900 1078 1051 813 901 917 668 660 348 77 0
0 0 0 0 0 0 10 0 0 0 0 0 1 152 371 253 200 97 1 24 0 0 0 0 3 9 0 13 3 0 0 0 0 0 21 0 207 635 892 1119 1125 858 861 874 738 747 445 159 0
0 0 0 0 0 0 0 0 0 0 0 0 0 25 90 195 241 230 138 54 16 8 0 0 0 41 25 27 32 13 1 0 0 0 0 1 0 308 781 1182 1186 1029 868 843 719 688 632 243 294
0 0 0 0 0 0 0 0 0 0 0 0 0 30 73 62 88 133 228 144 116 111 53 8 0 38 89 100 83 52 12 0 3 0 0 0 1 35 343 1037 1071 1158 1049 819 784 752 696 613 682
0 0 0 0 0 0 0 0 0 0 0 0 3 17 52 64 47 86 124 232 163 182 137 35 21 31 84 128 124 115 58 19 13 9 5 24 41 93 62 364 1162 1193 1126 1083 900 880 642 836 768
0 0 0 0 0 0 0 0 0 0 0 0 0 0 0 7 30 70 113 106 129 231 242 90 81 73 84 103 134 165 131 94 35 19 20 0 10 89 173 199 413 799 1017 1252 1182 1136 748 920 820
0 0 0 0 0 0 0 0 0 0 0 0 0 1 0 0 27 50 46 84 37 136 202 131 33 119 181 182 159 141 148 121 147 57 40 5 5 35 134 155 464 718 917 1159 1341 1330 1097 872 988
0 0 0 0 0 0 0 0 0 0 0 0 0 0 2 7 24 33 48 48 68 41 114 205 95 12 108 264 239 196 213 236 214 165 106 135 37 5 12 218 438 869 1073 1155 1189 1266 1368 1133 1073
0 0 0 0 0 0 0 0 0 0 0 0 0 0 0 0 47 71 36 44 67 60 104 187 181 89 40 127 189 209 235 283 389 446 179 105 70 89 135 64 325 703 1076 1245 1234 1184 1227 1323 1225

GFSSGP_con_mlcape_066.txt.gz
CAPE
43 57 24 50 20 8 36 81 44 165 28 0 0 3 5 20 10 0 0 0 3 255 665 876 1095 1136 1259 1707 1481 1724 1730 1792 1843 1915 1894 1715 1691 1620 1608 1662 1344 1149 1763 1495 1387 630 652 852 1059
32 35 36 120 6 0 11 8 77 154 57 0 20 19 18 0 0 0 0 0 21 455 1005 886 1247 1165 1463 1587 1594 1577 1786 1847 1931 1855 1908 1597 1982 1944 1961 1973 1287 1581 1704 1635 1341 981 601 753 925
17 36 103 98 51 0 1 5 63 96 0 0 7 8 1 0 0 0 0 38 123 594 1080 879 1251 1235 1656 1730 1648 1953 1923 1827 1638 1708 1865 1964 1852 1983 1994 1948 1904 1813 1681 1655 1476 1283 1246 1074 1219
25 48 117 52 24 43 29 100 276 204 151 27 0 4 0 1 0 0 10 140 212 634 1075 1126 1155 1230 1339 1384 1710 1518 1288 1476 1275 1382 1263 1390 1900 1824 1959 1909 1867 1797 1679 1638 1549 1377 890 863 663
30 217 18 0 1 40 68 161 299 225 177 19 0 0 2 5 0 0 134 255 341 681 1110 1144 1144 1091 1477 1405 1523 1353 1562 1781 1825 1730 1677 1743 1706 1650 1731 1813 1805 1726 1480 1518 1463 1382 1169 734 766
241 22 2 2 27 30 55 88 271 239 110 0 0 0 4 0 0 50 276 287 596 722 1172 1117 1122 1103 1530 1649 1451 1432 1569 1644 1690 1837 1859 1824 1816 1806 1877 1894 1852 1764 1751 1521 1436 1369 1150 935 765
444 34 14 1 11 31 53 133 193 252 131 1 0 1 2 1 0 206 389 575 829 979 973 958 953 1155 1512 1542 1837 1459 1640 1750 1779 1795 2067 1833 1824 1904 1917 1893 1856 1819 1448 1521 1456 1142 1082 823 836
353 152 2 0 10 33 90 95 121 289 143 0 0 0 0 1 24 285 482 635 656 534 591 663 844 1218 1483 1385 1864 1468 1757 1658 1610 1616 1808 1840 1807 1818 1773 1559 1788 1599 1624 1476 1192 1279 885 620 894
312 145 10 0 27 51 54 219 182 211 47 13 0 0 0 0 97 189 249 409 554 636 570 536 1003 1112 1349 1348 1596 1449 1662 1651 1603 1505 1595 1480 1267 1308 1342 1319 1588 1368 1570 1428 849 933 976 704 961
132 117 9 1 67 19 148 351 230 220 121 5 0 0 0 0 47 72 91 93 318 492 332 774 863 983 1229 1309 1355 1165 1412 1386 1246 1165 1180 791 719 764 921 1171 1346 1186 915 1063 906 920 1130 523 819
122 0 59 87 177 54 308 329 313 225 146 6 0 0 0 12 43 44 51 51 163 369 449 644 667 875 1081 1101 1149 827 966 945 907 887 794 711 898 959 1001 890 1019 992 550 50 468 183 600 546 610
0 2 138 130 125 42 51 191 328 288 224 94 0 0 0 27 49 58 29 66 167 258 432 520 465 422 807 796 721 409 410 561 545 624 512 575 710 864 827 711 377 622 534 400 236 232 393 520 726
0 0 0 9 16 8 63 134 275 298 226 7 0 0 0 25 80 152 94 87 174 75 164 313 184 304 498 311 263 175 190 350 448 538 295 428 637 663 870 783 306 563 526 463 420 502 666 657 661
0 0 0 0 0 0 0 65 168 299 12 0 0 0 8 35 106 168 127 56 30 18 0 103 15 169 209 0 0 8 74 185 262 393 375 166 627 571 647 623 437 368 368 379 368 423 529 532 535
0 0 0 0 0 7 94 146 258 150 0 0 0 0 3 56 119 110 145 62 0 0 0 0 0 0 0 0 0 1 0 100 313 508 707 614 526 305 570 487 482 433 504 373 211 359 425 259 111
0 0 0 0 0 44 98 19 286 94 0 0 0 5 29 51 72 99 157 75 0 0 0 0 0 0 0 0 0 0 0 75 175 288 557 798 741 299 426 463 345 440 631 293 155 246 154 142 95
0 0 0 0 0 16 46 32 141 134 17 0 0 0 30 48 87 119 66 44 29 0 0 0 0 0 0 0 0 0 0 28 144 231 325 589 752 473 621 434 550 697 576 390 224 286 182 118 315
0 0 0 0 0 0 38 50 120 149 115 20 3 15 21 41 86 137 58 2 5 0 0 0 0 0 0 0 0 0 7 242 85 206 331 396 711 699 696 494 608 554 610 312 440 200 342 121 5
0 0 0 0 0 0 0 0 88 145 118 75 59 57 45 18 55 93 100 19 0 0 0 0 0 0 0 0 0 0 3 309 135 147 357 530 646 701 653 389 426 371 460 371 390 337 202 21 0
0 0 0 0 0 0 0 0 60 99 104 114 88 75 64 32 3 67 39 1 0 0 0 0 0 0 0 0 29 16 0 165 253 60 206 510 536 813 759 505 268 91 447 337 400 305 127 29 0
0 0 0 0 0 14 52 21 0 72 107 83 48 55 45 56 8 28 39 0 0 0 0 0 0 0 0 0 7 49 5 20 126 113 20 272 352 570 741 709 485 348 224 475 447 490 201 68 0
0 0 0 0 0 3 52 0 0 16 43 99 100 56 41 58 42 0 5 33 14 0 0 0 0 0 0 0 0 76 53 29 1 53 44 13 169 331 579 803 760 614 547 544 418 502 421 113 43
0 0 0 0 0 0 0 0 0 0 0 11 147 215 105 66 61 24 0 0 44 12 0 0 0 0 0 0 0 0 46 0 0 0 12 11 53 213 441 747 867 999 798 778 619 633 567 152 1
0 0 0 0 0 0 0 0 0 0 0 0 8 103 231 169 93 64 0 0 0 21 0 0 0 0 0 0 0 0 0 0 0 0 0 0 0 92 292 666 795 994 949 801 810 686 644 369 125
0 0 0 0 0 0 0 0 0 0 0 0 0 4 23 200 174 100 24 0 0 0 0 0 0 0 0 0 0 0 0 0 0 0 0 0 0 0 52 355 666 875 998 927 733 667 658 705 348
0 0 0 0 0 0 0 0 0 0 0 0 0 0 4 49 250 181 108 47 0 0 0 0 0 0 0 0 0 0 0 0 0 0 0 0 0 0 0 40 295 723 950 980 878 724 723 674 685
0 0 0 0 0 0 0 0 0 0 0 0 0 0 0 11 66 179 236 135 47 0 0 1 0 0 0 0 1 8 0 0 0 0 0 0 0 0 0 45 82 238 571 899 1023 1013 914 854 660
0 0 0 0 0 0 0 0 0 0 0 0 0 0 0 8 26 60 96 179 132 53 26 15 0 0 0 0 0 15 31 0 0 0 0 0 0 0 7 95 174 205 346 618 856 972 1108 1101 1001
0 0 0 0 0 0 0 0 0 0 0 0 0 0 0 0 16 50 54 63 94 117 52 63 16 4 2 13 4 8 43 37 22 3 0 0 0 0 0 22 75 134 272 508 680 867 1095 1253 1312
0 0 0 0 0 0 0 0 0 0 0 0 0 0 0 2 0 15 63 76 62 43 78 127 58 51 52 91 76 70 66 89 59 45 19 0 0 0 0 1 70 148 287 512 794 957 1100 1161 1278

GFSSGP_con_mlcape_069.txt.gz
CAPE
3 16 31 60 44 6 47 82 87 102 22 0 3 7 21 28 19 3 3 14 124 205 627 803 1175 1286 1712 1521 1776 1979 1626 1651 1911 2140 2014 1732 1879 1774 1988 1583 1159 1790 1595 1362 725 921 1010 1321 1035
23 29 21 120 41 24 39 26 155 99 27 0 20 40 48 8 0 0 6 80 137 274 762 831 1115 1524 1487 1624 1590 1661 1678 1817 1917 1879 1800 1804 1673 1721 1554 1214 1562 1693 1731 1153 871 701 897 1027 1505
19 65 112 92 143 38 13 37 91 19 0 10 22 30 32 5 0 0 3 139 163 420 697 1145 1106 1532 1621 1532 1714 1801 1829 1809 1637 1736 1623 1866 1634 1458 1640 1575 1851 1799 1679 1398 1395 1213 946 1161 1453
30 57 57 119 80 93 77 160 411 67 1 46 41 10 0 0 1 0 29 143 196 292 621 1231 1216 1729 1751 1544 1637 1648 1378 1244 1258 1412 1645 1747 1815 1707 1807 1843 1868 1670 1611 1441 1324 1166 1175 1025 1012
31 124 31 7 25 59 61 234 377 160 205 35 0 0 2 1 0 0 43 126 228 157 469 892 1313 1248 1164 1610 1318 1394 1785 1575 1673 1673 1438 1597 1718 1730 1879 1869 1788 1649 1127 1511 1434 1129 961 1068 1157
132 21 6 4 30 45 108 153 368 417 127 3 0 0 2 11 4 49 56 78 252 267 352 606 1189 1428 1319 1291 1306 1599 1714 1733 1714 1834 1559 1818 1738 1797 1815 1763 1703 1610 1492 1405 1481 1361 1015 1018 1089
323 40 34 30 40 59 51 117 336 439 153 67 0 0 4 11 16 164 128 138 227 496 457 619 595 1362 1713 1396 1325 1457 1665 1789 1628 1737 1751 1472 1514 1729 1792 1925 1803 1666 1523 1342 1372 1293 1026 623 1021
420 243 30 13 15 50 166 116 167 415 169 0 0 0 1 15 90 138 278 338 353 644 724 730 733 919 1564 1470 1292 1572 1594 1746 1599 1616 1453 1557 1752 1792 1626 1352 1479 1600 1455 1464 1364 1232 1052 1040 1347
450 161 18 1 50 92 119 257 270 146 5 2 0 0 0 8 141 145 297 498 797 912 494 361 597 993 1357 1482 1184 1496 1538 1514 1521 1459 1664 1389 1608 1628 1386 1191 1119 1305 1238 1107 1211 1122 962 1083 1137
225 69 37 0 89 31 171 390 365 294 58 2 0 0 0 12 92 63 110 190 257 273 221 123 541 764 1093 1003 1314 1323 1201 1101 1254 1360 1439 1099 1220 1330 1147 1066 1024 997 1202 1350 1261 1347 1156 1082 1198
52 29 123 134 189 49 347 515 396 365 224 83 5 0 0 14 43 31 37 50 19 0 18 159 891 916 999 806 1131 1039 1084 1059 1177 1422 1383 1329 1402 1490 1277 1149 1140 1020 464 656 833 814 1061 1091 1308
0 32 225 134 190 76 195 432 409 404 365 214 2 0 0 8 23 27 7 62 89 163 47 517 896 934 1120 929 878 808 821 961 1062 1196 1122 1286 1411 1496 1423 877 1112 1154 1381 886 955 910 1154 1360 1583
0 0 0 51 38 1 7 242 320 372 317 58 0 0 0 0 6 12 1 0 149 253 148 527 756 747 1036 995 889 616 700 747 948 1117 978 936 1284 1333 1618 936 1025 1331 1288 1145 1212 1286 1121 1359 1399
0 0 0 0 0 0 0 68 380 295 78 17 0 0 0 3 0 9 19 0 50 207 185 444 578 490 888 692 537 470 576 741 873 1073 941 791 1346 1365 1385 1056 1210 1125 1199 1101 1087 1299 1205 1342 1330
0 0 0 0 0 0 11 140 238 130 84 34 0 0 0 34 3 2 41 32 111 158 215 350 331 300 564 434 190 321 346 403 614 854 1121 1121 1087 1018 1266 887 600 1335 1143 1081 973 1143 1016 783 590
0 0 0 0 0 0 79 127 397 86 77 43 0 0 0 34 31 93 19 30 137 97 182 288 17 61 311 158 19 78 165 314 629 934 1202 1389 1398 1171 874 1082 889 1285 1359 931 793 536 918 663 711
0 0 0 0 0 0 206 130 350 62 102 63 0 1 12 29 63 79 118 62 57 101 122 104 0 0 0 5 0 0 93 225 504 620 780 1004 1396 1205 1181 1166 1196 731 1261 1185 994 866 765 751 1090
0 0 0 0 0 0 108 141 263 108 99 156 54 1 2 12 49 90 135 127 84 69 85 32 16 0 6 0 27 16 67 192 462 738 903 1019 1211 1365 1356 1118 1120 742 632 1033 1008 772 841 402 58
0 0 0 0 0 0 0 104 214 269 87 104 133 54 49 3 37 66 104 142 112 96 11 0 0 4 45 0 0 84 136 426 880 523 789 891 1107 1389 1405 1173 1191 1196 1183 1215 1235 826 699 24 17
0 0 0 0 0 0 0 0 89 251 197 183 78 57 55 30 50 115 135 123 108 109 33 0 0 0 24 0 52 297 392 463 991 667 835 952 1226 1359 1431 1162 920 796 938 551 696 907 670 361 0
0 0 0 0 0 0 0 0 1 181 378 313 174 82 40 39 54 93 145 146 96 74 73 0 0 0 0 21 165 227 290 267 504 642 521 678 1091 1256 1437 1366 775 820 914 654 607 629 827 341 0
0 0 0 0 0 0 0 0 1 98 118 225 298 239 179 85 62 76 91 142 141 98 111 41 6 0 0 0 40 115 165 167 314 651 638 593 850 947 1190 1382 1310 1196 916 616 765 873 1037 734 442
0 0 0 0 0 0 0 0 0 4 95 136 308 302 266 211 136 93 121 101 106 66 55 36 30 7 0 0 32 185 369 393 421 423 529 485 539 674 862 1215 1426 995 1281 1061 1187 955 838 1029 647
0 0 0 0 0 0 0 0 0 0 0 17 298 347 275 239 201 178 112 92 70 40 0 0 14 0 11 19 9 45 164 340 219 197 213 436 529 676 714 1052 1304 1489 1247 1412 1177 1019 1031 1128 819
0 0 0 0 0 0 0 0 0 0 0 0 26 254 378 265 217 221 175 77 91 83 48 47 30 34 12 40 42 53 101 227 155 236 192 161 194 366 605 680 949 1139 1398 1421 1536 1454 1386 1232 1295
0 0 0 0 0 0 0 0 0 0 0 0 36 88 156 378 306 308 286 205 137 140 149 105 112 90 25 33 70 80 132 176 146 235 226 172 105 91 399 489 645 955 1365 1574 1729 1645 1559 1563 1548
0 0 0 0 0 0 0 0 0 0 0 0 0 0 19 47 380 396 374 304 222 176 149 112 161 164 117 58 97 94 89 86 151 223 236 206 236 58 52 175 369 573 881 1260 1685 1600 1667 1656 1607
0 0 0 0 0 0 0 0 0 0 0 0 0 0 0 8 47 309 407 366 320 249 171 129 100 159 199 134 142 203 227 248 234 268 202 219 249 193 86 82 200 453 667 892 1211 1416 1748 1757 1858
0 0 0 0 0 0 0 0 0 0 0 0 0 0 0 1 26 125 473 485 404 245 212 177 86 129 177 169 195 210 308 333 313 249 284 311 271 288 299 276 265 550 690 888 1052 1107 1355 1718 1810
0 0 0 0 0 0 0 0 0 0 0 0 0 0 0 33 33 106 356 506 471 416 272 197 142 119 140 196 241 242 327 370 346 317 331 343 318 305 304 337 222 303 505 742 921 889 1248 1606 1655

GFSSGP_con_mlcape_072.txt.gz
CAPE
1 8 94 221 97 29 161 143 185 252 32 30 2 9 31 105 151 310 140 329 311 374 606 876 1386 1587 1621 1775 1857 1780 1969 2118 1797 1626 1669 1920 2073 1993 1829 1409 1572 1800 1427 842 1040 1182 1385 1159 1193
17 126 85 74 265 112 45 27 199 216 33 14 23 32 24 63 10 97 183 343 484 620 725 670 1536 1621 1724 1938 1829 1779 1827 2138 2017 2027 1845 2034 1769 1944 1502 1393 1867 1857 1296 1006 871 1025 1280 1656 1285
113 72 68 150 236 249 97 266 341 257 16 15 171 140 222 178 41 68 225 305 585 501 514 722 1627 1557 1751 1646 1764 1811 1777 2024 1877 1758 1351 1417 1454 1561 1352 1721 1370 1767 1539 1573 1257 978 1247 1533 1598
172 190 298 157 219 237 139 368 129 88 53 17 135 190 32 18 48 91 280 342 624 511 406 888 1624 1778 1562 1951 1824 1842 1879 1826 1852 1554 1478 1412 1483 1622 1804 1896 1669 1677 1486 1459 1385 1364 1262 1150 1015
208 298 139 235 79 177 198 550 569 71 170 227 182 106 11 8 9 163 355 361 372 200 426 682 1751 1867 1668 1716 1386 1209 1151 1341 1344 1590 1549 1654 1659 1693 1791 1757 1671 1315 1614 1524 1275 1181 1280 1342 1237
364 329 193 92 15 245 510 659 845 732 545 243 213 126 3 9 22 155 313 260 15 120 148 510 1126 1151 1778 1196 1534 1639 1858 1827 1699 1797 1708 1676 1698 1706 1634 1686 1583 1335 1387 1540 1434 1302 1212 1175 1120
333 337 252 115 32 287 371 552 763 737 560 387 343 389 3 7 41 101 172 46 0 18 105 402 943 1200 1234 1262 1548 1444 1644 1793 1655 1606 1703 1636 1593 1654 1789 1767 1641 1523 1505 1511 1423 1188 949 1111 1202
505 565 305 121 95 430 425 416 697 917 647 396 223 221 14 13 11 54 12 2 3 13 143 213 748 1200 733 752 1548 1707 1578 1584 1841 1744 1531 1761 1732 1444 1323 1088 1641 1620 1455 1372 1283 1097 1049 1161 1293
351 545 233 228 185 484 280 393 326 708 416 192 92 77 52 25 64 66 11 4 13 32 72 139 422 1259 826 714 1373 1346 1664 1642 1558 1458 1209 1544 1305 1291 1305 926 1444 1536 1370 1380 1245 1031 1120 1286 1085
49 268 295 188 371 375 386 720 799 545 306 206 94 14 74 125 93 90 24 3 29 42 29 16 204 848 703 697 817 961 822 881 1099 1270 1440 1173 1341 1335 1063 921 1221 1360 1406 1307 1258 1163 852 1198 1025
0 55 228 305 370 100 597 784 780 686 542 387 138 25 115 174 173 78 42 51 44 32 1 0 266 629 506 864 701 829 819 893 1236 1382 1328 1191 1220 1194 1087 1054 872 913 945 969 901 905 1102 1159 1116
0 0 413 422 340 130 637 731 660 718 756 597 185 61 85 169 144 100 79 77 42 0 0 0 389 589 559 689 569 599 614 666 687 1102 1561 1468 1197 1476 1166 1075 1031 1435 1349 1009 1197 1172 1509 1428 1366
0 0 8 199 354 136 163 458 580 630 692 454 204 51 74 134 70 27 33 37 0 0 0 89 428 643 691 779 524 432 605 708 759 1070 1305 1329 1550 1327 1223 1353 1438 1417 1352 1234 1287 1310 1303 1369 1293
0 0 0 0 12 33 115 289 445 696 524 397 194 75 81 118 42 5 0 30 0 0 0 160 379 587 729 640 813 693 946 1058 950 1134 1268 1696 1683 1217 1246 1219 1457 1363 1308 1175 1341 1104 1314 1096 1107
0 0 0 0 0 0 16 90 424 694 480 435 277 129 81 75 61 2 18 37 0 0 0 96 264 359 704 626 762 626 872 951 1056 1279 1656 1491 1679 1460 1174 1148 1311 1281 1333 1643 1216 999 1417 551 770
0 0 0 0 0 0 106 282 533 561 515 505 355 168 114 101 80 40 27 2 0 0 0 78 0 0 475 452 370 519 676 714 853 1010 1296 1776 1753 1454 1047 987 1179 1461 1362 1089 952 807 708 330 505
0 0 0 0 0 30 156 356 986 551 592 553 409 217 156 119 99 78 35 0 0 8 50 18 0 0 217 386 218 352 515 710 901 1020 1156 1629 1886 1837 1587 1035 887 1105 1142 549 340 503 645 325 218
0 0 0 0 0 48 278 429 721 602 608 591 485 280 167 157 126 143 86 1 0 36 79 25 0 0 86 80 122 163 361 605 819 909 976 1557 1724 1892 1663 980 1121 1004 545 583 689 526 688 332 105
0 0 0 0 10 20 78 365 664 522 564 589 566 400 174 199 209 226 170 42 0 10 50 17 0 0 22 0 0 134 284 490 830 1117 1406 1749 1763 1882 1889 1314 1075 1035 797 1019 624 1029 807 116 297
0 0 0 0 0 0 34 103 284 711 497 601 653 551 212 205 224 235 224 164 0 0 34 24 0 7 137 0 0 35 247 517 789 982 1345 1558 1718 1933 1644 1612 1298 838 760 879 822 1047 555 192 113
0 0 0 0 0 0 11 61 49 140 527 372 548 619 352 170 249 234 266 239 131 2 64 61 29 16 107 0 0 411 663 855 983 979 959 1203 1575 1780 1741 1230 1317 1355 869 839 1072 1026 1026 153 193
0 0 0 0 0 0 0 14 29 12 312 371 418 494 472 265 207 312 251 289 252 81 84 116 142 51 33 81 68 455 306 178 108 411 534 677 1338 1456 1615 1518 1187 1400 1252 919 946 964 1075 1026 51
0 0 0 0 0 0 43 48 49 66 146 309 462 463 421 372 257 215 370 370 326 290 109 184 224 161 18 151 97 410 423 0 77 176 680 1124 1282 1498 1349 1652 1655 1660 1316 1190 1126 907 1132 1040 622
0 0 0 0 0 0 0 0 1 58 109 336 404 482 507 467 376 351 286 351 439 316 169 94 249 374 251 84 57 144 205 117 239 366 309 479 622 843 1241 1385 1739 1499 1140 1392 1424 1486 1210 1458 1088
0 0 0 0 0 0 0 0 0 13 51 101 258 488 538 543 560 483 391 308 350 424 321 188 394 710 541 386 91 87 381 731 884 890 573 290 201 271 439 1459 1566 1452 1642 1521 1532 1627 1609 1163 1455
0 0 0 0 0 0 0 0 0 0 0 1 1 75 247 420 533 603 562 460 364 413 410 331 538 786 611 557 524 497 651 479 648 781 484 475 253 142 212 942 1237 1409 1373 1709 1857 1728 1411 1650 1346
0 0 0 0 0 0 0 0 0 0 0 0 0 0 55 254 371 481 596 582 508 440 481 499 660 963 866 473 928 917 835 633 359 709 791 650 614 432 513 560 869 877 1135 1427 1778 1625 1887 1945 2059
0 0 0 0 0 0 0 0 0 0 0 0 0 0 0 2 153 337 476 597 611 554 501 483 679 951 861 644 760 742 830 872 739 668 819 884 688 752 571 608 447 607 1059 1280 1640 1244 1603 2157 1966
0 0 0 0 0 0 0 0 0 0 0 0 0 0 0 0 0 138 419 591 687 663 651 642 611 759 819 812 838 872 783 809 874 642 845 1148 1174 1025 1186 827 755 471 843 1285 1635 1529 1247 1671 2202
0 1 0 7 0 0 0 0 0 0 0 0 0 0 0 0 0 24 303 676 740 773 719 745 700 649 797 898 1120 962 989 973 784 966 908 1082 1263 1367 1355 1240 1137 866 753 1207 1640 1634 1089 1658 2025

GFSSGP_con_mlcape_075.txt.gz
CAPE
0 0 73 264 198 420 414 394 354 131 134 64 24 38 221 230 536 494 308 305 447 418 378 541 1544 1626 1481 1598 1884 1839 1497 1676 1793 1818 1774 1923 1890 2107 1621 1427 2040 1647 888 1019 1249 1367 1281 1338 1452
11 61 302 197 364 188 196 210 356 141 91 41 28 77 232 283 294 298 356 339 395 451 546 673 1544 1687 1867 2097 1735 1941 2139 2134 1939 1862 1862 1938 2070 1807 1192 1932 1919 1384 1058 871 1010 1456 1604 1286 1798
150 185 344 423 588 113 209 359 398 171 86 252 309 146 449 262 199 381 298 379 483 523 738 1020 1506 1694 1902 1743 2009 2100 2166 2081 1885 1691 1608 1685 1901 1246 1776 1514 1803 1637 1702 1030 931 1220 1563 1568 1663
222 399 465 535 297 236 395 617 383 93 21 269 217 356 217 390 252 274 428 444 361 507 445 1494 1560 1707 1679 1896 1814 1726 1942 1655 1593 1568 1540 1715 1652 1630 1837 1759 1807 1581 1585 1447 1394 1385 1071 1102 1009
185 402 334 543 360 281 547 290 312 162 128 190 447 487 230 91 223 248 480 531 492 226 313 855 1611 1611 1933 1842 1706 1621 1470 1620 1579 1711 1649 1731 1749 1766 1875 1726 1535 1640 1574 1374 1321 1081 1128 1261 1292
202 450 297 90 287 354 606 700 373 291 433 301 466 388 254 92 205 176 526 570 172 102 135 812 1273 1797 1562 1256 1264 1256 1560 1395 1717 1687 1598 1656 1680 1515 1756 1599 1375 1396 1572 1470 1362 1287 1272 1330 1277
375 456 388 239 165 470 640 843 510 630 500 418 542 654 290 81 168 211 392 132 155 8 140 604 910 1487 1202 1693 1561 1757 1803 1735 1731 1754 1620 1662 1667 1850 1855 1779 1660 1564 1498 1405 1269 1091 1166 1244 1203
303 422 281 56 325 261 228 883 655 475 531 579 736 690 238 196 207 225 225 37 48 31 174 482 571 545 521 1307 1483 1647 1720 1675 1772 1711 1670 1584 1509 1489 1607 1269 1617 1491 1495 1346 1222 1064 1229 1217 1233
3 79 388 203 336 344 411 364 517 355 715 628 589 654 306 164 167 149 52 25 22 20 147 405 581 426 477 941 1463 1549 1708 1741 1611 1414 1582 1328 1024 1473 1597 1065 1577 1476 1378 1290 1139 981 1164 1138 910
1 9 235 105 154 215 318 264 465 505 483 526 373 367 178 106 102 76 16 11 10 15 81 161 576 534 483 758 1357 1234 1174 1190 1271 1094 1795 1502 1582 1321 964 1040 1457 1398 1328 1130 874 776 868 731 677
0 3 115 364 298 457 580 476 694 283 137 348 355 346 130 144 100 46 10 2 4 4 41 66 372 212 713 434 1055 469 1173 977 1300 1252 1557 804 823 826 952 977 1063 1118 1299 906 807 775 915 1081 958
0 0 0 290 345 98 647 611 419 535 146 419 288 291 157 145 138 25 6 5 4 4 15 25 332 341 772 346 518 591 535 827 784 1040 1268 1121 1466 1191 989 1030 1205 1204 1330 1310 1245 1067 1087 1037 1007
0 0 0 519 584 409 474 569 335 561 416 325 343 308 200 172 210 61 16 3 2 4 7 96 276 535 808 712 550 469 441 427 888 977 1209 1015 1279 1351 1262 1473 1204 1336 1004 1248 1189 969 1145 816 774
0 0 0 67 272 360 162 440 329 655 556 456 315 319 247 233 249 122 54 28 3 0 2 159 319 581 719 893 688 611 432 1047 461 741 1221 1765 1385 1516 1417 1359 1392 980 955 1045 1250 1227 472 714 861
0 0 0 0 9 79 201 264 381 677 583 571 387 330 301 298 254 221 93 88 0 0 0 172 296 458 736 978 722 684 972 432 973 1385 1621 1490 1410 1741 1453 1286 1346 1180 1322 1511 1162 1213 1214 801 274
0 0 0 0 0 1 57 211 302 810 627 663 521 307 341 310 259 219 110 101 0 0 0 175 88 256 600 682 729 676 636 748 887 1213 1395 1611 1437 1635 1590 1301 1347 1343 1300 964 877 798 292 701 156
0 0 0 0 0 0 13 250 543 621 705 778 595 306 381 284 272 185 137 117 0 0 0 87 34 27 427 709 535 774 903 930 810 1070 1156 1506 1694 1332 1668 1330 1359 1561 993 696 533 667 285 610 277
0 0 0 0 0 0 64 242 135 552 674 829 658 408 365 375 368 192 120 112 0 0 20 58 50 19 362 657 508 675 708 709 872 716 1479 1429 1518 1676 1798 1385 1497 1172 631 542 716 927 329 73 216
0 0 0 0 7 1 36 186 83 451 588 716 713 604 363 459 410 297 194 102 0 0 44 41 104 195 300 390 211 363 297 577 593 562 1225 1430 1540 1505 1408 1245 1562 1135 756 718 837 728 315 43 37
0 0 0 0 0 26 61 66 367 540 525 588 647 714 407 467 361 391 250 146 22 0 48 99 165 288 283 158 115 205 350 325 484 566 1051 1388 1404 1776 1305 1456 1065 965 1075 1252 908 1182 385 78 58
0 0 0 0 0 1 48 77 277 539 636 633 680 739 484 307 476 405 363 259 107 0 60 162 253 384 331 23 102 176 425 612 504 998 973 1253 1333 1541 1765 1756 942 1324 1370 1112 1169 1038 1020 504 0
0 0 0 0 0 0 7 39 73 478 262 473 525 793 592 114 475 498 501 370 217 9 52 202 241 439 439 260 0 230 314 218 308 533 401 1054 1113 1264 1592 1377 1632 1678 845 1314 1332 1117 1605 1057 17
0 0 0 0 0 0 1 0 7 64 143 368 439 584 685 380 292 463 518 438 366 111 33 100 400 476 300 327 42 172 379 142 202 122 1025 1080 1274 1214 1056 1447 1492 1651 1428 1456 1478 1623 1694 595 748
0 0 0 0 0 0 0 0 1 11 30 228 417 480 555 633 367 446 504 497 475 393 92 134 518 631 545 567 229 536 270 270 2 90 695 669 969 1160 1251 1233 1544 1626 1513 1557 1598 1529 1608 1716 1198
0 0 0 0 0 0 0 0 23 39 68 93 358 492 535 551 567 461 496 491 534 517 414 240 591 946 812 683 301 748 1000 495 600 683 210 257 179 271 1288 1412 1614 1637 1428 1724 1816 2050 1606 1671 1191
0 0 0 0 0 0 0 0 0 1 45 25 238 455 529 610 585 595 570 562 576 610 737 632 744 1150 1068 628 425 371 801 295 141 965 422 180 155 145 1646 1680 1357 1361 1716 1324 1638 1707 1487 1522 1635
0 0 0 0 0 0 0 0 0 0 0 0 6 323 538 690 691 708 706 658 597 656 942 892 882 1177 1247 771 716 753 655 348 202 842 1170 938 670 251 373 561 1343 1259 1110 1360 1860 1498 1584 1637 1912
0 0 0 0 0 0 0 0 0 0 0 2 0 48 166 493 515 597 825 776 670 604 711 1034 1023 1312 1431 862 1149 1025 896 883 919 1328 1558 1112 950 899 824 859 804 1068 1046 1309 1705 1385 1782 2126 1662
0 0 0 7 0 0 0 0 0 0 0 0 0 0 31 93 299 359 477 703 813 747 642 786 1087 1357 1471 1266 1063 950 1112 940 992 1134 1474 1283 1414 1418 1329 1183 1102 788 859 1380 1843 1762 1368 1948 1951
0 10 0 18 6 0 0 8 0 0 0 0 0 18 6 8 98 135 352 524 747 870 857 820 831 869 1247 1279 1214 1171 1401 1293 1363 1154 1115 1420 1630 1918 1808 1833 1506 1231 808 1250 1748 1710 1091 1324 1470

GFSSGP_con_mlcape_078.txt.gz
CAPE
0 0 17 74 100 274 152 81 309 73 55 30 18 158 127 325 299 342 119 413 431 478 714 811 1087 1358 1385 1368 1330 1982 1836 1945 1833 1672 1632 1832 1993 1735 1484 1872 1631 819 1100 1170 1242 1403 1255 1449 1935
0 0 148 289 105 68 25 386 101 41 35 91 114 227 324 340 200 183 375 434 341 375 536 845 1316 1594 1567 1821 1980 1841 1663 1625 1583 1741 2095 2076 1861 1221 1849 1895 1348 992 928 1032 1638 1421 1399 1651 1771
93 151 79 229 402 35 124 184 73 96 158 89 400 492 307 182 263 218 224 274 367 424 809 1267 1499 1794 2002 1969 2103 2109 2059 1997 1787 1730 1810 1949 1228 1804 1648 1787 1673 1741 948 938 1388 1584 1483 1533 1623
312 196 188 282 271 216 376 488 139 105 289 324 243 329 157 283 189 181 222 270 336 685 955 1016 1916 1702 1832 1839 1952 1952 1754 1720 1631 1556 1568 1541 1485 1945 1806 1830 1567 1576 1481 1389 1367 1216 1134 1042 1397
138 318 201 587 188 498 328 440 135 31 226 387 470 245 110 222 185 219 299 252 323 355 720 1222 1539 1741 1800 1914 1898 1853 1714 1629 1566 1504 1707 1719 1771 1776 1669 1612 1575 1534 1399 1388 1034 1236 1258 1285 1181
243 495 259 336 304 154 204 254 217 170 308 488 386 126 117 154 243 235 230 269 293 172 240 910 1556 1858 1697 1227 1201 1235 1575 1595 1615 1678 1654 1649 1580 1693 1563 1306 1348 1488 1439 1372 1255 1315 1312 1241 1029
1 293 239 223 307 408 680 492 330 481 372 575 420 354 185 240 351 222 125 194 7 10 481 944 1294 1368 1376 1530 1791 1801 1449 1703 1643 1453 1386 1437 1457 1609 1603 1561 1396 1338 1309 1271 1163 1127 1216 990 722
1 29 18 231 172 35 524 545 572 334 270 445 610 408 148 111 265 307 280 25 0 162 497 806 1271 726 1253 1346 1608 1569 1525 1635 1553 1406 1601 1500 1702 1579 1318 1230 1383 1394 1224 1185 1076 1189 1122 610 458
20 9 20 208 158 70 525 682 306 73 328 530 585 473 194 62 166 428 391 6 10 6 292 198 488 606 1139 1282 1436 1537 1558 1569 1521 1537 1467 1106 1300 1522 1511 1137 1353 1234 1211 1149 1121 1194 1062 1249 1048
4 17 71 89 26 10 56 409 0 138 584 571 572 439 231 141 117 271 32 8 0 67 268 176 112 405 827 829 1088 1302 1149 1198 1308 1388 1201 635 877 1358 803 1009 1252 1066 938 984 920 518 385 987 657
5 0 0 0 6 43 133 163 674 521 496 380 552 279 260 144 112 103 14 13 13 6 167 255 554 453 525 716 1284 1529 1099 1391 1422 1276 1279 1286 1456 1029 922 970 976 823 764 651 873 139 41 626 858
1 0 13 0 4 209 401 358 117 196 241 385 391 250 229 125 140 15 11 5 12 15 60 261 350 599 635 972 1342 743 916 1393 619 1064 1334 1040 1169 263 129 901 1343 1164 1041 936 661 532 732 768 598
0 0 0 7 38 406 164 79 44 20 322 382 335 160 155 118 59 15 12 7 8 17 27 439 512 309 167 862 595 721 648 586 985 644 1062 127 855 1167 1149 1286 449 703 871 687 81 848 1043 791 930
0 0 0 3 203 459 341 116 211 319 454 498 344 113 173 97 89 20 9 5 6 8 43 349 414 843 729 959 698 653 532 890 947 770 1234 965 1010 1667 1330 1371 834 432 174 550 557 105 375 899 947
0 0 0 0 0 179 283 198 273 341 283 388 351 193 186 170 85 33 10 0 0 4 63 238 311 623 566 1101 893 726 131 671 1371 1759 1572 892 483 1067 1660 1471 1337 906 814 540 881 265 744 50 30
0 0 0 0 0 11 131 298 282 302 155 366 406 271 203 130 217 81 48 3 0 6 53 216 95 468 555 1095 596 863 468 1057 743 937 1431 686 484 1805 1606 1419 1294 1346 551 1002 1074 502 661 248 254
0 0 0 0 0 0 6 219 712 322 368 476 358 360 237 174 297 236 121 56 4 10 48 180 299 375 468 1033 554 855 479 786 1187 891 522 1524 1643 1583 1777 1464 1191 1291 1162 745 1134 127 90 748 526
0 0 0 0 0 0 0 230 374 64 121 202 473 352 292 251 260 368 144 93 0 2 43 264 320 475 564 814 714 959 843 825 681 1265 1185 1545 1862 1524 1483 1788 1124 1538 731 617 872 476 313 104 200
0 0 0 0 0 0 0 163 75 0 0 0 429 372 358 278 290 281 188 109 0 0 30 314 163 551 543 612 626 751 538 944 708 901 1636 1666 1366 1618 1558 1540 1542 1587 296 545 1250 1179 832 957 89
0 0 0 0 0 0 29 208 50 1 3 0 88 426 342 348 267 309 206 149 21 0 74 114 209 499 342 932 617 667 837 612 808 1197 1342 951 1576 1667 1444 884 1391 1112 1282 1321 818 428 444 704 30
0 0 0 0 0 0 20 258 53 0 27 130 350 476 337 435 317 333 199 186 64 2 215 51 512 679 410 562 361 464 515 690 457 1471 1231 1535 1328 1770 1637 1482 1149 1384 1527 1123 1332 1226 1174 856 51
0 0 0 0 0 0 0 0 261 45 5 450 515 219 248 226 465 400 211 312 109 39 268 262 599 803 241 457 173 227 462 611 407 349 1452 1311 1563 1681 1604 1728 1562 1728 1103 1107 1192 1254 830 589 814
0 0 0 0 0 0 0 0 6 559 334 32 0 295 226 25 431 428 443 318 206 133 259 493 415 951 320 225 481 266 496 304 1057 628 703 1468 1391 1661 1468 1269 1716 1840 1518 1290 1359 1648 1378 877 985
0 0 0 0 0 0 0 0 0 303 99 1 3 320 408 80 116 410 537 390 392 229 175 523 476 701 519 89 519 427 262 685 470 469 1068 1487 1163 1380 1553 1840 1670 1775 1386 1367 1803 1648 1331 1774 1620
0 0 0 0 0 0 0 0 0 33 300 34 18 442 494 311 172 371 397 537 464 341 174 398 578 495 623 470 182 1045 178 384 866 298 1252 642 1310 1155 1151 1663 1849 1513 1534 1515 1869 1630 1938 1739 1640
0 0 0 0 0 0 0 0 0 0 0 431 589 498 573 594 253 411 589 597 584 617 303 263 735 617 665 820 31 411 950 273 565 1154 210 749 575 767 1296 1232 1866 1737 1588 1579 1809 1738 1860 1861 1457
0 0 0 0 0 0 0 0 0 0 0 7 11 107 275 29 539 482 722 728 812 722 695 356 776 885 830 572 790 107 1226 1196 424 774 1156 307 462 937 1510 1434 1797 1568 1813 1625 1817 1594 1512 1783 1832
0 0 0 0 0 0 0 0 0 0 0 39 52 9 20 46 68 640 599 780 837 818 952 772 834 1061 1096 728 860 498 355 900 696 93 1029 1108 1359 690 1697 1990 1737 1565 1941 1682 2025 1597 1770 1758 1702
9 0 0 1 0 0 0 0 0 0 0 0 134 40 0 13 51 568 781 698 825 951 948 1151 949 1292 1455 1352 842 701 567 494 234 809 621 1259 894 1112 1312 1323 1224 1597 1462 1773 1744 1624 1884 1728 2004
5 1 0 9 1 1 0 0 17 2 0 0 0 106 30 2 26 23 492 838 882 972 1034 1251 1237 1440 1585 1553 1241 830 817 611 468 57 1560 1558 1953 1920 2000 1443 2021 1392 1394 1429 1677 1867 1386 1624 1967

GFSSGP_con_mlcape_081.txt.gz
CAPE
0 0 0 60 91 44 75 68 160 37 14 5 6 36 76 141 134 1 0 0 302 538 552 1119 1235 1062 1012 1493 1847 1947 1971 1903 1664 1636 1910 2095 1702 1968 1931 1279 841 1281 1197 1076 1703 1257 1574 1905 2035
0 0 26 79 91 2 9 134 160 51 30 32 126 291 146 122 46 0 47 113 452 423 669 749 944 1119 1293 1102 1506 1853 1924 1848 1773 1959 2051 1938 1483 1867 1885 1379 807 992 1290 1437 1138 1522 1729 1908 1877
0 21 45 98 29 6 80 142 58 67 95 174 198 74 139 31 38 137 88 203 239 325 538 886 1110 1495 1649 1764 1924 1695 1637 1709 1842 1700 1905 1391 1942 1834 1892 1814 1334 833 1165 1476 1418 1459 1601 1457 1382
7 194 80 38 25 6 156 93 175 184 207 180 33 14 10 48 115 101 97 70 258 748 832 1277 1767 1742 1952 2060 1984 1935 1826 1732 1691 1765 1912 1505 1947 1793 1965 1646 1620 1414 1336 1370 1269 1094 976 909 865
206 106 33 64 177 201 273 182 243 186 284 150 53 100 72 31 53 31 62 241 575 449 468 1602 1538 1870 1874 1805 1764 1632 1626 1633 1637 1793 1664 1920 1788 1700 1713 1626 1507 1517 1210 1193 1319 1173 1110 883 587
132 42 39 51 132 246 428 71 98 351 374 74 105 75 69 7 52 24 104 415 443 66 1313 1262 1633 1582 1791 1778 1536 1620 1574 1647 1587 1846 1866 1860 1921 1787 1414 1479 1566 1482 1338 1240 1305 1162 956 606 523
23 11 13 2 81 253 139 124 80 340 138 50 44 63 43 22 43 1 58 168 128 282 720 1139 1441 1452 987 1041 1146 1408 1694 1660 1741 1807 1791 1560 1708 1662 1523 1360 1302 1347 1351 1295 1187 914 669 411 278
10 27 6 0 66 2 75 124 255 339 318 49 73 58 56 44 28 3 23 4 107 378 486 1016 924 1062 1217 1592 1688 1479 1566 1684 1491 1348 1468 1606 1675 1645 1477 1434 1266 1181 1161 1119 1169 1042 863 839 866
6 7 5 29 36 0 0 203 404 265 284 152 284 77 84 72 13 8 3 10 174 315 652 672 350 857 946 1184 1476 1544 1641 1581 1504 1614 1519 1327 1122 1141 1298 1146 1311 1123 1105 1073 1128 1106 972 708 650
11 1 5 96 45 0 67 136 124 207 326 501 108 121 116 169 33 1 1 6 90 215 344 457 248 800 721 995 1038 989 1322 1117 1084 881 361 169 593 1122 886 1116 1252 1122 1064 1199 1262 656 378 0 86
0 0 14 33 23 0 0 1 1 225 173 453 80 78 44 61 114 25 0 0 1 86 82 206 213 762 704 257 714 689 930 956 913 683 321 414 782 680 776 635 864 945 1062 681 407 53 124 9 173
0 0 14 23 1 4 70 33 266 241 323 210 66 67 34 42 173 25 1 0 0 40 22 92 203 433 345 384 893 848 955 1070 936 1036 930 770 600 6 177 503 682 528 558 332 0 52 263 621 873
0 0 12 20 1 27 155 238 20 109 136 171 144 90 45 48 93 7 0 0 0 18 40 166 229 350 385 723 1013 1030 828 961 672 1000 204 300 682 305 522 601 399 472 199 188 401 476 884 839 823
0 0 0 2 0 160 212 298 10 54 95 302 184 104 114 27 51 5 0 0 0 72 133 242 217 192 189 1046 889 577 730 925 567 527 503 488 669 944 545 230 508 334 4 8 436 546 863 825 863
0 0 0 0 0 387 236 82 0 19 246 310 263 212 72 27 86 2 0 0 0 163 211 144 213 195 619 610 784 517 957 1082 812 915 746 419 499 1078 991 510 462 305 66 187 538 198 582 418 528
0 0 0 0 0 51 229 87 270 226 200 373 266 345 115 17 38 3 0 0 0 128 61 157 466 386 269 540 552 298 727 1191 1123 1201 784 159 343 1132 1535 1121 767 894 618 393 641 587 468 106 250
0 0 0 0 0 0 44 250 451 270 373 491 286 250 201 65 4 4 0 0 0 56 11 21 155 171 173 522 302 591 672 547 1061 1081 824 555 935 1431 1547 1305 1035 1204 622 970 490 190 441 392 452
0 0 0 0 0 0 0 408 464 409 238 110 301 348 269 112 21 3 0 0 0 50 6 20 177 113 168 375 132 542 427 741 598 720 587 1356 1308 1251 1550 1139 1026 747 657 722 882 198 352 278 388
0 0 0 0 0 0 0 218 576 387 213 325 315 268 210 123 194 29 6 0 0 14 3 41 117 179 271 323 38 496 591 551 496 869 1005 1308 1506 1050 1323 1349 989 1047 247 671 927 919 824 866 188
0 0 0 0 0 0 30 92 381 111 57 228 149 92 189 153 163 301 23 1 0 0 26 14 140 184 318 275 177 416 421 603 392 663 1409 1391 1490 1112 1020 875 1228 858 481 711 617 554 413 626 99
0 0 0 0 0 0 66 136 107 18 0 0 26 13 60 151 99 302 74 0 0 0 15 73 266 139 378 185 116 386 744 103 1010 794 1205 1027 1561 1192 1124 1119 1085 1261 1154 670 1126 650 542 439 237
0 0 0 0 0 0 0 13 112 47 24 9 14 29 85 148 197 285 160 2 0 0 0 198 283 146 408 228 24 206 342 263 672 1097 843 1232 1068 1414 1129 1140 1076 948 1125 887 740 1185 811 408 420
0 0 0 0 0 0 0 0 0 85 61 52 53 0 0 90 219 188 120 111 0 0 0 66 382 204 103 547 40 105 176 228 627 546 607 991 1083 1524 1377 1235 1222 1163 1228 983 1208 1416 1044 921 1033
0 0 0 0 0 0 0 0 0 59 53 27 228 71 124 223 286 193 157 129 19 4 0 0 354 192 76 45 302 23 54 227 675 179 478 966 1071 1327 1133 926 1482 1492 1236 1140 1011 1402 1027 1260 1281
0 0 0 0 0 0 0 0 0 0 114 133 228 534 204 193 385 277 180 113 71 8 88 0 229 233 79 2 143 231 2 114 388 751 935 868 716 934 1199 1144 1324 1237 770 1092 1292 1578 1467 1343 1175
0 0 0 0 0 0 0 0 0 0 107 330 271 375 5 320 470 393 292 174 197 53 169 172 54 296 174 0 0 180 209 47 303 1124 919 803 725 576 681 1591 1344 1150 911 1155 1401 1275 1031 1565 1262
0 0 0 0 0 0 0 0 0 0 0 52 36 0 33 475 71 437 381 308 223 154 78 310 149 133 245 86 0 29 431 1 105 286 914 802 768 821 757 926 1530 1331 1292 1064 1555 1278 1038 1560 1525
0 0 0 0 0 0 0 0 0 0 0 30 147 124 442 345 129 138 210 410 318 292 135 198 348 151 296 201 27 0 171 317 65 95 657 664 232 565 976 982 1361 1305 1261 1268 1389 1386 1201 1274 1273
0 0 0 0 0 0 0 0 0 32 0 62 211 362 530 130 144 327 311 312 102 411 340 173 483 328 316 202 258 0 0 484 413 434 148 787 654 1507 1388 1218 1058 1528 1286 1388 1494 1458 1283 1516 1276
0 0 0 0 0 0 0 0 0 3 49 0 193 180 277 105 393 342 184 407 68 0 553 315 525 493 410 310 310 254 0 84 327 393 192 180 563 823 1556 1205 1279 1248 1098 1219 1524 1349 1367 1419 1564

GFSSGP_con_mlcape_084.txt.gz
CAPE
22 0 0 43 138 35 0 38 87 27 25 0 0 16 21 94 98 0 0 4 0 0 731 1118 1268 1124 1469 1957 1950 1720 1950 1667 1534 1919 2047 1566 1985 1789 946 1124 1392 1138 1575 1676 1600 1777 2009 2171 2297
1 0 13 103 35 3 1 35 55 10 2 5 121 132 147 57 40 0 0 46 2 183 836 1073 1037 1188 1704 1899 1902 1905 1801 1659 1684 2001 1923 1674 1744 1753 1103 930 933 1555 1251 1501 1347 1760 1931 2101 1742
0 0 46 107 4 1 22 67 30 13 115 171 128 160 79 20 1 0 57 130 287 358 656 748 1171 1238 1002 1399 1841 1960 1793 1604 1968 1968 1465 1852 1717 1704 1412 817 1129 1576 1446 1526 1696 1657 1550 1589 1290
5 170 149 49 0 4 32 161 96 174 98 149 72 12 21 2 20 24 219 238 137 325 451 1045 1142 1353 1799 1866 1757 1782 1801 1897 1925 1937 1361 1728 1699 1822 1647 1527 1073 1378 1502 1278 1162 1502 1334 993 985
112 175 53 63 131 87 24 160 242 224 186 113 53 41 80 74 36 124 130 160 168 279 894 1604 1726 1980 1988 1936 1949 1697 1707 1748 1828 1560 1752 1881 1732 1608 1579 1490 1439 1270 1295 1362 1178 1149 1166 577 939
224 119 48 0 16 104 154 108 316 157 179 91 16 11 57 22 37 55 228 303 395 264 1055 1472 1723 1769 1773 1643 1635 1651 1699 1785 1857 1772 1839 1626 1647 1486 1670 1523 1546 1377 1378 1398 1284 1269 873 511 855
80 39 8 4 6 2 10 57 262 227 140 73 54 24 38 24 1 203 261 241 18 831 941 1241 1430 1715 1675 1570 1645 1639 1705 1775 1927 1864 1804 1712 1547 1424 1370 1509 1480 1411 1390 1363 1243 1022 839 957 923
72 73 5 4 0 0 0 32 285 120 175 121 65 6 14 57 26 216 202 72 155 657 769 866 1173 962 782 1046 1482 1745 1749 1882 1856 1840 1679 1778 1676 1623 1482 1373 1454 1417 1265 1332 1378 1079 1000 728 970
10 18 0 0 1 5 0 3 114 310 117 113 194 48 36 61 88 76 31 0 128 316 622 680 624 506 1152 1394 1326 1685 1801 1690 1605 1573 1393 1144 1342 1178 1225 1365 1320 1331 1254 1258 1286 1275 993 732 722
0 0 0 13 31 0 1 0 35 73 146 80 185 52 62 49 67 32 40 0 0 109 320 245 269 468 890 1172 1327 1343 1525 1346 1283 1085 831 552 962 1123 1120 1363 1305 1320 1260 1238 701 720 618 22 372
0 0 17 0 4 0 0 17 5 167 175 60 163 43 66 63 33 20 14 0 0 3 162 32 298 533 550 660 874 965 905 786 640 271 0 311 642 870 734 838 1019 1182 1248 921 202 40 137 67 398
0 0 5 42 63 3 5 36 2 245 228 116 147 67 102 74 20 0 0 30 28 27 86 116 282 450 411 191 445 565 644 720 705 400 245 706 136 129 188 251 264 512 673 354 0 39 421 576 768
0 0 0 43 54 75 13 145 200 116 155 227 142 145 141 114 0 0 1 0 65 21 86 115 277 481 306 121 531 684 680 761 801 666 669 263 284 110 296 253 48 441 400 279 293 448 601 783 885
0 0 0 53 141 156 104 231 140 25 203 108 107 115 47 102 0 0 0 0 43 0 0 99 247 372 236 433 585 638 735 954 758 429 168 395 259 216 28 317 263 368 62 36 471 465 626 796 827
0 0 0 4 133 292 315 144 12 77 195 110 49 28 13 78 47 0 0 0 41 0 63 126 189 293 284 616 813 775 659 799 656 320 134 456 602 260 0 143 317 182 0 73 290 378 672 638 602
0 0 0 0 88 329 195 20 96 125 484 174 80 38 42 42 0 0 0 0 62 106 52 106 149 295 502 657 644 553 581 827 597 655 513 142 526 540 447 304 159 219 0 199 359 398 366 190 293
0 0 0 0 65 65 287 148 99 213 467 194 122 98 82 58 3 0 0 9 101 109 115 186 275 253 453 435 338 728 806 848 754 713 414 16 820 1267 822 604 357 409 134 160 443 529 311 96 156
0 0 0 0 0 0 161 296 137 247 524 361 248 171 88 37 38 0 0 6 126 100 106 201 300 129 377 245 375 668 658 769 863 655 640 816 1165 1167 1293 893 809 950 642 752 449 116 301 251 325
0 0 0 0 0 0 9 196 232 54 389 357 307 248 163 49 28 0 0 0 60 52 25 70 32 56 295 175 131 579 404 667 687 461 860 1227 1131 1281 1066 994 828 522 640 778 728 242 235 600 113
0 0 0 0 0 0 5 100 386 105 323 92 25 266 233 100 3 0 3 0 0 0 0 37 17 0 114 107 35 390 393 546 343 660 824 1174 1196 1045 1106 893 500 369 321 633 549 438 334 424 149
0 0 0 0 0 9 175 235 379 400 422 314 39 276 252 93 56 0 0 0 9 0 0 12 14 2 6 103 18 329 596 477 332 684 1082 1223 1351 889 747 967 948 827 628 610 479 468 431 39 80
0 0 0 0 0 0 5 4 143 172 104 141 352 311 226 99 85 72 0 0 12 0 0 63 62 51 43 26 0 317 497 196 557 406 921 1154 1318 868 738 952 989 1024 902 484 723 844 565 162 112
0 0 0 0 0 0 0 0 0 69 35 28 222 194 12 144 132 115 34 0 0 7 22 110 73 106 100 12 0 140 258 169 383 670 776 773 1259 1024 968 771 855 733 866 678 785 1074 916 752 662
0 0 0 0 0 0 0 0 0 24 79 1 11 51 68 217 194 195 160 0 0 0 27 125 86 84 135 44 0 4 96 198 377 583 760 901 863 1031 964 932 870 834 893 761 764 1062 968 1045 1109
0 0 0 0 0 0 0 0 0 0 5 17 19 11 83 287 240 252 264 18 0 0 0 178 102 60 131 115 4 0 33 70 334 491 603 519 781 1056 1186 957 1025 1003 856 856 768 1232 1205 881 940
0 0 0 0 0 0 0 0 0 0 0 15 77 63 0 0 188 288 313 87 0 4 0 146 179 62 45 142 80 2 0 10 170 527 412 478 659 838 954 830 1005 993 632 834 931 1258 1021 1159 1081
0 0 0 0 0 0 0 0 0 0 0 39 72 106 75 227 169 298 352 162 11 2 0 0 202 94 52 10 0 10 24 0 2 606 791 539 570 548 621 926 948 960 735 564 968 953 843 967 1147
0 0 0 0 0 0 0 0 0 0 0 0 45 115 234 255 424 457 335 207 92 6 50 25 50 154 77 11 0 0 0 75 6 62 636 802 519 487 442 729 979 1109 896 970 829 928 939 909 943
0 0 0 0 0 0 0 0 0 0 18 13 4 28 234 109 380 425 371 272 158 159 98 87 25 107 211 130 32 0 0 26 184 25 68 717 639 605 761 673 890 1039 1085 949 993 1084 986 851 957
0 0 0 0 0 0 0 0 0 0 19 19 123 90 68 275 313 434 417 360 201 178 196 230 249 59 131 211 135 7 0 0 152 188 1 14 760 732 641 616 949 955 957 936 756 799 1051 1055 1164

GFSSGP_con_mlcape_087.txt.gz
CAPE
102 25 0 17 40 52 0 2 2 46 0 0 0 0 18 94 103 0 0 0 0 0 682 1323 1581 1614 1802 1838 1440 1779 1604 1573 1952 1939 1673 1807 1778 1252 1307 1275 1584 1961 1926 1922 1964 2041 2238 2176 1762
46 0 11 101 92 3 0 8 73 19 0 0 0 86 166 65 100 0 0 0 0 107 894 1375 1362 1511 1853 2018 1850 1947 1759 1626 1819 1975 1754 1919 1830 1152 1336 1375 1261 1287 1838 1401 1679 1936 2249 1890 1380
1 8 35 129 3 12 12 101 96 19 0 5 253 160 105 82 10 0 0 0 26 468 1044 1184 1185 1864 1924 1862 1896 1873 1594 1764 1782 1764 1775 1826 1686 1216 968 1199 1833 1529 1259 1600 1821 1893 1751 1427 1431
0 51 76 58 0 1 23 102 113 47 128 164 57 78 20 11 0 39 48 19 148 616 822 1375 1301 1286 1635 1952 2081 1857 1581 1791 1715 1433 1746 1581 1749 1594 877 1250 1725 1456 1610 1744 1553 1481 1508 1122 1180
73 108 40 5 11 26 32 40 170 99 264 119 67 58 0 25 70 72 45 103 135 447 809 1228 1418 1656 1702 1683 1744 1765 1780 1757 1620 1666 1746 1593 1589 1548 1481 1238 1398 1415 1276 1099 1151 1312 1228 1262 1512
201 105 20 2 25 0 40 276 153 250 204 83 39 12 24 94 14 43 166 214 249 468 823 1458 1776 1631 1975 1851 1804 1759 1737 1820 1436 1834 1711 1518 1631 1484 1385 1457 1347 1435 1443 1310 1311 803 929 1250 1496
76 74 26 13 7 27 27 49 116 183 169 70 34 13 49 40 30 224 283 213 387 607 1162 1493 1552 1687 1698 1692 1736 1799 1793 1888 1951 1569 1604 1575 1410 1630 1537 1564 1423 1374 1348 1259 1162 952 1180 1199 1343
66 108 17 15 16 4 0 4 116 210 140 42 34 0 4 29 159 216 137 186 262 721 990 1167 1570 1548 1481 1673 1745 1709 1798 1989 1862 1766 1753 1543 1482 1328 1511 1530 1553 1437 1327 1283 1136 1037 636 920 1201
7 15 7 5 26 11 7 6 84 234 119 137 245 19 16 82 144 110 109 81 163 551 757 792 991 917 830 1295 1642 1760 1938 1891 1819 1558 1695 1378 1429 1353 1244 1365 1517 1395 1354 1388 1250 619 615 981 1051
6 8 11 24 24 18 14 1 39 157 136 158 90 54 41 121 101 89 104 43 150 270 482 600 457 341 1044 1194 1617 1588 1542 1579 1459 1369 1029 919 1111 1211 1262 1444 1468 1380 1426 1412 954 909 161 375 525
0 14 9 38 12 13 9 18 75 151 76 43 41 45 82 93 97 91 79 0 0 128 457 428 185 672 1040 1177 1102 1226 1370 1194 1018 832 515 622 967 1176 1367 1403 1300 1241 1339 348 26 197 5 247 700
0 0 0 17 35 15 4 49 58 146 269 157 95 81 56 79 92 117 53 0 0 65 155 87 202 376 610 857 791 862 868 867 575 130 117 692 566 492 706 859 824 889 659 161 0 75 286 582 671
0 0 0 0 12 42 103 20 4 170 301 327 109 91 46 35 64 115 56 0 7 5 83 0 260 335 377 416 546 667 638 710 503 292 397 620 47 86 272 254 270 452 494 127 58 384 521 736 930
0 0 0 0 26 89 76 120 71 155 119 175 148 66 37 12 19 89 64 24 27 0 20 46 212 314 343 142 224 448 602 780 758 559 537 423 201 108 280 140 64 432 339 87 464 453 558 745 900
0 0 0 0 40 33 270 78 84 76 106 316 208 89 71 21 1 63 29 40 0 0 81 80 224 331 274 125 348 579 679 840 787 721 464 375 223 181 97 306 242 295 8 12 385 358 602 610 588
0 0 0 0 255 288 289 11 63 142 137 204 217 137 149 93 0 18 14 0 31 0 41 76 264 294 228 210 478 656 658 736 795 610 55 474 628 207 0 213 249 196 0 168 276 286 260 376 280
0 0 0 0 280 278 211 38 70 242 308 164 180 166 132 100 0 0 0 0 43 0 0 89 211 281 311 382 576 622 755 718 637 548 447 314 525 605 470 318 215 176 33 99 339 423 202 126 250
0 0 0 0 31 270 60 57 81 175 506 245 149 70 84 128 14 0 0 0 9 0 0 64 170 261 361 341 483 580 621 667 639 697 434 24 734 916 839 515 369 378 154 90 296 298 211 268 183
0 0 0 0 0 0 0 0 159 52 502 332 204 39 71 97 6 0 0 0 0 0 0 86 148 201 428 329 421 583 682 745 659 681 588 629 986 899 1022 642 639 832 512 671 373 320 189 437 96
0 0 0 0 0 0 0 0 130 54 443 303 249 107 81 69 23 0 0 7 3 15 0 91 131 128 370 208 297 566 531 585 521 609 701 1122 1006 1029 848 751 580 583 498 662 588 472 417 466 75
0 0 0 0 0 63 23 2 167 41 217 519 182 181 156 106 21 1 0 36 18 26 0 79 97 90 153 167 72 320 344 441 473 583 648 907 1172 993 983 799 410 276 555 427 460 434 324 31 27
0 0 0 0 0 0 19 0 12 131 32 200 489 134 262 185 46 4 0 0 50 38 0 0 41 55 33 49 18 103 464 347 481 472 703 905 1250 992 742 858 830 328 534 561 432 489 249 32 0
0 0 0 0 0 0 0 0 0 178 217 188 231 246 155 297 132 7 0 0 66 40 18 0 0 0 0 0 0 0 300 379 438 386 655 998 1132 1154 638 873 814 909 665 372 575 749 583 430 214
0 0 0 0 0 0 0 0 0 0 0 46 175 140 245 233 184 34 1 0 0 9 39 24 0 0 0 0 0 0 165 370 254 386 451 741 1025 1099 961 802 813 761 757 684 692 940 705 749 928
0 0 0 0 0 0 0 0 0 0 0 18 49 70 126 297 162 144 29 3 0 21 37 91 46 0 5 0 0 0 8 213 213 258 571 625 694 1126 971 804 822 820 830 728 703 877 850 724 862
0 0 0 0 0 0 0 0 0 0 0 0 0 18 31 122 196 135 119 11 2 31 49 114 79 12 22 18 0 0 0 6 87 213 371 712 762 851 932 976 914 939 932 868 707 1006 1037 1058 733
0 0 0 0 0 0 0 0 0 0 0 0 0 0 0 11 64 179 204 29 0 0 51 112 77 37 30 29 4 0 0 0 0 119 390 616 654 834 864 941 1058 1040 953 704 865 806 961 840 855
0 0 0 0 0 0 0 0 0 2 7 0 0 8 0 0 10 70 263 216 1 0 0 80 94 13 0 48 69 27 0 0 0 7 243 675 569 481 630 815 997 908 1025 580 797 891 820 802 630
0 0 0 0 0 0 0 0 0 1 1 0 2 7 8 21 10 59 155 241 111 1 0 4 160 79 22 17 49 0 0 0 0 0 0 146 792 648 523 530 839 1027 1017 1004 769 643 870 894 713
0 0 0 0 0 0 0 0 0 0 0 9 0 0 0 1 38 178 189 153 90 47 40 9 30 144 63 24 0 0 0 0 0 0 0 17 145 589 650 558 538 762 1006 1058 973 837 999 1021 777

GFSSGP_con_mlcape_090.txt.gz
CAPE
111 7 0 25 47 64 0 11 5 0 0 0 0 0 0 16 42 0 0 0 0 19 777 1333 1440 1546 1790 1817 1927 1747 1560 1712 2153 1678 1637 1490 1353 1298 1342 2061 2091 2015 2001 1901 1967 1961 2029 1803 1872
4 0 10 164 13 0 0 21 108 7 0 0 0 15 185 28 37 0 0 0 0 186 1035 1447 1548 1496 1928 1751 1853 1714 1555 1985 1841 1775 1789 1888 1207 1391 1637 1310 1817 1900 1737 1804 1908 2004 1729 1571 1576
0 1 30 24 0 3 4 84 124 0 0 4 143 83 111 42 0 0 0 0 13 407 1063 1300 1545 1886 1984 1740 1922 1763 1544 1987 1871 1756 1638 1695 1249 1164 1096 1634 1509 1585 1636 1915 1910 1823 1665 1664 1423
0 24 57 57 6 0 0 6 20 1 0 83 89 73 2 5 0 0 0 16 121 452 954 1402 1693 1794 1848 1803 1941 1719 1763 1775 1764 1739 1701 1632 1515 987 1502 1146 1610 1673 1656 1702 1659 1675 1399 1448 1431
40 75 61 16 0 0 6 108 56 29 107 86 122 15 0 13 0 0 0 65 142 418 944 1176 1211 1601 1871 1949 1841 1506 1697 1795 1473 1846 1648 1411 1643 1469 1220 1331 1501 1171 1316 1521 1532 1485 1444 1533 1535
161 103 28 16 2 0 1 111 172 150 104 46 0 0 7 64 0 0 0 81 317 435 941 1073 1270 1578 1628 1589 1585 1523 1762 1734 1515 1705 1638 1637 1617 1600 1456 1377 1309 1325 1106 1295 1382 1280 1601 1633 1388
96 88 29 21 9 6 3 2 169 185 111 41 18 14 38 39 0 0 0 155 361 567 550 1315 1384 1525 1593 1466 1620 1689 1722 1547 1777 1544 1688 1683 1682 1504 1624 1518 1476 1430 1318 1175 1101 1423 1509 1483 1434
114 99 24 14 4 2 0 8 96 198 71 15 15 0 0 49 42 74 151 239 335 536 838 1104 1198 1409 1289 1550 1318 1808 1691 1842 1828 1584 1687 1529 1530 1581 1460 1423 1537 1322 1223 1094 1313 1110 1327 1447 1406
12 11 4 1 15 11 16 25 36 148 55 209 242 22 11 68 79 71 84 157 234 748 888 1102 1197 1179 1197 1421 1614 1660 1848 1844 1933 1688 1657 1544 1465 1285 1369 1567 1591 1537 1344 1163 980 935 1289 1464 1663
13 0 0 42 22 6 17 16 74 121 162 63 58 23 61 77 65 51 33 10 64 324 635 720 773 593 857 1306 1494 1525 1737 1682 1562 1434 1322 1211 1228 1283 1211 1627 1562 1533 1656 1236 1248 738 898 564 803
6 5 0 93 41 20 27 15 41 175 155 73 15 0 34 85 59 3 0 0 0 91 361 356 397 301 572 1247 1287 1232 1294 1250 1099 1072 656 986 1045 1120 1409 1533 1406 1624 606 247 433 46 265 566 768
0 0 0 52 121 55 1 24 0 48 178 86 8 51 50 69 59 2 0 0 0 36 210 285 103 389 769 888 843 999 1027 916 919 686 332 836 787 850 1076 1276 1165 1095 427 0 67 104 365 668 813
0 0 0 25 22 19 51 114 70 119 330 95 34 65 37 48 46 6 0 0 0 0 150 189 61 364 463 599 671 740 670 710 635 140 272 517 499 270 509 672 824 785 515 21 147 340 600 758 958
0 0 0 0 21 153 70 38 44 170 336 129 32 20 27 37 33 30 0 0 0 0 10 45 53 157 295 255 396 450 461 523 559 389 312 559 60 143 175 147 168 383 362 173 510 515 654 792 869
0 0 0 0 6 86 198 80 22 109 149 135 42 0 26 65 11 33 1 0 0 0 0 0 58 145 138 69 172 331 448 573 708 484 550 511 318 143 227 260 96 369 187 23 437 491 613 598 392
0 0 0 11 123 149 141 24 146 213 216 237 77 34 0 37 5 25 0 0 0 0 0 0 70 87 113 35 59 228 430 542 616 469 370 402 413 200 0 307 314 281 1 334 267 468 320 400 227
0 0 0 0 220 270 240 39 178 193 246 308 123 82 50 35 13 0 0 0 0 0 0 0 59 78 112 67 92 321 485 535 508 449 443 159 436 470 0 120 308 204 5 212 403 462 210 249 216
0 0 0 0 14 214 210 3 224 330 427 368 302 133 112 67 22 0 0 0 0 0 0 0 10 63 106 92 107 278 452 557 552 605 475 314 206 647 471 371 250 206 104 144 380 376 240 201 110
0 0 0 0 0 22 0 0 0 224 402 365 361 212 157 108 56 0 0 0 0 0 0 0 0 56 176 216 301 392 418 539 556 550 593 85 328 579 700 476 433 375 160 267 451 422 144 259 109
0 0 0 0 0 0 0 0 1 169 409 465 332 267 195 139 79 15 0 0 0 0 0 0 4 45 198 257 324 380 387 495 489 523 541 638 878 816 637 549 599 592 520 631 549 465 327 457 53
0 0 0 0 0 3 2 0 27 133 354 499 407 269 125 108 87 16 0 0 0 0 34 0 0 29 207 209 245 235 363 376 460 573 408 736 857 890 873 687 566 487 504 636 510 432 345 144 125
0 0 0 0 0 0 0 0 0 174 193 480 463 318 235 118 55 8 0 0 0 0 0 37 0 14 162 159 232 328 289 310 354 399 515 615 1052 875 848 787 489 336 526 429 388 433 304 78 27
0 0 0 0 0 0 0 0 0 82 212 162 419 427 264 212 144 12 3 0 22 0 0 32 51 12 100 169 84 171 219 229 328 355 420 572 802 982 779 734 717 508 411 542 628 472 464 406 268
0 0 0 0 0 0 0 0 0 0 0 74 62 114 260 220 240 101 0 0 0 2 0 0 51 10 33 109 71 46 76 182 249 328 371 430 678 910 768 650 647 779 728 522 431 763 620 529 789
0 0 0 0 0 0 0 0 0 0 0 0 0 0 41 158 155 133 27 0 13 0 0 0 63 54 0 46 8 0 0 110 236 247 292 371 523 817 1007 799 725 738 711 734 623 819 794 719 862
0 0 0 0 0 0 0 0 0 0 0 0 0 0 0 20 196 127 28 1 20 27 0 0 43 53 38 0 0 0 0 4 234 272 114 238 482 630 706 814 738 852 813 829 743 791 896 964 767
0 0 0 0 0 0 0 0 0 0 0 0 0 0 0 0 84 184 158 1 0 19 30 36 0 0 33 31 0 0 0 0 66 198 136 192 342 645 656 812 649 907 946 825 821 772 912 1045 1037
0 0 0 0 0 0 0 0 0 0 0 0 0 0 0 0 14 184 174 80 0 2 18 15 39 0 14 28 0 0 0 0 0 0 75 149 274 552 710 783 863 802 979 933 671 789 879 958 888
0 0 0 0 0 0 0 0 0 0 1 1 2 1 1 10 43 57 146 103 3 0 5 0 13 35 9 41 43 2 0 0 0 0 0 20 246 499 492 526 639 868 802 917 848 588 705 845 867
0 0 0 0 0 0 0 0 0 0 0 3 0 1 2 2 4 24 69 112 69 1 0 0 28 32 35 46 51 33 0 0 0 0 0 0 43 158 459 571 539 716 827 889 971 947 840 627 826

GFSSGP_con_mlcape_093.txt.gz
CAPE
50 0 0 12 12 47 7 53 42 0 0 0 0 0 0 0 15 0 0 0 0 102 627 554 921 1627 1677 1756 1662 1531 1441 1980 1757 1504 1497 1430 1386 1552 1856 1772 1872 1851 2062 2158 2155 2005 1913 2012 2185
10 0 0 53 0 6 15 77 63 11 0 0 0 0 152 7 0 0 0 0 0 195 639 822 1235 1547 1687 1821 1639 1480 1637 1963 1803 1855 1846 1326 1395 1507 1474 1814 1716 1718 1928 2028 2150 1833 1775 1865 1894
0 1 56 23 2 9 49 62 72 0 0 1 102 109 187 91 0 0 0 0 60 418 783 1146 1356 1669 1683 1756 1713 1547 1825 1635 1685 1682 1659 1249 1229 1366 1293 1369 1647 1546 1854 2050 2007 1900 1740 1699 1414
1 5 62 66 22 0 1 113 3 0 4 157 128 62 0 0 0 0 0 13 181 517 813 1370 1723 1731 1681 1792 1792 1526 1889 1730 1495 1419 1430 1571 966 1483 1205 1344 1501 1669 1790 1906 1761 1803 1765 1648 1523
28 84 46 43 1 2 55 173 3 0 6 146 138 4 0 31 0 0 0 14 163 376 875 1309 1727 1787 1700 1597 1793 1617 1714 1683 1446 1276 1433 1459 1124 1395 1361 1555 1484 1534 1700 1648 1678 1688 1763 1520 1636
133 94 19 56 0 3 63 97 133 106 76 53 7 0 1 42 0 0 0 36 159 401 740 861 1373 1684 1844 1793 1486 1533 1705 1442 1751 1629 1661 1541 1535 1486 1390 1358 1264 1186 1359 1605 1573 1846 1821 1657 1474
112 71 27 26 23 6 13 63 208 215 70 56 14 3 1 2 0 0 19 170 255 556 745 882 1072 1392 1579 1443 1538 1425 1733 1526 1659 1610 1627 1524 1384 1467 1562 1419 1545 1265 1335 1229 1587 1542 1506 1552 1523
158 103 13 3 23 17 0 41 78 279 58 43 15 0 0 4 0 2 137 305 381 438 670 1207 1421 1434 1287 1452 1545 1394 1597 1620 1615 1587 1564 1568 1602 1592 1437 1115 1371 1270 1219 1428 1398 1450 1552 1572 1795
7 14 1 0 8 20 19 51 38 143 103 268 74 8 0 2 14 51 162 298 393 517 637 941 1210 1237 1295 1193 1377 1401 1433 1663 1648 1362 1573 1536 1535 1478 1366 1426 1497 1322 1236 1334 1186 1501 1250 1549 1768
31 8 0 20 7 3 18 13 53 134 146 93 56 44 0 19 11 44 99 175 231 408 758 968 1100 1141 1316 1311 1450 1555 1582 1584 1633 1563 1721 1771 1630 1466 1403 1558 1609 1598 1229 1290 1268 1367 875 1112 1499
27 19 6 47 35 42 38 49 112 129 143 100 59 3 0 4 0 2 54 118 199 532 753 890 953 879 1094 1221 1388 1442 1380 1397 1627 1476 1407 1645 1562 1604 1615 1755 1554 1316 1047 1176 596 660 988 1367 1486
0 0 8 24 59 34 3 54 32 99 158 101 50 0 0 0 16 32 52 61 78 287 536 561 707 449 1061 1488 1168 1183 1062 1169 1095 1158 1029 1558 1357 1501 1782 1635 1758 1569 474 536 709 702 1166 1434 1610
0 0 0 6 105 40 18 31 8 115 208 71 10 0 0 3 33 11 0 0 0 16 230 404 353 577 849 1181 1092 1088 959 1026 1181 764 788 1196 1139 1220 1505 1534 1393 1293 864 479 823 1074 1335 1544 1646
0 0 0 34 85 28 16 62 143 187 214 76 0 0 0 15 55 49 0 0 0 56 178 404 149 712 923 898 981 1066 968 1008 894 655 1000 849 850 835 952 1037 1057 1159 1031 797 1245 1266 1449 1559 1437
0 0 0 0 30 157 122 49 19 222 269 98 74 23 31 46 46 64 6 0 0 0 198 266 142 469 646 672 769 852 824 931 1090 1103 958 1172 681 676 996 685 575 1006 841 677 1151 1219 1330 1301 1015
0 0 0 23 22 84 153 39 150 265 421 170 137 94 81 101 86 76 64 0 0 0 0 155 90 271 509 449 577 703 900 1127 1074 1181 1025 1060 982 876 605 1024 850 845 430 985 1018 1193 1031 1012 922
0 0 0 5 135 266 157 61 429 417 393 243 123 101 76 87 106 117 141 2 0 0 0 20 143 341 373 349 403 667 948 1075 1173 1158 1005 674 951 851 321 837 1013 495 661 941 1081 1106 914 965 880
0 0 0 0 122 277 142 42 262 456 485 284 199 111 103 77 82 126 163 139 0 0 0 27 108 381 483 540 418 708 939 1192 1200 1137 1153 757 946 1029 693 696 908 650 504 776 1116 1005 841 842 746
0 0 0 0 1 149 0 0 83 382 463 559 318 217 129 76 62 104 181 157 84 0 0 51 92 364 484 544 523 729 875 1164 1063 1309 1146 825 580 1153 1186 998 748 713 636 780 1041 898 693 964 732
0 0 0 0 0 1 0 0 15 237 503 627 579 312 213 134 77 75 129 118 103 0 0 72 140 396 480 648 847 1093 1191 1189 1251 1298 1196 798 896 1252 1351 984 1034 839 836 1266 920 863 798 1135 601
0 0 0 0 0 18 9 1 44 226 639 703 620 456 306 265 165 95 117 65 94 90 0 18 119 282 498 681 786 825 914 958 1070 1048 1125 772 756 925 1271 881 1104 1183 1152 1127 1221 1062 930 794 623
0 0 0 0 0 0 4 0 9 206 328 602 657 501 380 339 267 168 107 56 60 107 43 123 159 236 420 593 756 744 701 474 918 1033 1100 1139 1151 871 1001 1197 1085 1019 1130 1060 1058 1019 988 542 472
0 0 0 0 0 0 0 0 0 401 197 33 313 625 478 249 271 244 127 111 84 82 80 119 240 232 292 475 700 863 781 850 837 934 1026 1185 1465 1599 1149 1519 1173 1028 1033 1170 1038 1121 1000 913 758
0 0 0 0 0 0 0 0 0 0 0 0 4 50 379 364 186 235 164 74 106 96 129 107 177 284 282 362 538 698 787 642 731 761 860 1023 1021 1479 1598 1369 1255 1430 1130 1119 1172 1495 1356 1232 1532
0 0 0 0 0 0 0 0 0 3 3 2 0 9 6 92 384 290 194 97 71 119 132 153 187 202 295 253 421 516 625 733 663 638 746 878 1123 1358 1532 1109 1250 1242 1292 1453 1358 1234 1542 1561 1800
0 0 0 0 0 0 0 0 0 0 2 3 2 1 0 4 58 462 298 193 88 186 204 90 154 148 230 285 347 502 504 505 643 894 841 922 1002 1216 1491 1386 1446 960 1116 1455 1523 1520 1670 1713 1676
0 0 0 0 0 0 0 0 0 0 0 0 2 1 3 123 5 240 477 267 138 187 235 222 193 186 217 285 355 345 379 281 341 774 877 792 954 1215 1389 1472 1278 1316 1384 1525 1533 1490 1536 1782 1987
0 0 0 0 0 0 0 0 0 0 1 0 2 6 4 28 107 77 436 359 132 120 261 238 251 240 220 312 352 295 247 177 199 434 814 744 669 875 1295 1351 1355 1352 1576 1714 1470 1525 1625 1427 1704
0 0 0 0 0 0 0 0 11 4 4 2 2 3 6 5 18 99 345 494 133 88 194 224 244 293 320 378 408 346 223 147 213 99 494 848 759 764 1048 1476 1499 1527 1551 1804 1365 1466 1446 1473 1713
0 0 0 0 0 0 0 0 12 5 4 8 1 1 3 4 4 3 14 6 121 128 94 148 157 251 314 356 430 452 404 261 159 118 0 307 730 861 862 1226 1294 1402 1476 1686 1306 1031 1475 1430 1307

GFSSGP_con_mlcape_096.txt.gz
CAPE
0 0 1 56 61 7 10 70 41 29 19 0 0 0 0 0 119 234 0 0 104 258 453 797 1636 1883 1607 1691 1640 1454 1976 1775 1507 1467 1424 1277 1506 1875 1911 1832 1825 2150 2217 2221 2008 1997 2116 2261 2054
7 0 90 179 16 6 67 157 46 36 6 0 0 0 8 241 0 0 0 0 121 274 449 539 1494 1746 1761 1711 1496 1292 2000 1867 1894 1952 1390 1404 1317 1718 1925 1728 1883 2112 2218 2215 1910 1954 2033 2162 2243
2 11 242 290 14 162 185 252 63 2 0 20 0 251 271 423 0 0 0 36 146 388 647 892 1398 1745 1621 1646 1572 1659 1836 1825 1964 1828 1359 1438 1757 1305 1534 1821 1704 1975 2112 2113 2053 1641 1656 1659 1718
66 239 375 262 53 74 118 227 0 0 0 184 77 157 1 2 0 0 0 44 215 455 685 833 1418 1791 1792 1688 1620 1731 1741 1733 1586 1447 1552 1018 1499 1539 1896 1638 1693 1909 1924 1834 1976 1904 1812 1653 1654
108 443 313 146 89 39 216 27 0 0 68 172 127 10 0 0 0 0 0 42 250 371 782 1023 1676 1573 1655 1757 1574 1396 1793 1517 1482 1458 1584 1032 1571 1450 1591 1637 1715 1867 1735 1792 1796 1739 1699 1839 1875
396 473 236 48 162 171 250 291 0 3 224 124 51 3 44 0 0 0 0 75 241 387 790 1092 1508 1550 1664 1750 1607 1407 1696 1498 1605 1613 1406 1558 1585 1450 1549 1321 1495 1550 1737 1771 1693 1562 1708 1591 1869
330 472 187 175 183 99 50 371 306 228 95 91 62 23 7 0 0 0 0 56 219 404 723 919 1058 1420 1698 1606 1610 1545 1432 1637 1663 1602 1623 1365 1535 1566 1478 1477 1396 1544 1535 1739 1771 1825 1852 1747 1987
427 380 146 84 103 108 21 124 233 339 194 76 98 16 0 0 0 0 3 81 215 492 790 729 771 1086 1275 1252 1481 1565 1548 1629 1648 1741 1395 1563 1681 1476 1325 1268 1376 1517 1659 1698 1777 1731 1657 1814 1902
145 261 55 79 146 88 47 109 238 441 153 241 120 62 0 0 0 0 33 66 270 534 523 642 1142 1198 1085 1190 1355 1576 1603 1669 1250 1523 1388 1201 1323 1106 1219 1393 1337 1428 1559 1432 1679 1541 1597 1649 1945
253 181 45 43 106 90 70 140 215 377 329 300 173 0 0 0 0 0 38 155 270 332 260 694 649 915 1046 1057 1276 1287 1175 1316 1311 1425 1428 1314 1319 1421 1047 1426 1488 1388 1368 1403 1304 931 1041 1593 1189
168 199 41 154 60 28 41 55 39 219 283 182 236 24 0 0 0 2 94 196 181 161 256 481 884 935 1077 1159 1193 1139 1036 1021 1336 1350 1105 1154 1052 1157 1249 1293 754 834 1479 971 1080 1208 1348 1559 1240
74 26 19 149 83 23 43 10 14 176 284 188 246 0 0 0 0 21 107 165 217 156 278 519 560 949 975 1109 818 741 983 934 937 1221 1291 1032 1055 1153 936 758 862 564 763 1216 1156 1199 1715 1799 1815
1 0 0 6 127 58 48 49 39 250 213 190 63 0 0 0 0 2 70 107 113 216 239 346 393 428 1262 1033 684 753 910 1066 1108 1107 1364 1033 785 1010 950 1076 919 805 766 1053 1123 1467 1677 1662 1416
25 0 0 0 15 91 60 35 101 428 157 104 0 0 0 0 0 58 75 13 0 18 158 270 163 463 813 967 915 881 961 1262 1091 1013 1323 1362 896 889 984 1054 1059 1059 948 1077 1342 1777 1664 1567 1184
0 0 0 0 14 38 162 90 82 608 277 83 0 0 0 0 42 53 41 0 0 0 137 224 122 629 796 963 1009 1062 1119 1080 1129 1313 1418 1451 1149 1226 986 987 980 1041 1123 1407 1561 1706 1677 1060 951
0 0 0 0 4 91 136 39 135 218 289 204 0 0 1 75 116 52 0 0 0 0 137 176 97 480 759 767 810 852 1105 1288 1244 1215 1075 1539 1713 1578 1445 1305 998 1180 947 1281 1247 1252 1215 724 474
0 6 0 0 0 174 293 23 241 635 485 597 141 5 39 118 108 33 0 0 0 0 96 125 160 235 597 947 1000 1089 1248 1068 963 1319 1275 1508 1712 1531 999 1212 1388 1123 1107 1149 1127 1179 1186 694 562
3 7 0 0 58 320 168 41 610 601 738 529 616 278 141 97 82 10 154 54 0 0 8 118 226 397 677 844 929 982 1187 1201 1184 1051 1503 1473 1588 1652 1019 1134 1351 940 1002 1050 1200 1292 889 707 768
10 2 0 0 169 293 162 45 379 652 637 554 499 467 310 179 26 40 287 252 30 0 21 84 287 759 797 773 679 962 1100 1286 1160 1156 1318 1622 1310 1403 1615 1046 1270 1051 868 1126 1547 1136 1055 644 863
0 0 0 0 35 91 0 0 1 412 361 707 636 405 303 247 57 80 331 360 189 0 56 170 394 1011 1094 1048 1173 1085 1059 1194 1142 1379 1675 1279 1208 1233 1002 1234 914 911 991 1720 1480 1358 478 590 837
0 0 0 0 0 0 0 42 265 205 406 616 745 530 494 260 192 40 207 416 311 82 52 238 416 939 1193 1086 1442 1749 1447 1324 1234 1266 1118 1178 1236 1100 1065 1054 1129 1206 1206 843 1480 1463 1549 473 739
0 0 0 0 0 1 1 1 32 289 421 791 849 574 592 411 248 190 255 368 372 286 140 143 607 905 1172 1428 1233 1211 636 683 909 1241 1222 983 973 1271 1006 1013 1132 1178 1216 1185 1396 1339 1235 1034 523
8 0 0 0 0 0 0 1 43 240 172 189 734 770 766 820 583 360 256 329 331 401 332 285 537 805 849 1256 1285 1154 915 351 558 1179 1601 1314 1093 1165 1148 1076 1110 1441 1365 1438 1532 1860 1752 734 742
0 0 0 0 0 0 0 0 0 21 83 154 235 285 758 601 564 526 394 345 381 371 428 372 599 946 1067 1135 1428 1452 1018 888 954 973 1194 1316 1149 1062 1302 1715 1716 2065 1572 1817 1714 2043 2069 1751 1432
0 0 0 0 0 0 0 0 20 7 46 77 140 174 196 334 592 518 609 426 399 435 517 545 592 1061 1206 1095 1141 1319 1372 1408 1253 932 454 1026 1049 1066 1618 1571 1337 1423 1815 2101 1808 1954 1758 1979 1676
0 0 0 0 0 0 0 0 2 5 19 48 15 44 127 216 222 454 398 612 466 490 655 695 730 1074 1214 1223 1197 1314 1460 1322 1109 1020 426 915 884 1063 1894 1063 1493 1609 1397 1893 2109 1736 1241 1604 1762
0 0 0 0 0 0 0 0 3 8 7 14 2 4 38 268 258 227 829 748 615 546 617 797 901 1120 1330 1169 1307 1383 1548 1374 783 586 845 860 1025 1046 1902 1567 834 1088 1419 1714 1915 1563 1773 1821 1880
0 0 0 0 0 0 0 0 25 6 6 5 2 7 7 55 327 331 518 751 774 693 627 836 1000 997 1238 1223 1134 1306 1473 1502 1306 905 985 745 1000 1291 1438 1896 1637 1178 1093 1460 1489 1479 1789 2005 1634
0 0 0 0 0 0 0 10 6 9 8 3 3 6 7 6 22 80 69 367 871 763 626 778 984 1057 1170 1158 1071 1219 1257 1329 1312 937 906 1011 1424 1454 1577 1975 1854 1686 1562 1683 1723 1624 1357 1837 1547
0 0 0 0 0 0 0 12 13 1 4 5 3 3 2 3 4 3 1 2 34 421 658 781 838 879 943 1063 1070 1146 1152 1182 1071 1056 840 826 1130 1592 1475 1456 1807 2020 2000 2005 1765 1142 1211 1633 1646

GFSSGP_con_mlcape_099.txt.gz
CAPE
0 0 5 128 75 51 189 107 191 59 19 26 20 47 136 277 310 75 15 162 285 210 392 943 1404 1442 1605 1579 1485 1612 1615 1517 1492 1396 1414 1807 2061 1993 1902 1990 2244 2256 2189 1949 2030 1906 2142 2143 1957
0 0 102 417 132 101 256 193 91 74 5 1 6 13 180 229 19 0 43 158 187 154 252 880 1677 1784 1712 1571 1435 1796 1682 1795 1776 1422 1371 1210 1885 1894 1825 2033 2179 2254 2237 2008 2073 2039 2140 2140 2153
263 2 327 552 249 172 253 175 69 2 0 1 34 162 538 15 0 28 64 142 225 273 354 1314 1789 1923 1732 1556 1606 1727 1768 1746 1715 1385 1560 1933 1404 1819 1898 1857 2074 2135 2131 2227 1907 1834 1787 2020 1635
11 217 433 556 222 380 399 68 0 0 30 5 116 139 143 1 1 20 79 224 349 511 680 1210 1681 1589 1786 1650 1558 1651 1704 1738 1720 1422 1163 1418 1762 1876 1761 1773 2004 2044 1961 2100 1952 1842 1621 1691 1831
162 550 488 153 261 409 221 17 0 27 107 70 182 132 0 1 2 11 88 240 330 660 618 865 1887 1678 1692 1683 1774 1713 1587 1555 1461 1624 1194 1666 1521 1617 1605 1746 1933 1832 1889 1937 1829 1646 1901 1936 1996
330 685 155 197 296 397 229 7 0 206 282 192 182 39 49 2 1 10 93 230 338 458 775 958 1577 1685 1740 1567 1301 1712 1629 1730 1703 1660 1552 1776 1598 1576 1613 1696 1705 1791 1883 1837 1973 1930 1926 2024 2138
301 643 268 222 365 393 438 83 0 214 256 233 156 136 25 0 3 14 151 263 301 714 620 760 1144 1384 1677 1583 1580 1670 1767 1725 1816 1710 1649 1660 1520 1624 1504 1400 1662 1721 1837 1835 1969 1875 1910 2182 1949
531 502 240 268 273 413 273 603 421 407 263 200 255 20 3 0 2 31 142 199 274 376 443 618 560 1032 1214 1305 1609 1647 1665 1748 1746 1713 1567 1666 1540 1327 1448 1352 1648 1806 1789 1846 1816 1892 1875 1796 1228
465 260 45 130 160 370 116 180 505 646 249 282 455 12 0 0 12 80 108 179 194 303 332 583 1010 1229 1155 1152 1409 1429 1649 1491 1516 1286 1231 1097 1330 1237 1165 1201 1634 1672 1599 1752 1565 1410 1516 1360 922
290 102 197 132 198 260 173 322 508 439 379 393 313 1 0 0 21 70 82 132 159 263 442 681 999 897 1106 954 1367 1247 1120 1398 1304 1284 1455 1340 1249 1039 592 1138 1583 1512 1468 1202 958 1292 1730 1904 1579
350 88 181 179 185 133 231 357 157 404 455 411 48 0 0 0 36 39 56 90 214 176 456 678 978 904 1100 1062 1070 1129 1306 1037 1355 1186 1235 1039 800 1155 579 982 1011 1100 1305 1118 1171 1205 1341 1412 614
154 207 181 140 64 164 101 92 30 323 296 282 84 10 0 0 7 32 79 120 133 174 382 755 929 1015 1023 716 947 852 777 978 908 768 851 1161 1000 1196 1025 663 612 991 1437 1229 1246 1058 1367 893 770
132 57 19 218 174 94 27 0 17 295 260 422 366 0 0 1 10 32 42 124 96 238 266 265 668 1339 961 1071 641 791 866 897 749 998 1016 1042 839 634 822 825 720 794 963 1144 1197 1421 1434 1112 913
71 46 19 90 208 108 70 26 113 420 294 392 187 0 0 1 18 22 62 109 113 180 159 289 311 1097 1072 938 941 719 1086 994 881 986 1185 1003 700 971 792 970 732 806 878 1204 1475 1763 1390 906 638
148 114 0 40 142 141 140 53 127 362 255 127 30 5 1 5 20 17 54 90 79 105 146 218 271 538 930 774 851 986 894 1006 1079 1171 1317 1325 1031 1108 881 1038 1030 861 1230 1469 1431 1824 1162 1257 412
55 34 31 5 16 173 177 80 474 231 358 99 31 16 2 10 19 8 12 1 0 73 128 145 196 487 668 877 1049 961 1119 1087 1108 1087 1171 1487 1614 1420 1784 966 817 1200 1064 1000 1101 1424 1010 422 337
81 64 42 7 55 170 74 86 112 181 509 110 27 15 10 27 30 5 2 0 0 89 134 116 230 488 659 820 853 892 1526 1132 1113 1314 1294 1617 1659 1523 1473 1248 1788 1212 1109 1021 1039 1038 970 474 378
59 45 78 65 26 283 116 14 61 165 463 216 47 24 37 91 105 4 1 2 0 69 138 189 224 580 867 919 1079 1002 925 1274 1235 1191 1266 1487 1588 1643 1609 1516 1560 1438 1190 807 1351 1520 686 621 536
69 13 3 93 76 122 48 17 294 780 638 714 238 54 53 96 141 16 18 10 2 0 87 255 359 737 977 772 580 838 1322 1451 1432 1196 1451 1577 1468 1515 1676 1196 1334 1571 1041 1555 1425 717 1092 549 202
40 61 44 149 261 88 50 10 32 466 531 537 694 356 210 200 170 30 117 34 3 0 7 235 592 947 897 582 703 1030 1143 1413 1436 1221 1383 1640 1241 1326 1402 1109 1010 1449 1344 1570 1417 1430 922 284 415
41 54 15 6 273 8 4 37 103 180 346 671 623 536 477 259 134 108 186 140 41 1 79 242 722 1091 1072 1068 1449 1286 1537 1170 1410 1410 1297 1293 1267 1164 1398 1355 1572 1304 1192 1223 1208 1299 1311 1061 275
0 18 21 37 0 28 0 9 68 171 640 895 745 586 545 296 298 143 195 230 124 18 11 288 720 1179 1241 1258 1254 1095 807 722 1023 1084 909 1183 1274 1296 1317 1394 1504 1332 1308 1564 1375 877 1410 1077 411
15 39 8 0 0 76 4 43 46 101 274 670 833 821 630 429 429 150 183 281 157 109 11 289 651 1248 1258 1313 1656 1219 1244 935 1485 1300 1453 1271 1476 1362 1238 1279 1420 1519 1703 1218 1551 1695 2032 797 1251
24 24 10 0 0 26 74 6 14 104 147 491 737 922 771 688 456 393 270 355 258 170 142 201 741 1287 1389 1556 1390 1535 595 1254 857 1236 1407 1277 970 1280 1330 1316 1380 1596 1486 1567 1627 1824 1916 1945 1930
14 13 1 0 0 2 50 31 69 75 60 85 120 206 637 831 901 680 497 471 399 205 180 291 854 1305 1405 1344 1548 1653 1564 1428 1665 1307 1185 1042 1012 706 1450 1737 1771 1775 1887 1622 1771 1951 2032 1975 1583
5 0 0 0 0 0 11 121 88 61 3 1 0 11 149 363 847 829 668 569 483 335 247 321 954 1446 1615 1570 1558 1809 1815 1319 809 1153 648 688 721 948 1637 1407 1372 1766 1666 1641 1697 1733 1335 1467 1794
4 0 0 11 8 1 58 104 91 79 55 7 5 4 32 380 775 821 741 678 595 542 402 534 1003 1528 1825 1703 1853 1834 2021 1832 765 811 991 1123 786 1794 2023 1063 1704 1470 1403 1563 1813 1784 1567 1905 1845
0 0 0 0 9 9 91 59 95 21 3 2 3 5 8 164 497 583 378 586 687 636 615 712 1038 1470 1873 1922 1819 1816 1864 2050 1826 1049 1075 648 983 852 946 1440 1058 1205 1448 1616 1745 1444 1696 1653 1719
0 0 0 14 0 43 44 165 58 0 0 4 4 5 6 6 37 176 183 127 471 443 298 752 1059 1493 1832 1854 1814 1767 1729 1930 2049 1610 1297 1215 1203 1318 1633 1840 1513 1512 1265 1489 1787 1754 1934 2051 1756
0 0 0 0 0 0 11 30 3 6 3 0 2 1 1 1 4 3 2 0 1 0 5 583 471 1281 1362 1467 1581 1646 1748 1777 1770 1795 1445 1345 1307 1407 1443 1804 1917 1821 1652 1666 1591 1570 864 1361 1369

GFSSGP_con_mlcape_102.txt.gz
CAPE
0 0 15 72 12 100 93 208 122 21 36 21 71 148 135 103 148 53 258 368 238 509 888 970 1351 1506 1430 1468 1364 1363 1376 1371 1326 1519 1945 2048 1915 1946 2111 2121 2116 1839 1953 1997 2138 2093 1973 2000 1426
0 0 43 108 59 100 130 122 64 20 3 18 82 136 0 12 16 74 243 240 124 191 476 695 1206 1453 1433 1394 1943 1585 1735 1617 1394 1285 1290 1936 1779 1896 2101 2157 2218 1996 2008 1966 2003 2117 2107 2001 1413
0 81 35 114 150 201 42 56 22 17 2 39 219 95 2 0 6 62 112 81 59 222 776 1419 1527 1570 1383 1686 1677 1712 1735 1745 1336 1790 1896 1411 1942 1829 1981 2057 2110 2128 2013 1877 1777 1922 1643 1428 743
185 160 132 265 158 287 106 35 0 8 49 38 106 0 5 31 41 12 75 70 243 772 996 1701 1783 1592 1476 1683 1450 1609 1685 1469 1300 1216 1293 1712 1540 1759 1842 1954 1961 2024 2080 1946 1849 1793 1831 1469 1068
64 295 252 151 342 217 69 0 43 27 40 86 0 4 8 39 13 43 101 291 414 571 949 1310 1591 1728 1503 1563 1588 1610 1576 1390 1375 1533 1570 1597 1646 1642 1786 1961 1823 1933 1917 1803 2006 1924 1993 1742 1021
236 420 59 240 421 40 12 14 162 115 155 52 0 0 19 32 37 87 172 457 576 309 765 1117 1561 1670 1417 1371 1617 1533 1550 1635 1616 1614 1692 1593 1736 1710 1829 1799 1839 1859 1972 2080 1984 2020 2113 1738 870
254 424 168 160 430 162 12 76 323 204 173 38 0 1 15 41 62 87 271 392 402 526 742 991 1174 1423 1551 1432 1686 1628 1693 1679 1604 1675 1582 1580 1647 1418 1535 1779 1831 1858 1996 2006 1925 1950 1894 908 524
456 484 162 351 379 415 493 277 464 467 208 110 80 1 0 28 43 94 54 464 422 301 512 806 1030 1177 1027 1419 1546 1655 1669 1589 1610 1381 1700 1398 1470 1459 1535 1702 1926 1915 1897 1738 1657 1619 929 169 378
263 60 48 179 417 610 492 404 604 677 255 283 245 0 0 7 51 121 259 250 199 387 404 581 1005 1229 1150 1233 1435 1538 1682 1555 1227 1018 1019 1165 1301 1347 1519 1672 1829 1771 1740 1708 1670 1432 1196 882 606
133 31 66 192 345 270 185 78 405 533 292 383 1 4 0 2 64 124 155 109 145 305 556 832 864 1011 1217 724 1312 1256 1267 1345 1218 1172 923 912 1202 633 1107 1563 1584 1339 1270 1244 1504 1756 1345 1626 1121
116 64 272 392 338 181 360 620 442 432 402 224 8 0 15 9 73 76 89 128 133 377 677 560 955 909 1120 846 970 1139 1301 1261 1319 917 1165 1302 766 383 657 1066 1061 1073 1138 1268 1263 1526 1908 2043 1793
119 150 256 323 243 185 402 302 258 298 298 25 3 8 8 19 63 70 72 158 212 446 704 1040 1087 1372 1042 3 509 1070 1117 1220 1177 1041 1341 687 1051 1117 1163 1298 1366 1389 1612 1081 1209 465 510 798 335
136 148 356 138 231 189 107 110 152 300 321 166 36 14 6 30 55 83 69 53 371 390 697 953 1068 864 857 267 516 493 786 840 484 872 849 1266 505 1089 975 621 853 1025 1407 1370 1499 1015 1822 1174 542
53 62 138 275 192 49 12 17 30 354 302 341 39 23 9 28 58 76 90 3 89 228 105 636 1151 870 1073 905 486 41 193 692 865 984 1082 1220 872 693 769 1069 674 1296 1600 1404 1085 610 956 603 887
75 54 53 244 113 95 42 29 12 231 416 429 80 11 15 27 63 68 72 41 44 38 173 155 432 1009 1061 875 1012 660 449 720 1012 813 1365 1300 976 1334 709 914 1215 1153 1289 955 1704 1807 1756 827 763
23 92 79 225 280 181 63 24 40 252 351 278 50 9 20 34 44 61 50 49 0 59 164 119 87 510 913 973 1030 517 16 0 465 1137 1101 1569 1230 1327 1208 1078 1207 1062 1040 952 1280 1300 870 1451 676
38 52 56 61 163 195 159 146 34 116 487 134 39 17 23 45 49 48 19 3 1 57 182 65 311 321 828 772 1058 1214 628 524 1095 1204 1261 1253 1440 1394 1713 1359 1274 900 1432 1397 1008 414 694 1204 601
6 31 59 72 146 212 146 50 52 60 227 109 59 25 31 37 45 33 12 7 16 86 169 146 369 449 1008 685 1275 1091 1221 1031 1219 635 1207 1286 1513 1353 1155 1366 1240 1357 1353 1040 594 1266 1218 910 494
3 63 50 49 357 189 96 13 24 37 488 127 70 40 46 80 59 8 4 2 25 79 152 209 796 586 1032 913 682 900 1086 1323 1012 1095 1194 1202 1481 1253 1004 1220 912 1786 815 1367 1333 849 782 1059 751
0 17 74 114 142 101 60 8 11 74 120 249 48 27 52 93 37 2 1 7 3 0 155 214 926 585 1198 554 1038 1148 513 1185 1109 1360 1421 1439 1341 1328 1459 1195 829 1436 1460 1536 1513 1709 1357 845 571
0 2 0 86 41 0 0 24 1 0 0 197 258 130 95 84 88 9 10 7 0 0 124 265 1023 615 1129 760 1142 257 349 1201 1161 991 1379 1387 1304 1245 1371 1623 1447 1008 1667 1295 1429 1538 1087 1004 294
0 78 0 283 11 1 94 51 28 34 19 60 314 463 227 151 73 25 23 19 0 0 38 375 1237 790 963 891 995 1125 836 665 1129 1183 1209 1246 1049 1315 1430 1260 1769 1411 1482 1169 1550 1305 1482 1534 1252
0 36 1 7 10 23 49 29 2 27 17 15 384 677 541 196 99 65 38 43 17 0 54 367 1033 1115 1124 1081 687 667 361 0 590 413 1154 1115 1166 1021 1250 1536 1455 1374 816 939 1550 1299 1741 1932 1609
0 0 25 4 0 45 25 78 57 1 104 380 614 658 587 404 157 138 66 54 34 0 0 377 809 1244 1010 1332 1157 817 620 319 626 588 760 1205 983 1371 1196 1276 1568 1662 1049 1457 1678 1494 1643 1919 1697
0 7 34 21 0 0 91 104 108 22 1 17 221 267 339 567 285 192 160 162 136 40 40 428 727 1396 1496 1251 1410 1253 1004 610 418 783 1175 932 887 1116 1180 1209 1531 1711 1349 1381 1853 1838 1719 1686 1759
28 22 47 11 4 0 161 119 84 49 13 0 28 67 185 468 207 434 290 155 246 205 133 521 1028 1373 1486 1714 1683 1588 1366 1165 988 964 1119 373 257 488 1057 1482 1390 1548 1612 1704 1550 1834 1411 1681 1064
14 1 18 31 0 14 324 131 124 5 20 11 1 1 37 177 618 306 490 254 125 425 338 623 984 1369 1610 1555 1756 1980 1910 1460 737 676 438 698 690 513 1634 1679 1572 1534 1558 1646 1457 1357 1474 1498 1696
0 8 0 0 0 35 335 195 174 73 30 45 14 0 0 5 99 488 276 260 525 454 523 823 1292 1577 1808 2030 2017 2075 2166 2003 1259 1729 850 1166 1255 884 630 437 1701 1585 1510 1520 1560 1675 1601 1638 1834
0 0 0 0 0 16 200 116 132 62 7 7 6 0 0 1 1 2 23 43 232 121 81 50 661 1939 1557 2066 2206 2031 2116 2272 2170 1794 1076 774 1195 773 143 0 422 1038 1368 1631 1708 1442 1373 1281 1317
0 0 0 0 0 0 0 68 31 35 51 0 0 0 0 0 0 2 1 2 3 41 3 0 2 94 712 1332 1610 1722 2156 2177 2216 2038 1785 1324 1117 1121 1149 970 1304 1385 1481 1390 1746 1512 1686 1408 1742

GFSSGP_con_mlcape_105.txt.gz
CAPE
0 0 0 34 31 24 73 177 0 45 67 61 54 101 94 71 59 4 296 382 341 805 1328 1573 1553 1475 1579 1304 1297 1251 1220 1388 1807 2125 2024 1928 1942 2016 2073 1703 1907 1977 2156 2137 2002 2001 1422 1575 1387
0 0 30 82 25 38 98 143 28 108 161 20 0 24 70 66 100 288 263 241 463 649 844 1258 1345 1336 1352 1868 1334 1528 1345 1251 1213 1740 1801 1738 1998 2060 2049 1997 2041 2102 2056 2103 2145 2014 1699 1352 1345
4 23 37 88 15 56 23 36 6 125 74 19 0 0 9 87 185 123 102 272 345 466 653 1201 1186 1187 1791 1606 1740 1712 1765 1227 1638 1355 1639 1836 1718 2105 1952 2227 2083 2051 1832 1914 1782 1396 1129 996 1070
47 246 57 205 46 174 44 3 23 33 0 2 2 0 0 23 66 7 15 48 379 535 997 1379 1310 1366 1734 1607 1716 1611 1611 1164 1318 1295 1326 1506 1739 1824 1923 1971 2189 2012 1932 1816 1806 1512 1167 1064 1124
50 117 158 160 154 101 9 6 79 12 1 2 0 13 0 1 22 0 43 493 627 908 1283 1422 1455 1338 1646 1578 1543 1573 1430 1094 1720 1494 1566 1636 1621 1809 1952 1724 1948 1862 1856 1895 1882 1453 946 952 834
61 280 124 56 80 45 144 123 59 17 0 0 0 1 8 1 0 12 234 482 635 611 1061 1258 1438 1430 1513 1581 1418 1349 1354 1247 1640 1603 1547 1634 1703 1843 1707 1723 1817 2021 2000 1932 1913 1274 665 645 577
33 86 118 77 46 146 184 303 101 0 0 0 0 0 5 18 30 163 260 315 443 755 890 1219 1373 1328 1408 1523 1501 1529 1402 1533 1589 1514 1559 1534 1595 1687 1718 1779 1838 2053 1894 1676 1334 1011 573 421 546
189 171 132 133 11 97 485 297 155 12 0 0 0 0 0 39 160 171 118 221 508 641 593 863 1030 1078 1349 1415 1554 1547 1509 1524 1474 1397 1528 1499 1331 1574 1737 1869 1910 1878 1868 1909 1962 1374 747 539 280
46 17 75 154 148 65 547 385 386 290 18 6 0 0 0 41 76 173 140 294 263 664 777 782 993 873 1089 1170 1491 1514 1553 1352 1201 1269 882 1283 1109 1371 1518 1691 1796 1879 1810 1615 1497 923 547 674 663
52 1 0 120 480 301 397 422 352 244 158 132 0 0 1 19 127 171 134 165 268 474 682 834 948 915 906 1080 877 975 1059 796 733 691 829 1043 1063 1087 1079 1507 1491 1485 1546 1485 1100 730 892 1233 816
12 6 0 43 326 331 176 356 535 222 2 0 0 0 0 15 101 42 28 199 285 447 661 729 595 874 732 806 873 903 969 917 840 733 691 914 807 950 974 1080 1174 1006 1223 1227 1440 1490 1487 1470 1546
199 161 119 569 297 223 414 244 197 118 24 12 0 0 0 25 52 60 39 90 390 461 338 661 792 385 111 81 549 736 946 842 817 778 1053 252 434 540 674 959 1023 1211 1267 655 1115 516 963 861 937
74 63 185 404 277 306 292 161 164 45 66 7 1 0 6 56 66 53 68 211 427 387 548 710 263 272 1 0 250 461 507 760 652 861 679 831 968 606 798 1099 989 950 695 781 603 936 638 566 592
68 217 114 329 302 160 161 177 110 183 184 4 1 0 4 50 69 50 119 196 157 494 662 693 129 20 0 0 99 14 380 479 653 624 902 1048 801 861 830 844 1057 1205 1289 1316 443 580 893 776 354
78 52 106 235 117 113 67 25 54 308 352 64 16 1 6 33 67 29 65 245 337 555 469 732 313 92 8 3 33 11 378 526 753 1030 1338 609 621 723 766 1094 1281 1313 750 753 844 1105 1630 1286 736
0 35 16 152 121 96 23 0 11 147 313 157 135 39 11 37 78 22 12 75 108 137 286 409 669 358 320 329 82 0 42 297 232 932 1025 1030 1090 902 937 1140 865 535 946 753 1120 734 347 1113 891
0 0 50 224 200 120 67 0 2 61 188 104 126 60 10 32 64 26 1 20 103 119 97 112 587 318 651 414 126 0 4 15 346 1019 1111 1132 1004 1405 1100 1227 1011 1034 1219 1068 693 746 725 745 348
0 0 156 201 296 150 82 10 0 17 131 60 84 62 18 23 46 12 0 0 99 100 0 219 282 564 505 799 350 177 211 431 732 937 976 1069 1253 1281 928 1595 854 1409 758 689 543 802 1044 804 383
0 7 47 127 362 170 72 2 0 1 66 96 130 47 20 15 21 4 0 0 82 72 0 457 301 655 338 623 739 782 676 868 542 244 970 1166 1247 821 690 965 938 1122 869 839 628 1047 1344 918 801
0 0 11 301 287 83 126 44 0 19 51 80 134 27 24 21 16 4 0 0 57 73 43 424 466 509 254 797 958 987 751 1064 826 883 962 1139 1192 1012 833 985 845 1376 979 1050 1272 1285 1275 1105 227
0 0 2 135 7 5 38 46 21 2 13 67 56 136 26 13 2 0 0 0 50 66 149 503 407 466 415 680 676 364 410 927 948 992 1124 1108 1127 1268 1416 1341 1019 1214 1283 987 1072 1173 1042 747 597
0 1 182 92 8 0 110 0 0 0 9 21 28 130 50 25 3 1 0 0 46 60 190 435 480 252 751 1281 548 69 372 584 721 832 1016 1077 921 1326 1074 1588 1292 1347 1107 1092 1086 1771 1592 1259 1408
0 164 203 11 0 9 27 49 1 0 0 0 32 23 18 18 11 18 0 0 0 35 167 390 662 371 538 991 1013 590 387 138 455 799 1018 1058 1080 1449 951 1290 1284 1159 712 775 982 1629 1024 1547 1535
0 0 38 110 3 68 146 143 84 8 0 0 4 0 18 61 48 63 24 0 21 62 194 409 660 569 777 823 764 647 11 0 330 628 1050 995 943 988 1294 1142 1131 659 1047 739 1481 1464 1220 1216 1536
0 0 0 2 3 0 104 131 41 24 0 0 0 0 181 151 72 89 112 71 65 94 211 276 746 759 771 1072 719 670 354 503 612 430 578 904 1005 1110 1069 1265 1340 1247 904 838 1433 1635 1262 882 1289
0 0 0 2 0 0 46 90 48 30 22 49 28 16 167 264 160 193 296 74 20 96 227 310 628 624 688 913 1048 942 569 572 229 451 861 1067 878 828 771 1252 1284 1112 1247 1166 1293 1315 1280 1586 835
0 0 0 1 6 6 196 230 224 81 6 52 87 91 79 56 126 225 212 303 139 50 260 362 472 667 762 849 1325 946 992 339 268 414 837 843 319 480 1089 1144 1241 1169 1034 1223 1426 1185 1084 931 1365
0 0 0 0 0 10 97 230 184 100 45 6 8 15 10 28 73 136 55 284 346 259 339 513 532 589 1109 894 1345 1195 1220 1104 1235 1460 1311 903 767 448 37 578 1085 1342 1317 1506 1099 981 1348 1474 1287
0 0 0 0 0 0 31 90 214 66 10 2 0 0 3 17 17 4 22 40 200 62 141 178 86 47 9 69 428 1067 1201 1246 1143 1027 1041 909 667 467 0 381 700 968 1461 1238 1392 1193 1327 1228 1447
0 0 0 0 0 1 175 102 44 0 0 0 1 0 0 4 8 3 4 1 3 8 0 0 1 16 0 0 144 762 1237 1287 1088 963 1660 961 905 695 429 48 0 657 1309 1242 1088 980 823 1112 989

GFSSGP_con_mlcape_108.txt.gz
CAPE
1 0 0 19 19 18 36 38 83 38 54 29 0 20 40 54 63 2 224 353 424 669 1287 1631 1786 1950 1897 1728 1641 1798 2067 1939 1815 2180 2191 2263 2065 2035 2148 2084 1962 2002 1998 1631 1582 1575 1520 1325 1225
0 2 55 112 0 33 35 78 37 33 29 18 26 62 55 105 115 205 225 269 517 1023 1447 1547 1566 1491 1518 1404 1303 1260 1336 1799 1924 1770 1994 2360 2172 2076 2102 2119 2117 2090 2082 1958 1602 1534 1340 1059 893
0 0 69 69 1 43 38 88 15 21 35 49 18 55 134 216 224 199 200 415 704 923 1065 1250 1315 1748 1724 1677 1870 1547 1273 1182 1714 1944 1885 1870 1893 2116 2089 2038 1977 1858 1992 1600 1562 1504 1389 1044 850
1 87 44 14 16 36 54 48 6 0 3 50 61 87 151 94 129 177 271 254 217 518 1102 1302 1364 1662 1619 1791 1770 1643 1548 1905 1448 1815 1807 2042 1976 2175 2196 2151 2038 2000 1942 1649 1332 1299 1370 1439 1343
29 88 0 5 18 10 49 10 0 0 2 42 31 60 55 17 146 187 149 194 70 689 1157 1097 1556 1581 1685 1599 1627 1579 1074 1376 1524 1515 1635 1896 1856 2048 2031 2042 2026 2065 1960 1775 1477 1313 1184 1007 1101
29 180 32 17 69 109 64 9 0 0 8 0 9 44 15 21 40 98 260 367 331 706 1151 1348 1250 1584 1691 1525 1545 1485 1337 1885 1683 1656 1866 1761 1988 1921 1931 2007 2092 2161 1921 1853 1373 1077 683 680 1276
67 83 95 60 75 89 93 1 2 18 0 0 0 12 8 0 69 300 459 622 737 942 1098 1278 1344 1483 1461 1542 1481 1476 1501 1666 1564 1588 1741 1970 1945 1905 1959 2120 2237 2116 2055 1913 1387 779 649 851 919
167 3 5 71 51 126 84 5 0 11 6 0 0 0 0 0 246 341 415 290 385 811 904 1023 1112 1342 1205 1510 1533 1523 1649 1610 1545 1582 1754 1703 1985 1834 2003 2182 2209 1962 1888 1674 1137 750 758 750 609
129 1 7 6 75 61 199 20 82 113 13 0 0 0 4 117 186 165 240 407 367 500 662 877 664 1188 1093 1306 1471 1506 1562 1432 1139 1594 1474 1524 1494 1785 1766 1988 1998 1840 1733 1417 1066 685 532 466 740
136 0 3 43 113 32 193 122 47 37 1 1 0 10 106 149 101 198 336 257 255 401 610 567 541 794 976 1336 1187 1145 1217 810 771 992 1209 1078 1315 1356 1628 1851 1925 1833 1595 1065 758 644 717 911 604
1 2 0 18 23 5 396 172 164 22 10 1 6 38 74 94 107 283 183 248 352 511 639 709 673 689 773 831 731 748 630 585 684 774 908 1016 1029 1288 1101 1417 1484 1369 1439 1345 1381 1200 1138 1227 1427
0 61 129 433 354 149 314 290 143 120 84 10 8 38 95 148 145 134 116 243 380 495 650 692 645 558 360 555 585 759 696 738 774 740 756 805 810 716 654 686 806 916 1165 779 1046 767 977 739 538
0 160 74 343 312 406 310 161 89 34 23 33 13 77 147 116 60 125 167 257 389 436 575 507 484 272 100 256 472 537 771 735 720 829 635 421 391 401 684 879 973 746 629 461 748 781 629 396 129
0 199 430 366 329 358 174 80 65 18 39 17 7 12 59 94 53 129 262 343 333 364 440 455 267 45 0 29 232 275 402 615 590 678 602 582 863 437 703 857 872 780 1181 885 409 868 1036 451 220
256 124 33 197 210 275 137 46 28 200 117 9 9 18 27 53 115 154 224 241 308 394 297 229 191 20 0 9 220 176 538 485 718 918 846 774 758 804 853 789 849 1024 711 427 620 1255 654 730 486
204 181 78 259 120 244 48 70 55 170 57 0 32 28 25 101 128 182 229 227 456 462 235 344 139 0 0 41 81 65 321 414 588 819 766 663 638 564 1220 1013 1005 940 709 890 1131 341 507 872 717
0 0 33 3 109 110 83 33 95 209 214 55 44 41 27 106 150 237 272 281 484 298 460 370 335 330 210 281 17 0 190 211 424 959 909 1085 1210 1113 1005 1077 837 1032 1064 867 656 827 848 561 485
0 0 122 137 153 112 89 16 69 187 153 35 73 67 61 61 76 208 295 371 256 348 320 396 416 445 357 420 44 0 99 102 584 807 931 1031 1076 890 925 1200 853 1030 743 707 565 700 1161 908 522
0 0 162 236 190 191 88 44 48 146 76 0 104 140 52 71 68 58 196 178 117 91 174 479 314 531 452 473 222 134 79 476 622 699 893 1120 1089 875 801 1201 702 1003 885 576 1093 1134 1002 671 651
0 0 1 172 78 125 90 38 42 103 80 1 74 166 48 92 58 64 167 143 106 67 213 260 297 495 484 776 590 633 672 711 600 576 978 972 1080 660 616 842 569 973 829 958 1031 1178 855 663 235
0 0 0 0 147 30 76 18 22 84 33 15 92 96 103 75 33 74 167 162 109 112 290 287 374 298 336 864 697 558 587 816 805 707 892 1040 1043 946 884 947 836 1113 951 870 1008 1320 1316 969 981
0 0 0 45 9 0 9 0 28 11 65 69 104 111 98 39 51 78 130 161 119 125 323 374 373 344 414 604 671 440 590 661 679 624 797 992 1023 1129 1244 1043 906 1233 1116 905 1140 1577 1360 1304 1246
0 2 118 177 36 2 0 2 1 3 45 35 75 68 101 47 17 1 114 133 149 167 281 379 402 392 662 1068 622 360 509 536 736 858 983 989 942 1098 994 1153 1254 974 789 785 1210 1441 1175 1421 1596
22 256 203 86 40 0 11 17 27 13 28 56 86 62 143 19 54 2 128 141 151 214 305 322 305 336 637 872 883 182 290 445 643 754 857 923 977 1102 974 1125 1043 917 744 571 1423 1333 1071 1072 1580
0 228 29 32 7 1 6 22 18 14 27 48 103 67 43 2 9 157 62 131 140 224 271 345 327 445 436 716 858 541 141 130 653 638 858 895 819 919 995 1029 878 549 839 840 1329 1266 1014 1042 929
0 0 0 0 0 0 1 0 18 38 14 1 5 21 24 28 2 165 45 122 120 151 225 402 353 487 498 737 785 513 178 440 487 554 742 741 760 924 843 1055 1264 1082 787 953 1109 1212 1153 1250 1090
0 0 0 0 0 0 59 96 112 34 0 30 2 85 86 84 164 167 197 159 133 148 214 273 444 523 550 872 700 664 393 501 482 347 568 855 825 743 913 1015 1140 1061 926 1051 957 984 1089 948 1015
0 0 0 0 0 0 36 83 55 62 31 33 16 0 5 3 140 169 113 232 184 194 336 333 643 524 460 620 897 962 598 307 128 0 470 764 665 558 746 893 1084 1013 902 1010 1198 1047 892 1099 1063
0 0 0 0 0 0 13 45 83 47 0 0 0 11 64 73 30 25 62 128 167 164 168 214 195 218 105 128 349 578 1032 1025 642 1075 1101 1010 585 489 162 621 441 871 1169 1204 1301 835 1265 1060 977
0 0 0 0 0 12 78 72 2 0 0 0 0 0 11 50 98 40 4 65 127 75 38 39 11 20 0 0 47 122 412 846 1093 1239 974 806 732 452 23 89 394 550 947 1307 1289 1176 1035 977 968

GFSSGP_con_mlcape_111.txt.gz
CAPE
28 8 9 46 9 17 34 31 47 0 0 9 0 11 67 67 83 3 230 368 480 865 1181 1494 1631 1831 1799 1848 1993 1880 1836 1701 1457 1333 2167 2120 2203 2228 2147 2124 2010 1937 1651 1603 1471 1404 1221 1161 1036
0 19 20 92 18 35 33 77 37 15 2 0 32 79 150 128 225 279 301 499 602 1063 1475 1596 1699 1811 1603 1577 1767 1892 1975 1989 1755 2085 2163 2136 2190 2293 2202 2232 2244 1942 1628 1735 1535 1255 1142 1207 1037
1 8 11 15 5 28 28 64 46 25 19 0 174 196 231 244 242 237 370 505 873 1226 1414 1621 1290 1461 1249 1207 1264 1317 1741 1942 1850 2032 1968 2096 2158 2277 2282 2217 2333 2222 1809 1590 1452 1115 946 972 1035
11 0 9 1 3 47 70 31 45 18 19 98 176 182 174 229 213 235 507 597 778 998 1023 1347 1793 1717 1694 1652 1521 1259 1169 1602 1991 1697 1826 2273 2264 2151 2154 1883 2122 1751 1665 1688 1593 1520 1204 1136 1412
94 44 0 29 6 46 32 29 31 24 23 100 56 51 80 163 209 327 384 514 365 611 1027 1403 1665 1509 1727 1530 1510 1723 1674 1453 1805 1866 1812 2122 2292 2325 2299 1760 1850 2020 1649 1560 1641 1627 1649 1406 973
49 96 9 4 1 65 13 21 32 44 63 35 14 52 119 187 118 173 193 111 630 713 767 1417 1364 1496 1604 1374 1588 1253 1683 1584 1671 1759 1806 2121 2205 2170 2166 2144 2276 2069 1820 1724 1491 1092 1339 1292 629
88 91 8 24 25 7 0 3 45 44 45 37 22 2 106 119 64 93 74 288 746 884 868 1242 1339 1513 1483 1458 1464 1690 1896 1751 1545 1521 1871 2023 1994 2107 2207 2317 2303 2029 1877 1719 1268 910 1134 1478 1060
56 6 5 21 30 41 8 6 26 12 26 33 0 7 22 30 178 424 338 594 714 968 901 1058 1215 1238 1411 1501 1500 1688 1832 1739 1611 1830 1914 2066 1966 2148 2378 2320 2185 2033 1828 1519 1258 1106 1102 991 1244
137 0 3 16 69 21 55 34 96 40 19 18 0 0 0 179 365 322 343 477 629 980 934 960 1115 1030 1308 1392 1539 1671 1611 1621 1712 1636 1805 1938 1738 1965 1991 2234 2105 2003 1802 1466 1190 920 945 938 1044
108 0 2 24 121 35 50 129 44 0 13 66 0 0 121 227 230 228 101 83 329 545 774 716 907 869 1197 1438 1372 1370 1360 1137 1386 1395 1361 1330 1499 1526 1813 1985 1981 1777 1456 1074 770 657 791 822 468
0 1 2 34 145 57 30 85 39 1 4 2 26 51 142 158 189 73 100 32 56 363 675 513 640 787 977 1041 919 819 759 723 881 1001 972 1137 1229 1402 1449 1381 1334 1307 1473 1227 1279 1027 934 1051 1191
0 0 5 248 60 12 176 53 20 8 2 13 90 137 98 115 152 220 100 121 216 455 489 503 481 527 691 727 624 598 574 610 691 811 827 858 827 988 993 1078 1001 955 1042 828 948 630 598 625 850
0 0 172 369 153 106 267 148 60 5 4 69 131 160 105 97 176 170 134 229 379 471 601 549 523 416 280 328 572 641 740 790 725 736 781 719 615 486 637 709 848 850 591 513 755 755 742 131 45
0 8 315 469 452 330 156 47 15 40 55 37 80 115 124 104 144 153 170 296 394 480 549 515 440 204 240 344 465 475 645 697 741 590 523 413 416 314 548 842 865 687 939 606 500 1021 782 178 127
167 175 374 386 373 255 125 45 11 3 0 36 70 99 104 70 92 170 200 311 324 459 476 461 336 8 11 134 310 260 533 611 600 716 657 362 711 610 500 692 800 797 580 426 881 854 344 580 269
195 107 103 265 240 179 29 43 8 36 30 15 60 79 49 55 103 211 271 285 333 384 369 340 231 0 0 34 259 231 405 470 650 849 779 843 748 772 937 788 804 966 741 862 767 405 520 647 658
0 0 68 58 212 194 65 40 32 108 27 15 9 42 39 29 108 240 278 349 333 316 234 256 148 15 0 52 76 34 269 361 498 715 755 753 676 933 1039 993 886 820 991 752 660 744 850 542 400
0 0 0 11 56 146 112 35 90 99 3 5 59 18 34 72 109 175 238 342 334 315 211 181 66 0 72 64 0 0 164 196 424 737 710 843 1185 924 1169 946 995 930 712 671 569 929 1008 765 545
0 0 8 186 190 184 76 33 39 60 25 13 48 66 67 85 143 161 213 392 352 232 224 231 281 246 227 232 0 12 206 158 501 631 714 933 1015 798 1085 923 784 923 906 655 1075 1149 809 589 414
0 0 17 159 137 121 81 63 65 129 95 35 24 88 78 134 138 166 209 318 220 238 202 168 295 267 250 383 130 94 89 269 491 529 795 879 915 736 650 864 510 798 820 891 939 1164 913 844 487
0 0 0 31 169 152 87 54 54 74 64 45 4 54 66 55 71 164 194 244 144 226 273 275 224 315 368 616 412 424 504 570 581 483 700 855 992 633 551 767 674 1092 873 782 1011 1268 1124 1148 1053
0 0 0 0 49 11 6 1 62 67 36 18 16 47 104 55 59 189 208 185 95 121 194 260 226 360 357 651 464 458 408 385 577 368 725 807 942 927 853 1055 820 1208 1093 776 1083 1459 1312 1381 1218
0 0 0 6 26 0 0 0 0 32 28 7 0 4 97 56 32 168 137 123 93 77 181 246 235 265 356 517 494 438 386 372 481 558 677 864 868 832 1077 886 827 912 768 868 1214 1094 1253 1453 1497
75 169 158 105 36 5 2 0 22 28 28 3 7 46 57 40 41 69 113 139 77 131 225 240 253 288 344 502 438 383 378 418 462 609 689 770 830 825 769 972 1078 949 646 645 1213 1157 975 1136 1280
0 59 44 19 31 0 8 4 29 60 36 56 11 56 82 69 30 113 78 108 115 161 217 260 244 278 488 647 684 376 167 314 377 570 699 640 644 767 820 827 874 751 832 655 1196 1099 943 1010 783
0 0 0 0 0 1 45 26 40 33 33 80 75 102 78 95 62 53 121 118 124 199 228 248 237 236 402 625 727 451 277 144 416 533 640 723 741 775 898 928 882 798 719 814 1047 1093 959 1199 1024
0 0 0 0 0 1 6 86 87 20 4 22 68 45 47 47 115 34 135 155 75 146 287 273 265 244 344 574 639 561 74 9 155 439 547 696 626 696 723 834 986 1030 1013 884 768 965 1176 973 887
0 0 0 0 0 0 1 15 94 14 24 19 19 10 11 30 76 11 33 91 167 145 267 614 373 335 364 732 648 688 444 342 241 350 354 499 640 596 613 816 949 962 853 878 992 956 871 801 982
0 0 0 0 0 0 0 18 24 34 0 3 22 7 0 28 51 161 138 117 132 162 225 341 287 300 296 465 596 655 656 603 359 55 46 350 466 527 534 614 832 918 825 787 891 953 856 909 968
0 0 0 0 0 0 6 0 16 34 1 10 24 27 3 13 54 0 11 41 112 128 102 51 3 83 153 181 225 263 393 513 706 763 696 1009 787 453 235 304 541 618 654 987 1146 1232 1082 905 929

GFSSGP_con_mlcape_114.txt.gz
CAPE
60 14 5 34 31 21 26 52 24 0 0 0 0 0 21 130 68 0 172 303 315 529 1043 1479 1683 1847 1735 1699 1605 1599 1611 1366 1698 2211 2173 2177 2145 2103 1976 2015 1979 1673 1734 1373 1530 1391 1228 1290 1538
0 16 58 87 30 21 29 79 0 0 0 0 33 131 134 151 223 181 257 437 562 693 1138 1362 1524 1773 1729 1828 1797 1940 1798 1695 2114 2201 2064 1794 1947 1969 2104 1951 1762 1816 1715 1633 1481 1347 1200 928 1135
2 8 0 0 12 18 14 58 0 6 0 0 143 213 206 164 163 158 373 580 737 1009 1307 1505 1712 1573 1497 1606 1813 1875 1941 1968 2159 2122 2204 1998 2213 2371 2269 1824 1931 1848 1669 1533 1369 1214 1205 1308 1222
1 13 0 1 18 96 57 27 36 0 0 81 149 153 177 127 167 313 560 693 722 1085 1370 1304 1403 1224 1306 1301 1298 1575 2017 1780 2058 2043 2189 2136 2307 2127 2191 2196 2011 1796 1641 1491 1240 1293 1300 1239 1239
5 27 1 27 52 67 24 33 44 13 14 96 103 74 93 208 263 431 537 698 821 865 936 1550 1663 1661 1674 1738 1290 1309 1424 2026 1820 2024 2220 2105 1790 1643 1902 2081 1775 1721 1778 1637 1649 1685 1438 1349 1436
82 17 8 22 63 55 23 35 45 34 42 5 0 0 115 265 169 334 437 585 596 627 1087 1517 1388 1651 1611 1581 1517 1439 1651 1670 2009 1950 2153 2365 2121 2152 1865 2177 1961 1667 1715 1619 1588 1526 1221 976 1358
20 31 17 24 59 18 0 32 32 25 4 0 0 0 113 142 138 212 326 458 726 764 1042 1043 1191 1519 1485 1479 1240 1667 1444 1879 1778 1996 2235 2334 2132 2255 2322 2163 2074 1846 1666 1504 1465 1463 1473 1087 1470
12 0 17 36 44 20 19 34 6 23 4 0 0 0 8 116 110 164 266 621 675 774 893 1054 1206 1243 1238 1410 1563 1436 1518 1672 1700 1961 2067 1996 2104 2175 2115 2067 1974 1841 1702 1567 1470 1343 1191 1224 1430
28 17 35 34 43 35 56 30 49 8 0 0 0 0 42 177 159 41 119 449 536 757 774 1017 1084 1097 1293 1259 1484 1534 1585 1557 1836 1981 2055 1777 1888 1987 1955 2190 1979 1802 1627 1565 1272 1102 915 951 1021
79 0 21 29 6 18 124 42 20 5 0 0 0 0 101 135 65 0 87 187 393 581 700 913 869 1005 1110 1384 1358 1332 1390 1473 1428 1573 1474 1471 1598 1678 1941 2027 1971 1797 1539 1266 1021 844 857 686 480
3 0 11 34 73 23 131 67 4 0 0 0 0 0 58 74 112 55 129 104 211 485 667 730 768 1013 1117 1106 1047 984 794 993 1136 1047 1106 1236 1149 1365 1347 1330 1243 1100 1110 787 839 663 648 735 996
0 0 0 0 192 9 116 39 0 1 12 0 3 2 69 104 162 109 94 86 149 376 585 543 683 798 949 827 717 590 590 677 757 802 876 896 791 987 1041 898 774 844 847 619 784 543 575 522 687
0 0 52 261 156 29 88 19 6 0 24 11 71 84 95 115 140 67 95 88 137 232 374 410 492 519 616 447 481 479 574 607 631 671 628 595 597 610 651 632 807 649 503 516 613 751 419 78 69
0 8 311 301 72 151 52 15 23 21 27 62 86 46 85 124 121 112 118 129 174 279 297 327 337 260 241 307 497 526 645 710 669 659 732 584 392 358 529 733 757 708 851 459 537 758 470 155 148
212 51 456 456 268 123 71 6 9 46 43 97 79 83 85 144 149 117 102 173 232 336 344 311 335 111 221 322 403 399 576 638 670 504 439 329 499 543 406 560 719 772 551 680 940 231 495 480 238
191 152 156 336 238 143 56 80 47 53 51 96 101 117 96 145 138 118 156 232 285 345 352 345 281 31 50 138 261 312 476 509 593 732 686 430 642 665 550 728 750 874 769 641 514 663 584 574 581
3 28 88 183 213 115 57 50 4 50 26 71 82 128 122 38 91 139 181 242 312 361 341 348 212 5 0 47 175 162 334 398 512 707 715 751 635 691 1017 856 874 770 916 825 572 790 943 553 326
1 0 0 1 109 146 79 57 23 29 26 62 40 129 120 60 120 193 214 241 307 327 270 244 161 23 0 2 8 14 194 268 362 700 651 704 673 885 936 821 861 819 741 540 756 1049 815 659 498
0 0 0 213 153 132 60 58 0 13 28 9 32 33 97 109 113 193 240 280 320 287 252 186 77 2 0 27 0 0 198 200 351 576 667 755 980 840 952 696 898 735 787 890 1014 1037 730 543 363
0 0 27 225 225 124 80 68 79 88 39 5 30 2 41 79 131 171 221 278 277 251 135 109 40 9 109 96 0 0 149 129 374 464 670 727 753 682 840 804 621 690 794 779 943 1106 737 981 832
0 0 0 93 224 170 110 29 45 72 43 17 38 43 60 125 147 206 180 236 247 231 107 129 180 181 188 241 47 144 249 283 450 448 580 759 863 666 594 705 547 957 793 675 968 1196 1179 1111 1049
0 0 0 0 0 0 63 0 0 85 35 52 14 34 42 97 145 181 169 206 183 179 143 140 178 202 199 405 260 249 284 352 428 408 553 657 834 813 536 734 611 999 913 704 1132 1236 1316 1420 1194
0 0 0 0 0 5 0 0 0 79 93 44 12 30 37 71 66 139 172 189 171 162 166 157 177 166 294 509 374 423 400 382 394 442 543 687 745 789 896 902 665 956 841 721 1183 885 1168 1461 1338
87 21 26 14 2 0 0 0 0 3 40 51 17 7 6 84 13 57 135 101 108 80 165 229 188 198 307 476 415 342 276 297 400 388 527 735 688 682 653 855 678 771 703 704 1159 955 887 1149 1081
4 0 0 11 10 2 0 0 0 1 22 55 17 0 2 72 31 22 32 103 85 108 153 185 209 219 246 415 385 378 275 359 412 413 493 542 662 696 568 848 786 794 751 530 1215 1013 816 957 745
0 0 0 0 0 0 29 0 0 1 14 49 32 1 5 76 57 31 29 56 76 85 167 201 218 209 331 383 521 420 255 226 303 423 588 576 496 611 788 769 764 791 692 789 958 1109 927 968 870
0 0 0 0 0 0 17 48 46 7 26 84 50 4 5 38 63 57 55 107 80 97 174 221 213 204 336 462 555 423 133 125 244 386 525 597 591 667 691 845 873 873 909 739 740 982 1051 951 879
0 0 0 0 0 0 4 33 20 34 17 97 97 61 22 41 118 108 53 92 109 97 139 260 245 206 255 412 519 431 285 38 73 156 364 577 654 588 628 670 789 956 951 893 821 764 849 792 819
0 0 0 0 0 0 0 0 63 72 30 18 55 69 77 97 111 55 55 52 99 130 126 256 305 219 265 412 487 516 496 409 265 116 161 335 491 558 535 485 568 774 741 716 787 883 913 846 782
0 0 0 0 0 0 0 0 9 79 10 20 2 27 3 24 60 156 126 97 41 70 160 194 129 139 140 220 358 304 332 370 531 454 223 109 256 344 462 432 457 623 789 759 764 797 990 920 865

GFSSGP_con_mlcape_120.txt.gz
CAPE
2 3 7 179 263 274 44 4 0 0 0 0 0 1 283 505 253 114 188 445 468 692 907 1036 1550 1884 1678 1709 1553 1707 2065 2269 2047 2206 2216 1750 1607 1604 1772 1610 1570 1358 1358 1420 1455 1544 1435 1405 1257
109 60 294 779 184 39 22 0 0 0 0 0 7 161 362 290 125 175 423 432 549 772 855 1131 1365 1616 1572 1616 1616 1832 2244 2136 1909 2078 2212 1992 1893 1421 1665 1807 1670 1489 1460 1273 1462 1324 1250 1643 1039
13 64 324 390 121 12 4 0 0 0 0 106 262 449 509 120 132 334 396 562 705 843 1015 1165 1585 1748 1834 1947 1940 1958 2214 2173 1794 1838 2050 2026 1943 2043 1811 1831 1805 1702 1525 1430 1381 1555 1570 1460 1284
1 16 354 241 63 107 7 0 0 0 219 379 361 410 173 109 319 433 541 574 549 648 1024 1341 1728 1831 1931 2035 2015 1952 2088 2182 1768 1657 1651 1910 1986 1849 1933 1791 1448 1255 1284 1120 1594 1503 1621 1554 1393
34 87 184 214 69 34 0 0 0 84 338 380 408 318 92 408 395 465 527 388 335 591 803 946 1213 1226 1319 1425 1861 1977 1970 2159 2106 1723 1567 1793 1945 1952 1991 1834 1637 1511 1384 1670 1546 1594 1611 1844 1716
253 281 172 33 26 13 3 0 0 26 304 200 125 94 402 434 376 434 361 285 400 291 1034 662 1459 1860 1463 1279 1294 1795 1952 2059 2063 1835 1693 1735 1898 1987 1815 1838 1703 1566 1654 1807 1545 1295 1336 1580 1367
515 368 225 114 83 114 51 0 26 163 163 164 21 52 362 339 363 334 311 315 197 762 1098 931 1254 1522 1686 1808 1783 1587 1962 2051 2229 1793 1776 1820 1794 1861 1879 1809 1538 1621 1622 1750 1622 1462 1461 1549 1763
66 408 317 204 76 158 159 174 130 176 136 38 0 5 142 327 292 251 244 200 237 674 806 1066 994 1368 753 1103 1716 1679 1821 1984 2056 2177 2164 2073 1904 1744 1674 1311 1762 1661 1467 1329 1307 1306 1271 1390 1589
67 193 57 233 182 206 96 32 104 72 67 0 26 0 112 273 194 138 172 188 298 477 705 779 955 1232 987 1397 1563 1685 1822 2083 1965 1841 1795 1734 1486 1134 1421 1480 1725 1607 1231 991 967 894 830 1486 1397
248 196 13 121 189 128 132 74 68 44 67 40 0 36 130 109 111 79 166 142 287 538 751 757 827 833 944 1048 1528 1481 1548 1352 1843 1615 1737 1493 1314 1566 1141 1470 1576 1252 976 716 681 576 789 904 764
113 102 3 0 127 177 24 43 64 31 0 45 28 42 24 75 46 71 150 149 286 341 418 504 1164 1249 1225 1485 1142 1251 1273 1349 1691 1585 1569 1013 858 1012 985 1234 1272 1113 1133 1212 1190 1190 900 1086 1087
88 45 100 21 163 204 114 38 45 60 26 0 0 28 44 27 0 57 112 215 354 349 428 466 872 1265 1058 783 848 708 871 978 962 1342 1140 1148 1144 1561 1370 1375 1404 1523 1481 1606 1404 954 1187 744 1244
36 119 139 225 140 146 21 0 30 25 0 0 0 19 37 0 0 70 100 202 368 337 439 501 762 1069 1033 1136 676 528 446 720 853 984 994 1275 1329 1523 1537 1798 1413 1638 1388 1333 1437 1268 1043 662 767
0 4 87 300 67 136 12 9 0 3 2 0 0 22 37 42 2 79 117 174 334 285 380 464 600 707 999 1040 972 751 583 837 828 572 1325 1807 1505 1524 1692 1551 1414 1572 1513 1665 1433 1689 1211 655 595
0 121 278 412 195 117 2 0 0 13 6 10 35 54 74 116 135 118 123 173 304 239 338 409 530 706 1055 1133 854 625 618 644 700 833 1580 1553 1407 1780 1592 1536 1307 1574 1755 1666 1659 1565 1489 773 636
29 117 205 502 309 7 0 13 30 80 41 32 67 80 129 193 167 178 165 214 343 176 301 344 340 650 995 1072 892 684 803 696 670 976 1049 1439 1673 1870 1718 1389 1272 1777 1636 1417 1420 1527 1122 933 962
129 114 277 482 433 102 3 7 6 101 86 139 165 150 200 266 249 251 255 340 414 291 404 329 396 444 808 917 943 1069 1352 734 913 1080 1043 1467 1557 1879 1684 1298 1527 2000 1537 1412 1450 1460 1535 1125 979
90 150 271 358 537 321 113 131 17 125 90 73 160 242 251 282 297 311 296 388 505 361 580 714 765 637 880 867 1134 1019 916 848 920 1059 1088 1544 1485 1959 1684 1362 1758 1744 1252 1371 1934 2155 1804 1531 1457
133 84 138 371 462 299 170 169 57 92 22 7 49 135 244 265 345 369 366 441 517 606 642 593 690 740 510 717 552 571 668 878 986 1018 1485 1673 1565 1991 2113 1231 1586 1587 1426 2002 2222 1703 1799 1392 1618
0 2 167 323 538 498 191 172 369 249 20 0 13 41 216 232 303 435 461 456 607 640 715 776 865 1033 358 556 665 591 708 734 853 1032 1420 1364 1514 1788 1703 1692 1336 1772 1572 2048 2476 2359 1566 1512 2024
0 0 212 188 357 385 379 287 365 395 285 10 3 33 102 228 307 495 560 496 593 757 713 787 923 988 878 487 675 862 1036 692 763 1051 1204 1309 1304 1467 1674 1819 1829 1783 1860 1360 2227 2295 2590 1606 2137
2 0 104 357 186 124 304 170 421 412 391 110 32 9 5 82 294 347 556 591 603 715 727 685 956 1011 740 677 566 495 429 573 772 988 992 1103 1240 1294 1445 1645 1745 1875 1518 1849 2017 2225 2740 2930 1857
0 0 0 0 0 0 100 36 213 374 415 329 242 17 15 38 152 329 365 546 662 729 670 458 867 835 526 1046 843 610 642 433 546 741 1018 1046 1352 1510 1232 1541 1751 1810 1514 1927 2325 2560 3043 2378 2193
0 0 0 0 0 0 4 6 213 199 271 286 304 226 82 47 114 233 345 478 671 685 687 454 637 1011 969 1121 742 694 799 638 713 795 842 929 894 1116 1504 1470 1791 1894 1880 1728 2033 2389 2803 2722 2819
0 0 2 1 2 0 24 4 48 213 239 227 478 322 169 84 39 172 307 479 631 654 729 496 598 909 1024 1118 898 724 719 917 894 844 802 788 788 776 1394 1585 1716 1692 2164 1840 2278 2435 2194 2433 2411
0 4 12 34 39 39 85 6 70 185 309 410 507 393 337 233 83 91 292 513 648 578 700 597 719 774 999 957 1171 934 689 573 750 844 696 597 603 988 1177 1419 1484 1676 1833 1777 2306 1701 1649 2000 2001
0 0 0 24 46 71 146 74 454 341 316 317 391 491 354 343 119 96 152 413 494 540 641 695 708 982 1049 856 1164 1259 877 583 664 979 1122 936 831 539 916 1087 1040 1343 1384 1648 1916 1309 1817 1884 1868
0 0 0 0 52 38 104 91 124 480 378 475 503 570 532 342 97 158 226 362 522 510 552 711 794 1016 999 805 957 906 975 1096 1074 882 1090 1249 1056 793 1009 950 1099 1163 1360 1356 1645 1322 1825 2209 1669
0 0 0 0 0 37 48 89 494 581 495 616 606 637 632 505 368 284 415 473 544 540 466 611 809 945 899 949 691 891 792 1005 1281 919 1165 1427 1254 1171 1239 1163 1027 1062 1207 1414 1675 1282 1468 1886 1796
0 0 0 0 0 9 24 130 553 712 592 772 716 711 633 525 514 468 425 536 788 707 499 742 918 860 872 893 940 684 785 669 765 964 933 1371 1484 1653 1300 1324 1207 1165 1180 1392 1442 1167 763 1347 1285

GFSSGP_con_mlcape_123.txt.gz
CAPE
0 0 16 697 937 564 50 0 0 0 0 0 2 80 249 570 335 141 336 475 585 651 766 1237 1626 1222 1501 1461 1303 1917 2039 2130 1543 1684 1651 1714 1907 1780 1663 1495 1400 1543 1580 1551 1467 1445 1124 872 1098
65 102 547 1033 368 29 7 0 0 0 0 0 35 214 77 76 96 219 346 433 556 599 882 1083 1595 1523 1590 1731 1957 2094 2023 1963 2074 2021 2157 1747 1822 1851 1808 1668 1483 1425 1482 1379 1309 1590 893 768 421
229 152 718 481 223 8 1 0 0 0 26 66 428 378 90 99 201 366 358 527 627 858 1321 1226 1734 1742 1753 1821 1934 2168 2007 1894 2020 2098 2107 1928 1878 1847 1881 1711 1652 1416 1408 1553 1682 1565 1713 1372 608
61 55 673 306 39 27 0 5 0 0 320 321 348 50 31 164 325 330 393 680 701 926 983 1331 1770 1863 1893 1884 1846 2004 2075 1818 1683 1978 2076 2043 1911 1939 1578 1335 1209 1294 1450 1676 1616 1609 1733 1527 1400
6 107 545 119 41 33 28 2 39 299 295 327 194 14 141 267 271 325 196 239 312 430 761 1218 1544 1594 1713 2009 1852 2009 2055 1908 1785 1819 2091 2055 2000 1956 1632 1573 1349 1588 1716 1599 1593 1631 1521 1256 885
488 645 216 32 47 49 36 18 182 301 380 373 97 137 283 190 218 159 199 203 348 304 281 298 1350 1298 1160 1354 1857 1912 2108 2051 1864 1923 1816 1931 2005 1945 1849 1760 1608 1616 1542 1440 1400 1497 1732 1219 724
512 219 133 26 52 63 49 55 87 277 218 79 31 102 118 173 147 150 211 255 601 632 721 873 1275 1399 1779 1415 1624 2049 2098 1908 1891 1876 1794 1990 2018 1903 1927 1625 1750 1742 1747 1602 1539 1513 1702 1830 1261
498 743 110 73 126 118 63 152 201 172 122 101 92 49 87 165 111 202 167 203 518 741 881 1132 1019 957 1347 1610 1580 1830 2144 2169 2059 2098 2103 1872 1640 1656 1576 1157 1677 1561 1551 1545 1430 1205 1379 1494 864
101 467 222 131 141 218 291 266 307 280 173 124 96 27 118 118 132 119 156 300 344 518 655 840 858 1095 973 1096 1247 1631 1869 2224 1581 1788 1556 1726 1813 1643 1699 1094 1593 1341 1024 894 642 631 1167 1561 1069
349 405 413 480 201 188 136 231 215 215 205 111 11 65 85 134 94 109 173 238 376 420 751 855 865 711 1101 948 1643 1137 1217 1776 1725 1579 1657 1704 1668 852 631 722 836 613 747 872 883 951 1074 1668 1624
318 271 87 58 358 237 90 210 114 77 72 46 140 42 81 66 73 144 135 267 260 588 685 687 959 1401 1121 1311 1654 1446 1399 1430 1301 1527 1514 615 768 1142 679 1389 1328 1304 1494 1397 1304 790 738 690 841
145 10 29 30 209 100 52 53 73 123 72 47 65 0 33 42 36 150 147 248 273 310 396 893 1030 1547 1339 665 932 967 1028 945 847 1162 952 1000 911 1348 1188 793 831 1111 979 1038 806 618 570 905 990
187 161 112 78 220 287 57 153 74 19 9 30 0 0 13 18 45 113 153 181 240 327 367 616 977 1156 1303 1281 587 593 628 847 839 904 1102 1044 1133 1292 1260 1428 976 1152 847 851 852 764 643 611 1079
190 342 197 465 196 51 30 0 0 30 11 1 0 3 12 15 59 85 164 231 186 321 348 549 744 1037 1200 474 677 322 829 614 761 775 1421 1689 1432 1648 1535 1511 867 1047 1066 905 1141 1692 741 650 703
69 227 390 355 402 158 26 25 0 2 26 2 20 43 42 23 63 107 141 223 246 258 343 389 620 932 906 622 495 458 353 645 518 1222 1789 1633 1414 2088 1474 963 1070 1141 1172 1718 1217 1368 1243 783 636
13 249 403 498 452 160 47 8 0 3 48 36 58 62 56 74 116 142 146 172 195 267 350 325 458 725 682 659 471 357 572 508 606 822 1265 1568 1794 1635 1874 1556 1248 1188 991 830 938 1174 920 1006 959
185 170 213 623 447 205 31 48 24 0 63 63 79 82 74 109 159 182 170 212 140 280 449 405 464 695 655 731 747 669 822 547 610 651 801 1317 1398 1640 2136 1450 1269 2189 815 948 1375 863 1426 1111 886
207 135 290 452 497 187 84 29 40 84 32 52 92 91 83 85 121 184 131 225 216 275 515 506 455 690 979 678 661 749 724 399 600 778 1486 1302 1284 1507 2260 1330 1335 2411 1060 1113 1526 1979 1360 1317 1428
9 30 22 267 585 303 156 86 83 69 89 96 65 130 124 88 115 122 180 202 253 303 512 657 633 779 792 665 502 568 484 555 503 720 1277 1526 1364 1566 1807 1528 1329 1710 1194 2064 1954 1979 1567 1174 1200
6 95 158 160 529 368 216 142 115 59 40 24 29 50 79 117 164 138 216 219 241 361 496 625 793 937 910 837 708 791 638 775 812 961 747 1171 1193 1645 1393 1796 1686 1206 1264 2175 2326 2288 2476 1092 1427
2 29 111 211 391 357 223 188 166 54 81 0 1 5 66 121 83 206 265 209 289 246 544 772 1034 1044 814 753 970 1076 1051 864 995 1207 944 1038 1197 1196 1635 1673 1961 1296 1619 1728 2370 2432 2265 2223 1464
5 0 11 5 213 148 316 176 330 216 158 0 0 15 50 75 207 174 188 299 201 312 331 607 879 1146 1042 983 854 914 636 643 693 637 1017 1161 993 1043 1430 1569 1645 1786 2052 1386 1894 1977 3524 2575 1595
2 0 3 177 197 68 136 71 0 462 434 157 16 0 47 1 154 154 155 200 309 258 242 421 861 1131 1025 1132 1064 898 887 895 852 925 1340 1616 1181 1113 1147 1462 1666 1694 1138 1713 2181 2487 3205 2539 2850
0 0 0 0 27 11 46 90 103 390 513 529 155 20 4 0 55 169 192 112 239 256 234 231 619 1117 1025 1378 1252 1265 881 928 795 827 1232 916 1002 1145 1400 1349 1642 1693 1926 1744 1815 2386 2709 3128 3119
0 0 5 19 51 29 36 53 298 128 340 624 330 218 21 0 13 51 125 213 329 418 181 254 572 964 1076 1152 1101 1107 1339 1090 774 1296 907 1022 720 666 1380 1394 1516 1546 2026 2091 2257 2310 2264 2597 2694
0 1 78 87 90 85 72 60 325 242 340 447 642 413 235 2 6 7 187 170 355 311 202 263 745 958 885 928 1124 1254 1115 1016 1173 1177 955 448 467 872 1555 1447 1495 1656 2103 1861 2051 2073 1676 1991 2221
0 0 25 14 0 11 8 132 427 229 389 390 410 685 504 172 36 6 109 304 494 280 403 393 805 1034 894 716 1177 1344 1127 1066 936 1307 1443 964 787 808 1002 1306 1502 1381 1642 1751 1673 1503 1667 2107 1914
0 0 0 0 7 43 112 127 6 219 234 336 435 746 563 476 185 40 53 184 390 366 665 566 729 1162 910 625 729 824 920 1115 983 1079 1397 1209 1096 642 941 1129 1070 1230 1440 1485 1608 1146 1753 1788 1896
0 0 0 4 11 20 40 278 324 389 346 451 551 598 716 585 493 110 87 167 479 619 712 727 868 1170 1100 747 557 643 654 795 1273 909 1004 1343 1471 1098 1076 1032 1145 1152 1162 1328 1672 1285 1937 1956 1676
2 0 0 0 0 0 0 1 26 187 519 581 628 791 811 730 636 184 65 239 418 298 859 831 951 1061 1128 953 892 606 638 734 966 1222 1252 1317 1427 1290 1396 1155 1259 1196 1188 1278 1379 1320 864 1164 1222

GFSSGP_con_mlcape_126.txt.gz
CAPE
0 0 84 414 617 278 31 19 7 0 1 89 117 29 137 135 110 194 345 409 531 638 923 868 1047 909 711 866 1011 1393 1004 1145 1428 1554 1790 1766 1754 1588 1553 1522 1604 1543 1521 1498 1269 848 924 1324 1187
32 94 322 768 124 32 8 2 6 0 0 258 119 31 63 78 203 290 510 597 540 684 793 875 1390 1480 1226 1327 1621 1617 1550 1472 1671 1739 1851 1897 1810 1690 1594 1572 1652 1593 1452 1620 854 662 397 726 858
79 278 415 78 67 12 0 12 0 2 59 297 36 4 5 40 168 416 437 494 814 963 977 1411 1511 1666 1756 1862 1679 1672 1934 1838 1921 1765 1971 1934 1843 1739 1756 1510 1406 1590 1682 1634 1688 1721 1214 337 200
265 249 573 284 87 5 17 0 0 133 122 40 0 15 124 61 251 424 418 627 808 1158 969 1334 1702 1627 1814 1873 1873 1798 1751 1808 1900 1965 1907 1917 1733 1528 1419 1491 1358 1636 1598 1737 1711 1692 1394 803 0
27 136 204 87 52 18 4 9 69 108 172 16 0 27 91 41 75 352 440 459 659 816 1043 1612 1877 1906 1946 1782 2071 1938 1856 1811 1980 2048 2144 1974 1671 1474 1242 1283 1728 1680 1683 1532 1568 1053 908 408 0
140 193 20 78 41 25 67 82 209 179 195 18 0 38 33 71 50 305 388 229 229 496 548 727 1246 1375 1728 1851 1945 2107 2056 1938 1827 2042 2117 2113 1998 1931 1882 1717 1746 1542 1469 1510 1651 1571 762 302 10
308 165 97 54 48 29 83 120 150 84 81 39 17 19 59 64 69 184 262 247 180 115 619 936 858 1147 1312 1877 2063 2077 1999 1777 1637 1712 1895 1959 1966 1785 1785 1677 1749 1675 1555 1436 1403 1461 1211 344 98
100 98 176 82 44 45 51 123 109 102 53 27 10 12 66 65 69 155 331 451 533 674 1042 1347 1041 1385 1086 1331 1822 2248 1925 1866 1738 1537 1500 1440 1436 1405 1236 1193 1468 1437 1175 984 1124 1145 1243 600 228
366 73 99 61 80 75 152 165 83 95 93 88 67 32 55 64 75 203 248 441 578 715 707 1011 1018 1496 1155 1134 1710 2073 1903 1553 1497 1221 1277 1335 1382 1318 1349 688 813 743 614 641 864 1117 1142 1259 1098
284 1 20 5 170 186 210 176 161 57 89 70 69 22 42 61 65 116 256 434 493 483 708 753 786 1056 993 719 1319 1614 1549 1590 1647 1524 946 1018 1632 851 405 452 640 815 746 800 980 1066 1115 1502 1725
155 0 3 16 189 146 191 148 172 96 61 61 45 20 69 67 86 97 207 295 572 612 566 823 947 1075 1123 1679 1598 1513 1513 1316 1170 1408 1053 747 378 325 492 637 840 1064 1295 1042 1194 1589 1375 1494 1877
231 367 28 260 174 147 158 86 116 69 60 44 27 27 45 53 48 63 128 315 440 699 507 948 1562 1506 1331 1734 1422 1373 1665 903 1017 905 1021 1075 415 64 703 1052 1186 818 1422 1444 910 503 968 1004 1020
146 91 57 193 223 77 159 123 82 42 49 27 7 15 27 55 32 97 97 160 521 671 830 890 1265 1327 1211 1109 837 856 849 905 416 731 1052 1142 1083 944 832 1257 919 1432 944 743 1375 781 697 1170 1183
229 153 208 327 137 231 70 0 25 42 55 11 12 18 27 55 30 84 81 157 165 228 656 808 1015 1364 981 884 564 908 530 548 960 1343 1445 1232 1063 1760 1396 1160 1475 370 740 1030 1257 1329 820 834 984
198 275 455 347 68 18 2 0 0 22 46 30 25 21 40 56 64 139 148 126 262 222 377 663 757 1017 553 610 395 616 332 700 1150 1422 75 1313 1446 1581 568 1489 785 560 1139 1412 1638 1464 1160 548 796
120 232 256 328 287 49 0 1 0 1 54 36 41 36 40 60 54 104 153 150 103 241 240 477 717 424 627 670 546 366 423 999 959 1194 1260 1523 1616 1443 1713 931 531 1481 1934 1643 1010 1248 1065 1265 970
38 243 293 478 393 119 99 8 0 0 11 46 56 64 53 62 64 72 98 132 141 311 225 543 560 717 470 698 986 951 757 739 742 1227 992 1242 1116 1058 642 1004 1096 2205 2437 1140 1694 1751 1346 1062 1227
106 117 170 369 404 276 56 45 0 0 8 45 46 67 50 59 115 93 122 142 226 400 347 363 528 710 351 921 494 513 654 704 1260 1163 1203 1171 1017 240 675 1681 1572 2171 1726 1262 1849 1653 1513 1723 1305
183 50 12 188 188 356 160 20 0 2 41 73 86 57 111 57 164 101 158 155 146 359 332 652 847 828 834 881 265 674 861 748 1434 1400 1441 1341 1119 1129 1573 1778 1697 1261 1455 1685 2082 2218 2421 1860 1540
10 18 94 16 32 349 156 27 3 38 144 160 74 95 166 96 122 113 196 253 229 424 333 569 671 811 633 731 811 885 378 890 632 1360 1259 1091 1114 1214 1292 1705 1547 1304 1905 1492 2052 2137 2599 2024 1463
16 9 163 0 1 3 227 142 147 36 125 91 49 9 19 101 129 121 208 288 310 317 432 525 437 969 952 747 817 610 757 915 547 592 861 1072 916 1084 1207 2073 1837 1857 775 1512 1976 2222 2894 2882 2258
5 44 81 1 0 39 376 56 116 98 13 74 31 0 24 120 44 83 126 209 300 380 445 815 801 921 968 897 834 908 597 634 591 1051 861 842 817 993 967 1424 1629 1754 0 895 2103 2235 2709 2637 2827
1 0 26 3 69 52 412 71 18 182 41 1 0 0 0 125 53 133 211 42 135 490 702 869 909 885 774 664 836 573 850 811 807 488 1082 916 1151 959 1068 1397 1496 1634 1746 1847 2050 2062 2460 2921 2354
2 0 16 1 0 21 176 195 0 105 104 108 41 1 0 81 36 18 116 152 222 176 256 948 932 654 729 1037 770 847 981 610 849 898 921 1160 729 859 987 1373 1534 1737 1571 1654 1635 2142 2747 2287 2719
0 0 2 0 86 68 106 119 56 25 333 356 147 95 9 80 0 1 62 58 176 244 173 544 1028 695 1111 943 1101 1225 911 882 624 836 1086 830 799 877 1156 1322 1317 1598 1391 2020 2055 1968 2437 2433 2066
0 0 9 69 82 52 69 174 197 133 23 509 556 250 37 52 0 77 158 70 27 62 141 364 1056 794 911 1107 935 1130 1369 1156 1159 1108 1162 933 662 575 1395 1244 1704 1060 1541 1634 1720 1933 1604 2168 2006
0 0 0 0 0 0 22 55 332 26 30 389 703 477 98 87 0 8 134 0 0 12 107 845 889 1010 1195 1204 992 872 1213 878 1049 1030 768 757 812 974 1219 1472 1609 1149 1347 1532 1685 1462 1653 1516 1870
0 0 0 0 0 0 24 44 162 262 31 479 846 535 372 139 1 1 48 3 1 0 109 1030 1080 1118 926 967 1235 1173 1251 1186 1231 1234 1447 1306 1182 673 1143 1126 1069 1191 840 1334 1230 1509 1629 1115 1483
0 0 0 0 0 0 12 201 215 2 0 14 173 721 636 161 50 36 78 298 188 76 184 858 1116 1331 1026 887 970 923 1143 1328 1202 1159 1290 1366 1558 1146 875 934 1116 845 1305 1304 1260 1252 931 1346 1597
0 0 0 0 0 0 0 8 196 0 0 3 188 755 888 593 236 200 42 90 281 51 165 396 1103 1244 1157 647 865 974 948 1416 1267 1044 1104 1395 1503 1447 1287 1116 1236 1170 1263 1250 1192 1435 1003 1247 1214

GFSSGP_con_mlcape_129.txt.gz
CAPE
0 0 42 305 278 320 54 7 21 114 81 114 76 83 50 117 50 50 328 565 797 581 544 611 469 390 435 705 705 710 521 852 807 1397 1769 1591 1631 1593 1579 1648 1639 1567 1401 1118 1193 1430 1315 1173 950
0 7 177 263 133 45 2 0 22 79 41 87 74 101 104 107 149 209 345 486 593 688 698 711 826 678 973 954 976 1049 750 977 1781 1881 1810 1748 1710 1620 1593 1647 1590 1686 1148 605 350 367 847 920 912
0 275 344 105 98 21 4 2 41 63 0 16 0 35 140 273 294 362 317 554 692 630 1065 1411 1042 1099 1209 1406 1518 1430 1515 1400 1760 1839 2010 1847 1745 1660 1574 1390 1652 1584 1683 1918 1286 404 81 232 412
185 301 93 191 90 21 1 39 93 6 1 2 27 109 179 279 280 406 580 648 685 641 1367 1618 1669 1708 1741 1604 1827 1837 1953 1731 1845 1920 2006 1912 1629 1505 1564 1478 1492 1659 1736 1560 1322 860 63 23 107
39 47 220 122 108 11 109 119 43 10 2 3 0 112 167 289 226 447 903 796 673 597 1470 1659 1766 1555 1930 1812 1867 1751 2022 2049 1781 2065 1807 1455 1487 1535 1609 1677 1610 1567 1458 1194 1099 1009 38 0 0
126 98 78 78 68 46 93 165 73 26 39 2 0 16 110 172 203 283 644 655 640 1041 1389 1508 1889 1762 1816 2095 2053 1834 1739 2073 1929 2119 1970 1844 1685 1690 1813 1575 1538 1479 1489 1504 988 312 0 0 0
136 31 96 125 71 54 25 46 129 11 9 0 0 4 77 282 226 177 266 508 579 482 498 888 1168 1512 1695 2173 2039 1783 1576 1615 1974 2181 1948 1890 1555 1830 1732 1644 1484 1309 1342 1421 1468 843 98 0 0
186 85 142 114 89 139 128 146 93 22 23 0 5 8 42 164 56 10 20 30 157 436 444 517 900 1100 1804 2003 2020 1997 1790 1675 2022 1976 1696 1690 1539 1472 1292 1245 1403 1289 1259 1122 1123 828 476 199 76
7 10 46 48 130 142 135 87 76 62 21 8 27 0 10 42 113 184 114 398 659 845 851 699 964 939 1158 1727 2021 1824 1527 1319 1677 1504 1478 1184 923 934 1044 773 1269 1257 1316 1138 991 613 238 383 483
56 0 7 8 62 179 84 7 104 52 16 20 9 26 62 124 119 192 348 393 528 618 789 943 1020 960 1006 1300 1514 1313 1377 1046 868 405 707 921 1289 1011 677 898 1175 1043 1049 1130 1075 1063 1309 1244 928
0 2 1 0 47 149 220 80 130 31 12 3 9 0 39 40 134 272 331 314 301 458 695 215 695 716 746 595 1195 1193 1423 1462 1002 65 65 843 855 613 437 143 13 306 892 992 1347 1444 1082 1137 1268
27 0 0 23 114 298 236 143 56 86 19 20 22 15 13 35 122 136 105 202 279 337 465 591 320 504 1141 1031 1228 1245 1400 1063 1274 1071 924 116 14 42 148 11 19 91 829 1158 945 447 242 976 1143
27 0 0 181 229 240 94 26 52 49 17 36 33 20 23 37 38 48 173 400 359 433 648 740 878 1026 997 741 1059 1182 1382 768 691 727 639 468 0 87 267 629 635 827 976 1128 986 1006 1001 914 782
164 33 48 253 213 185 54 17 49 22 9 15 26 13 18 23 37 91 216 291 314 423 618 847 879 955 1132 897 622 879 977 516 883 112 0 554 778 735 778 255 478 711 714 470 942 931 750 740 693
165 213 237 265 186 59 0 0 16 2 8 0 0 10 32 42 60 75 190 318 422 328 456 418 628 459 484 411 579 440 500 1096 738 615 217 578 525 275 762 1216 1226 232 566 863 1027 1078 1414 671 703
169 117 146 168 191 29 11 0 7 4 2 1 5 17 27 38 51 45 47 31 246 331 308 238 254 217 451 169 281 589 493 777 445 0 486 228 866 927 728 718 1125 2226 2131 2011 1542 1327 1490 504 619
13 47 91 286 327 89 59 0 0 4 5 4 28 33 52 49 76 47 88 71 122 163 365 406 91 189 478 401 848 696 552 639 589 806 1061 643 252 19 217 290 827 1519 1198 965 1641 1497 1666 1607 772
16 104 96 154 336 66 110 6 0 0 6 21 62 30 43 42 57 82 46 109 59 129 354 267 306 245 303 688 433 563 694 736 784 1027 1007 769 184 0 0 481 1503 1150 1007 1439 1612 1706 2108 1993 1729
86 108 185 107 56 284 131 14 0 0 23 58 86 42 53 47 67 61 39 99 93 201 229 309 386 150 313 602 109 257 464 1069 815 621 940 795 68 42 838 1410 432 823 1631 1558 1523 2016 2407 1460 1331
43 44 65 12 0 14 142 1 0 0 19 78 76 40 47 82 59 83 102 174 218 199 290 320 167 231 412 671 298 689 528 862 857 880 945 986 1266 1312 759 1500 915 1089 978 1505 2028 2324 2407 2413 2054
4 7 73 87 0 68 111 19 0 0 46 148 78 30 42 81 77 70 90 61 241 141 327 293 220 407 314 439 509 590 844 454 560 674 628 649 819 847 915 1460 1181 492 318 774 1535 2207 2450 2240 2061
180 98 57 3 0 0 6 30 10 5 34 110 54 16 40 25 78 76 116 187 185 135 185 238 202 62 256 541 419 185 102 193 183 303 691 720 800 674 771 1277 1364 791 279 765 1517 1977 2363 1861 665
126 31 10 0 0 0 0 10 45 66 16 14 33 4 1 21 36 68 75 238 196 201 266 199 185 164 424 531 631 555 237 387 761 516 843 530 896 917 830 927 1158 1538 1283 1285 1677 1920 2229 1400 0
21 140 104 132 21 5 27 4 48 69 21 3 27 0 0 0 2 38 80 108 211 217 501 447 320 278 609 593 540 339 264 497 592 468 442 702 479 705 647 1147 1037 1469 766 893 1671 1832 2337 2324 279
0 19 1 7 4 5 9 100 102 65 111 51 70 30 0 0 0 20 33 80 177 368 565 579 337 279 499 637 329 536 772 438 460 492 388 570 588 499 355 999 957 1200 1116 1525 1895 1827 1854 1960 1951
0 0 0 5 0 0 0 64 76 52 167 201 47 30 2 0 0 4 22 32 116 146 424 686 383 286 337 653 453 831 720 610 564 641 758 945 829 693 697 892 1107 860 1326 1542 1498 1710 1640 1904 1682
0 0 0 0 0 0 26 329 367 169 56 104 46 197 24 0 0 0 0 22 14 32 297 688 479 431 455 577 854 1041 866 604 532 734 979 829 623 718 685 883 1187 928 1245 1604 1641 1520 1329 1727 1932
0 0 0 0 0 0 7 220 161 20 87 34 0 0 126 3 6 15 19 62 31 19 262 522 629 353 470 787 681 737 893 883 1005 924 795 650 645 705 830 894 936 1243 840 1201 996 1039 1299 1448 1492
0 0 0 0 0 0 15 16 310 156 125 0 0 5 2 91 34 0 122 130 88 23 91 246 581 297 607 1264 834 589 673 818 1018 937 827 1029 1114 438 402 383 692 943 974 935 954 884 982 985 941
0 0 0 0 0 0 0 81 263 165 274 4 0 46 216 103 99 26 74 48 28 11 21 183 168 214 602 941 979 842 688 895 842 858 915 977 897 947 751 696 882 959 622 787 942 826 1142 1117 970

GFSSGP_con_mlcape_132.txt.gz
CAPE
0 0 56 324 128 103 37 76 82 45 70 98 91 69 162 198 9 7 229 288 291 343 534 554 642 767 838 625 588 586 798 977 1603 1660 1544 1695 1644 1656 1621 1343 1493 1450 1519 1447 1152 920 1174 982 963
0 2 102 204 77 0 42 60 80 71 119 128 118 114 138 119 273 382 403 477 272 515 578 498 657 864 861 830 865 886 1285 1343 1324 1783 1591 1652 1658 1630 1465 1553 1590 609 504 396 963 1258 1233 942 930
4 29 354 85 61 0 19 44 17 74 88 75 114 126 94 127 329 376 415 266 400 415 710 925 883 962 1131 1102 1101 926 1442 1658 1578 1233 1673 1730 1634 1561 1397 1586 1236 1040 696 233 232 411 646 735 639
122 263 125 94 50 15 55 44 18 34 80 71 48 55 205 354 256 321 401 456 402 821 1076 1225 1401 1489 1567 1524 1550 1245 1669 1743 1945 1718 1756 1784 1439 1431 1573 1480 1500 1514 1262 1118 660 143 147 293 317
34 73 119 105 56 46 31 36 39 23 87 120 6 53 190 320 320 448 625 450 665 1215 1445 1457 1592 1491 1693 1892 1983 1818 1879 2023 2105 1932 1744 1521 1493 1468 1514 1450 1481 1380 1258 1119 737 288 24 55 0
152 67 59 74 121 93 72 22 46 16 33 96 14 109 168 436 468 584 544 322 845 1203 1532 1572 1665 1817 1620 1789 2045 2061 2072 2138 2023 1644 1650 1591 1594 1781 1577 1522 1437 1438 1284 689 248 39 0 0 0
78 55 48 71 87 83 83 25 31 26 10 38 36 43 130 299 531 568 485 290 965 1249 1503 1563 1738 2044 2116 1878 1813 2171 2080 2123 2156 1917 1887 1617 1539 1529 1679 1588 1527 1530 1521 1343 946 197 0 0 21
79 28 64 126 70 40 98 71 36 11 0 23 93 131 116 282 387 486 423 500 618 781 1017 1300 1542 1678 2108 2047 1666 1424 2109 2242 2230 1941 1746 1497 1361 1673 1770 1671 1664 1565 1501 1263 854 763 559 411 517
10 53 59 95 129 133 177 44 2 4 12 0 0 133 144 161 220 319 267 177 194 210 256 708 1206 1510 1544 1714 1901 1962 1857 2023 1895 1733 1650 1438 1238 1181 1273 1104 1554 1456 1337 1299 1106 592 376 256 411
8 19 43 13 105 2 154 67 4 7 7 1 4 121 47 31 155 136 122 276 475 375 366 484 753 919 1361 1747 1544 1636 1287 904 880 963 1121 734 849 809 887 645 1263 1473 1227 1073 1170 1227 1317 1224 884
1 10 17 26 26 30 138 107 15 2 2 0 6 36 47 70 74 182 301 469 527 623 809 856 873 717 786 1193 1022 1137 954 779 70 267 381 762 877 844 443 234 3 3 479 1330 1224 1161 1095 1115 1021
0 0 0 12 3 59 196 122 74 40 5 1 4 33 65 123 224 300 317 383 545 602 704 850 745 673 500 711 895 1178 1207 1041 528 239 743 247 175 187 124 78 101 335 524 720 974 691 828 628 981
1 34 0 2 10 115 121 49 36 11 3 15 21 58 62 180 217 274 255 329 419 439 17 583 433 557 524 924 1111 1155 1130 852 781 660 546 219 0 0 164 408 238 446 569 780 920 808 615 800 635
152 19 0 19 42 215 50 39 20 18 5 17 2 8 27 183 158 180 175 275 292 240 399 488 279 820 905 829 914 1054 1053 630 101 109 90 162 276 509 585 478 799 720 514 560 634 861 888 615 594
26 1 0 22 216 16 1 41 29 12 1 20 0 0 36 114 75 208 234 270 334 297 436 739 841 838 871 588 756 849 769 486 32 13 196 440 371 435 575 858 757 1440 1585 1785 1199 1252 1168 582 580
197 72 130 187 149 4 20 12 18 10 3 21 0 1 40 52 98 240 243 265 355 422 529 608 423 345 551 622 427 526 677 638 323 11 161 73 199 157 698 637 1102 1455 1094 1470 1326 1463 1161 893 655
152 24 41 141 246 16 31 5 3 7 8 37 16 7 33 43 93 195 262 287 256 286 334 365 208 262 166 223 329 391 747 520 131 205 1 180 428 442 251 502 1019 1138 875 1467 1671 1890 2151 930 744
31 14 6 52 193 71 42 5 4 3 15 21 33 21 43 44 34 115 204 309 261 269 168 69 57 183 321 687 638 345 706 432 10 578 602 609 47 0 151 1028 765 1326 1559 1522 1752 2090 2316 1791 1615
0 72 117 79 13 171 72 17 3 1 14 52 72 6 37 53 26 36 57 237 223 292 223 40 133 216 349 250 414 519 606 567 609 890 792 339 0 333 1004 771 479 877 856 1732 2060 2236 2043 2204 1244
0 10 26 34 59 88 67 14 14 0 8 99 64 9 32 10 19 23 28 88 180 259 307 116 94 81 330 309 235 602 802 692 630 771 948 346 97 459 1112 1198 951 500 826 1130 1853 2240 2142 1844 1142
63 14 35 26 79 89 63 39 0 1 22 66 60 45 47 15 11 0 30 76 117 200 245 229 151 82 428 489 501 604 767 677 604 825 765 946 1033 978 1050 1226 784 0 224 880 1811 2143 1751 976 399
38 120 135 86 34 1 6 1 0 0 0 45 74 53 65 44 30 29 53 82 128 192 211 217 99 93 274 457 454 376 349 420 372 534 481 556 807 330 732 1349 1000 718 940 1460 1804 2094 935 207 482
247 138 104 23 0 0 0 0 0 0 0 1 81 28 67 82 81 55 66 135 119 238 243 193 191 204 179 341 513 245 227 202 333 409 590 285 858 649 719 1094 1223 1276 905 1250 1598 1783 1048 0 280
220 97 49 4 0 0 0 0 0 3 1 2 48 50 29 65 66 77 125 143 176 220 297 219 139 70 124 312 478 531 233 297 478 258 463 316 559 803 893 906 1162 1160 667 840 1824 1719 1705 63 611
124 25 0 5 3 0 0 0 0 9 47 42 44 101 19 37 57 120 146 195 213 214 248 213 167 99 158 381 468 443 404 425 434 440 516 388 449 412 434 720 1020 962 893 1415 1708 1575 1457 1651 1299
18 0 0 1 1 0 0 5 14 48 89 101 49 48 19 4 37 51 126 138 160 240 290 285 231 189 227 537 418 443 414 587 465 505 418 337 542 482 409 338 913 923 1069 1492 1616 1451 1220 1426 1532
0 0 0 0 0 0 0 132 137 131 171 164 106 51 0 1 0 40 83 79 101 215 324 385 326 255 257 583 370 327 548 696 564 615 673 620 835 935 630 595 696 736 958 1152 1441 1201 1197 1404 1629
0 0 0 0 0 0 21 148 9 114 79 115 131 91 39 0 0 9 64 67 89 153 312 528 391 313 232 390 511 396 711 642 551 673 725 846 728 780 767 734 917 996 743 1389 1165 997 1077 1113 1289
0 0 0 0 0 0 6 121 338 59 63 1 0 17 82 73 15 0 9 52 21 74 181 451 404 391 280 467 489 668 714 784 742 791 794 771 760 624 763 852 776 896 915 994 795 605 764 648 857
0 0 0 0 0 0 0 112 137 174 78 3 0 0 2 42 7 21 0 35 22 35 141 359 403 505 464 773 710 619 489 698 800 867 683 789 714 646 321 448 665 636 1037 884 802 730 839 980 681